[[{"header":{"parameterUnit":"m.s-1","parameterCategory":1,"la1":30.6,"la2":28.766,"lo1":-90.7593,"lo2":-88.6598,"dx":0.0162,"dy":0.0183,"nx":116,"ny":114,"refTime":"2023-01-29T06:00:00:Z","depth":0,"parameterNumber":2,"parameterNumberName":"U-component_of_WINDS"},"data":[0.0,0.0,0.0,0.0,0.0,0.0,0.0,0.0,0.0,0.0,0.0,0.0,0.0,0.0,0.0,0.0,0.0,0.0,0.0,0.0,0.0,0.0,0.0,0.0,0.0,0.0,0.0,0.0,0.0,0.0,0.0,0.0,0.0,0.0,0.0,0.0,0.0,0.0,0.0,0.0,0.0,0.0,0.0,0.0,0.0,0.0,0.0,0.0,0.0,0.0,0.0,0.0,0.0,0.0,0.0,0.0,0.0,0.0,0.0,0.0,0.0,0.0,0.0,0.0,0.0,0.0,0.0,0.0,0.0,0.0,0.0,0.0,0.0,0.0,0.0,0.0,0.0,0.0,0.0,0.0,0.0,0.0,0.0,0.0,0.0,0.0,0.0,0.0,0.0,0.0,0.0,0.0,0.0,0.0,0.0,0.0,0.0,0.0,0.0,0.0,0.0,0.0,0.0,0.0,0.0,0.0,0.0,0.0,0.0,0.0,0.0,0.0,0.0,0.0,0.0,0.0,0.0,0.0,0.0,0.0,0.0,0.0,0.0,0.0,0.0,0.0,0.0,0.0,0.0,0.0,0.0,0.0,0.0,0.0,0.0,0.0,0.0,0.0,0.0,0.0,0.0,0.0,0.0,0.0,0.0,0.0,0.0,0.0,0.0,0.0,0.0,0.0,0.0,0.0,0.0,0.0,0.0,0.0,0.0,0.0,0.0,0.0,0.0,0.0,0.0,0.0,0.0,0.0,0.0,0.0,0.0,0.0,0.0,0.0,0.0,0.0,0.0,0.0,0.0,0.0,0.0,0.0,0.0,0.0,0.0,0.0,0.0,0.0,0.0,0.0,0.0,0.0,0.0,0.0,0.0,0.0,0.0,0.0,0.0,0.0,0.0,0.0,0.0,0.0,0.0,0.0,0.0,0.0,0.0,0.0,0.0,0.0,0.0,0.0,0.0,0.0,0.0,0.0,0.0,0.0,0.0,0.0,0.0,0.0,0.0,0.0,0.0,0.0,0.0,0.0,0.0,0.0,0.0,0.0,0.0,0.0,0.0,0.0,0.0,0.0,0.0,0.0,0.0,0.0,0.0,0.0,0.0,0.0,0.0,0.0,0.0,0.0,0.0,0.0,0.0,0.0,0.0,0.0,0.0,0.0,0.0,0.0,0.0,0.0,0.0,0.0,0.0,0.0,0.0,0.0,0.0,0.0,0.0,0.0,0.0,0.0,0.0,0.0,0.0,0.0,0.0,0.0,0.0,0.0,0.0,0.0,0.0,0.0,0.0,0.0,0.0,0.0,0.0,0.0,0.0,0.0,0.0,0.0,0.0,0.0,0.0,0.0,0.0,0.0,0.0,0.0,0.0,0.0,0.0,0.0,0.0,0.0,0.0,0.0,0.0,0.0,0.0,0.0,0.0,0.0,0.0,0.0,0.0,0.0,0.0,0.0,0.0,0.0,0.0,0.0,0.0,0.0,0.0,0.0,0.0,0.0,0.0,0.0,0.0,0.0,0.0,0.0,0.0,0.0,0.0,0.0,0.0,0.0,0.0,0.0,0.0,0.0,0.0,0.0,0.0,0.0,0.0,0.0,0.0,0.0,0.0,0.0,0.0,0.0,0.0,0.0,0.0,0.0,0.0,0.0,0.0,0.0,0.0,0.0,0.0,0.0,0.0,0.0,0.0,0.0,0.0,0.0,0.0,0.0,0.0,0.0,0.0,0.0,0.0,0.0,0.0,0.0,0.0,0.0,0.0,0.0,0.0,0.0,0.0,0.0,0.0,0.0,0.0,0.0,0.0,0.0,0.0,0.0,0.0,0.0,0.0,0.0,0.0,0.0,0.0,0.0,0.0,0.0,0.0,0.0,0.0,0.0,0.0,0.0,0.0,0.0,0.0,0.0,0.0,0.0,0.0,0.0,0.0,0.0,0.0,0.0,0.0,0.0,0.0,0.0,0.0,0.0,0.0,0.0,0.0,0.0,0.0,0.0,0.0,0.0,0.0,0.0,0.0,0.0,0.0,0.0,0.0,0.0,0.0,0.0,0.0,0.0,0.0,0.0,0.0,0.0,0.0,0.0,0.0,0.0,0.0,0.0,0.0,0.0,0.0,0.0,0.0,0.0,0.0,0.0,0.0,0.0,0.0,0.0,0.0,0.0,0.0,0.0,0.0,0.0,0.0,0.0,0.0,0.0,0.0,0.0,0.0,0.0,0.0,0.0,0.0,0.0,0.0,0.0,0.0,0.0,0.0,0.0,0.0,0.0,0.0,0.0,0.0,0.0,0.0,0.0,0.0,0.0,0.0,0.0,0.0,0.0,0.0,0.0,0.0,0.0,0.0,0.0,0.0,0.0,0.0,0.0,0.0,0.0,0.0,0.0,0.0,0.0,0.0,0.0,0.0,0.0,0.0,0.0,0.0,0.0,0.0,0.0,0.0,0.0,0.0,0.0,0.0,0.0,0.0,0.0,0.0,0.0,0.0,0.0,0.0,0.0,0.0,0.0,0.0,0.0,0.0,0.0,0.0,0.0,0.0,0.0,0.0,0.0,0.0,0.0,0.0,0.0,0.0,0.0,0.0,0.0,0.0,0.0,0.0,0.0,0.0,0.0,0.0,0.0,0.0,0.0,0.0,0.0,0.0,0.0,0.0,0.0,0.0,0.0,0.0,0.0,0.0,0.0,0.0,0.0,0.0,0.0,0.0,0.0,0.0,0.0,0.0,0.0,0.0,0.0,0.0,0.0,0.0,0.0,0.0,0.0,0.0,0.0,0.0,0.0,0.0,0.0,0.0,0.0,0.0,0.0,0.0,0.0,0.0,0.0,0.0,0.0,0.0,0.0,0.0,0.0,0.0,0.0,0.0,0.0,0.0,0.0,0.0,0.0,0.0,0.0,0.0,0.0,0.0,0.0,0.0,0.0,0.0,0.0,0.0,0.0,0.0,0.0,0.0,0.0,0.0,0.0,0.0,0.0,0.0,0.0,0.0,0.0,0.0,0.0,0.0,0.0,0.0,0.0,0.0,0.0,0.0,0.0,0.0,0.0,0.0,0.0,0.0,0.0,0.0,0.0,0.0,0.0,0.0,0.0,0.0,0.0,0.0,0.0,0.0,0.0,0.0,0.0,0.0,0.0,0.0,0.0,0.0,0.0,0.0,0.0,0.0,0.0,0.0,0.0,0.0,0.0,0.0,0.0,0.0,0.0,0.0,0.0,0.0,0.0,0.0,0.0,0.0,0.0,0.0,0.0,0.0,0.0,0.0,0.0,0.0,0.0,0.0,0.0,0.0,0.0,0.0,0.0,0.0,0.0,0.0,0.0,0.0,0.0,0.0,0.0,0.0,0.0,0.0,0.0,0.0,0.0,0.0,0.0,0.0,0.0,0.0,0.0,0.0,0.0,0.0,0.0,0.0,0.0,0.0,0.0,0.0,0.0,0.0,0.0,0.0,0.0,0.0,0.0,0.0,0.0,0.0,0.0,0.0,0.0,0.0,0.0,0.0,0.0,0.0,0.0,0.0,0.0,0.0,0.0,0.0,0.0,0.0,0.0,0.0,0.0,0.0,0.0,0.0,0.0,0.0,0.0,0.0,0.0,0.0,0.0,0.0,0.0,0.0,0.0,0.0,0.0,0.0,0.0,0.0,0.0,0.0,0.0,0.0,0.0,0.0,0.0,0.0,0.0,0.0,0.0,0.0,0.0,0.0,0.0,0.0,0.0,0.0,0.0,0.0,0.0,0.0,0.0,0.0,0.0,0.0,0.0,0.0,0.0,0.0,0.0,0.0,0.0,0.0,0.0,0.0,0.0,0.0,0.0,0.0,0.0,0.0,0.0,0.0,0.0,0.0,0.0,0.0,0.0,0.0,0.0,0.0,0.0,0.0,0.0,0.0,0.0,0.0,0.0,0.0,0.0,0.0,0.0,0.0,0.0,0.0,0.0,0.0,0.0,0.0,0.0,0.0,0.0,0.0,0.0,0.0,0.0,0.0,0.0,0.0,0.0,0.0,0.0,0.0,0.0,0.0,0.0,0.0,0.0,0.0,0.0,0.0,0.0,0.0,0.0,0.0,0.0,0.0,0.0,0.0,0.0,0.0,0.0,0.0,0.0,0.0,0.0,0.0,0.0,0.0,0.0,0.0,0.0,0.0,0.0,0.0,0.0,0.0,0.0,0.0,0.0,0.0,0.0,0.0,0.0,0.0,0.0,0.0,0.0,0.0,0.0,0.0,0.0,0.0,0.0,0.0,0.0,0.0,0.0,0.0,0.0,0.0,0.0,0.0,0.0,0.0,0.0,0.0,0.0,0.0,0.0,0.0,0.0,0.0,0.0,0.0,0.0,0.0,0.0,0.0,0.0,0.0,0.0,0.0,0.0,0.0,0.0,0.0,0.0,0.0,0.0,0.0,0.0,0.0,0.0,0.0,0.0,0.0,0.0,0.0,0.0,0.0,0.0,0.0,0.0,0.0,0.0,0.0,0.0,0.0,0.0,0.0,0.0,0.0,0.0,0.0,0.0,0.0,0.0,0.0,0.0,0.0,0.0,0.0,0.0,0.0,0.0,0.0,0.0,0.0,0.0,0.0,0.0,0.0,0.0,0.0,0.0,0.0,0.0,0.0,0.0,0.0,0.0,0.0,0.0,0.0,0.0,0.0,0.0,0.0,0.0,0.0,0.0,0.0,0.0,0.0,0.0,0.0,0.0,0.0,0.0,0.0,0.0,0.0,0.0,0.0,0.0,0.0,0.0,0.0,0.0,0.0,0.0,0.0,0.0,0.0,0.0,0.0,0.0,0.0,0.0,0.0,0.0,0.0,0.0,0.0,0.0,0.0,0.0,0.0,0.0,0.0,0.0,0.0,0.0,0.0,0.0,0.0,0.0,0.0,0.0,0.0,0.0,0.0,0.0,0.0,0.0,0.0,0.0,0.0,0.0,0.0,0.0,0.0,0.0,0.0,0.0,0.0,0.0,0.0,0.0,0.0,0.0,0.0,0.0,0.0,0.0,0.0,0.0,0.0,0.0,0.0,0.0,0.0,0.0,0.0,0.0,0.0,0.0,0.0,0.0,0.0,0.0,0.0,0.0,0.0,0.0,0.0,0.0,0.0,0.0,0.0,0.0,0.0,0.0,0.0,0.0,0.0,0.0,0.0,0.0,0.0,0.0,0.0,0.0,0.0,0.0,0.0,0.0,0.0,0.0,0.0,0.0,0.0,0.0,0.0,0.0,0.0,0.0,0.0,0.0,0.0,0.0,0.0,0.0,0.0,0.0,0.0,0.0,0.0,0.0,0.0,0.0,0.0,0.0,0.0,0.0,0.0,0.0,0.0,0.0,0.0,0.0,0.0,0.0,0.0,0.0,0.0,0.0,0.0,0.0,0.0,0.0,0.0,0.0,0.0,0.0,0.0,0.0,0.0,0.0,0.0,0.0,0.0,0.0,0.0,0.0,0.0,0.0,0.0,0.0,0.0,0.0,0.0,0.0,0.0,0.0,0.0,0.0,0.0,0.0,0.0,0.0,0.0,0.0,0.0,0.0,0.0,0.0,0.0,0.0,0.0,0.0,0.0,0.0,0.0,0.0,0.0,0.0,0.0,0.0,0.0,0.0,0.0,0.0,0.0,0.0,0.0,0.0,0.0,0.0,0.0,0.0,0.0,0.0,0.0,0.0,0.0,0.0,0.0,0.0,0.0,0.0,0.0,0.0,0.0,0.0,0.0,0.0,0.0,0.0,0.0,0.0,0.0,0.0,0.0,0.0,0.0,0.0,0.0,0.0,0.0,0.0,0.0,0.0,0.0,0.0,0.0,0.0,0.0,0.0,0.0,0.0,0.0,0.0,0.0,0.0,0.0,0.0,0.0,0.0,0.0,0.0,0.0,0.0,0.0,0.0,0.0,0.0,0.0,0.0,0.0,0.0,0.0,0.0,0.0,0.0,0.0,0.0,0.0,0.0,0.0,0.0,0.0,0.0,0.0,0.0,0.0,0.0,0.0,0.0,0.0,0.0,0.0,0.0,0.0,0.0,0.0,0.0,0.0,0.0,0.0,0.0,0.0,0.0,0.0,0.0,0.0,0.0,0.0,0.0,0.0,0.0,0.0,0.0,0.0,0.0,0.0,0.0,-1.6826,0.0,0.0,0.0,0.0,0.0,0.0,0.0,0.0,0.0,0.0,0.0,0.0,0.0,0.0,0.0,0.0,0.0,0.0,0.0,0.0,0.0,0.0,0.0,0.0,0.0,0.0,0.0,0.0,0.0,0.0,0.0,0.0,0.0,0.0,0.0,0.0,0.0,0.0,0.0,0.0,0.0,0.0,0.0,0.0,0.0,0.0,0.0,0.0,0.0,0.0,0.0,0.0,0.0,0.0,0.0,0.0,0.0,0.0,0.0,0.0,0.0,0.0,0.0,0.0,0.0,0.0,0.0,0.0,0.0,0.0,0.0,0.0,0.0,0.0,0.0,0.0,0.0,0.0,0.0,0.0,0.0,0.0,0.0,0.0,0.0,0.0,0.0,0.0,0.0,0.0,0.0,0.0,0.0,0.0,0.0,0.0,0.0,0.0,0.0,0.0,0.0,0.0,0.0,0.0,0.0,0.0,0.0,0.0,0.0,0.0,0.0,0.0,0.0,0.0,0.0,0.0,-1.7238,0.0,0.0,0.0,0.0,0.0,0.0,0.0,0.0,0.0,0.0,0.0,0.0,0.0,0.0,0.0,0.0,0.0,0.0,0.0,0.0,0.0,0.0,0.0,0.0,0.0,0.0,0.0,0.0,0.0,0.0,0.0,0.0,0.0,0.0,0.0,0.0,0.0,0.0,0.0,0.0,0.0,0.0,0.0,0.0,0.0,0.0,0.0,0.0,0.0,0.0,0.0,0.0,0.0,0.0,0.0,0.0,0.0,0.0,0.0,0.0,0.0,0.0,0.0,0.0,0.0,0.0,0.0,0.0,0.0,0.0,0.0,0.0,0.0,0.0,0.0,0.0,0.0,0.0,0.0,0.0,0.0,0.0,0.0,0.0,0.0,0.0,0.0,0.0,0.0,0.0,0.0,0.0,0.0,0.0,0.0,0.0,0.0,0.0,0.0,0.0,0.0,0.0,0.0,0.0,0.0,0.0,0.0,0.0,-1.1619,-1.1619,-1.1619,-1.1619,-1.1619,-1.1763,-1.4893,-1.5575,-1.4664,-1.7833,0.0,0.0,0.0,0.0,0.0,0.0,0.0,0.0,0.0,0.0,0.0,0.0,0.0,0.0,0.0,0.0,0.0,0.0,0.0,0.0,0.0,0.0,0.0,0.0,0.0,0.0,0.0,0.0,0.0,0.0,0.0,0.0,0.0,0.0,0.0,0.0,0.0,0.0,0.0,0.0,0.0,0.0,0.0,0.0,0.0,0.0,0.0,0.0,0.0,0.0,0.0,0.0,0.0,0.0,0.0,0.0,0.0,0.0,0.0,0.0,0.0,0.0,0.0,0.0,0.0,0.0,0.0,0.0,0.0,0.0,0.0,0.0,0.0,0.0,0.0,0.0,0.0,0.0,0.0,0.0,0.0,0.0,0.0,0.0,0.0,0.0,-1.1565,-1.1586,0.0,0.0,0.0,0.0,0.0,0.0,0.0,0.0,0.0,0.0,0.0,0.0,0.0,-1.1619,-1.1619,-1.1619,-1.1619,-1.1619,-1.1619,-1.1619,-1.1619,-1.1619,-1.1619,-1.1626,-1.2177,0.0,-1.4398,-1.5088,0.0,0.0,0.0,0.0,0.0,0.0,0.0,0.0,0.0,0.0,0.0,0.0,0.0,0.0,0.0,0.0,0.0,0.0,0.0,0.0,0.0,0.0,0.0,0.0,0.0,0.0,0.0,0.0,0.0,0.0,0.0,0.0,0.0,0.0,0.0,0.0,0.0,0.0,0.0,0.0,0.0,0.0,0.0,0.0,0.0,0.0,0.0,0.0,0.0,0.0,0.0,0.0,0.0,0.0,0.0,0.0,0.0,0.0,0.0,0.0,0.0,0.0,0.0,0.0,0.0,0.0,0.0,0.0,0.0,0.0,0.0,0.0,0.0,0.0,0.0,0.0,0.0,0.0,0.0,0.0,0.0,0.0,0.0,0.0,0.0,-1.1579,-1.1619,-1.1619,-1.1619,-1.1619,0.0,0.0,0.0,0.0,0.0,0.0,0.0,0.0,0.0,-1.1619,-1.1619,-1.1619,-1.1619,-1.1619,-1.1619,-1.1619,-1.1619,-1.1619,-1.1619,-1.1701,-1.1735,-1.1748,-1.1898,-1.2353,-1.3145,-1.4363,-1.5804,-1.7536,0.0,0.0,0.0,0.0,-2.3311,-2.4462,0.0,0.0,0.0,0.0,0.0,0.0,0.0,0.0,0.0,0.0,0.0,0.0,0.0,0.0,0.0,1.6043,0.0,0.0,0.0,0.0,0.0,0.0,0.0,0.0,0.0,0.0,0.0,0.0,0.0,0.0,0.0,0.0,0.0,0.0,0.0,0.0,0.0,0.0,0.0,0.0,0.0,0.0,0.0,0.0,0.0,0.0,0.0,0.0,0.0,0.0,0.0,0.0,0.0,0.0,0.0,0.0,0.0,0.0,0.0,0.0,0.0,0.0,0.0,0.0,0.0,0.0,0.0,0.0,0.0,0.0,0.0,0.0,0.0,0.0,0.0,0.0,0.0,-1.1619,-1.1619,-1.1619,-1.1619,-1.1619,0.0,0.0,0.0,0.0,0.0,0.0,-1.1619,-1.1619,-1.1619,-1.1619,-1.1619,-1.1619,-1.1619,-1.1619,-1.1619,-1.1619,-1.1653,-1.1674,-1.1681,-1.1823,-1.1891,-1.1898,-1.204,-1.2088,-1.2196,-1.3644,-1.4513,-1.5195,-1.7397,-1.949,-2.1417,-2.2066,-2.3311,-2.4636,0.0,0.0,0.0,0.0,0.0,0.0,0.0,0.0,0.0,0.0,0.0,0.0,0.0,0.0,1.7859,1.6043,1.4362,1.3325,0.0,0.0,0.0,0.0,0.0,0.0,0.0,0.0,0.0,0.0,0.0,0.0,0.0,0.0,0.0,0.0,0.0,0.0,0.0,0.0,0.0,0.9534,0.0,0.0,0.0,0.0,0.0,0.0,0.0,0.0,0.0,0.0,0.0,0.0,0.0,0.0,0.0,0.0,0.0,0.0,0.0,0.0,0.0,0.0,0.0,0.0,0.0,0.0,0.0,0.0,0.0,0.0,0.0,0.0,0.0,0.0,0.0,0.0,0.0,0.0,0.0,-1.1619,-1.1619,0.0,0.0,0.0,0.0,-1.1619,-1.1619,-1.1619,-1.1619,-1.1619,-1.1619,-1.1619,-1.1619,-1.1619,-1.1619,-1.1619,-1.1619,-1.1619,-1.1755,-1.1823,-1.1823,-1.1979,-1.2047,-1.2054,-1.2155,-1.2299,-1.2366,-1.2352,-1.3627,-1.5554,-1.7653,-1.979,-2.1881,-2.374,-2.4475,-2.4636,0.0,0.0,0.0,0.0,0.0,0.0,0.0,0.0,0.0,0.0,0.0,0.0,0.0,1.9546,1.9024,1.6172,1.5265,1.4493,1.3325,0.0,0.0,0.0,0.0,0.0,0.0,0.0,0.0,0.0,0.0,0.0,0.0,0.0,0.0,0.0,0.0,0.0,0.0,0.0,0.0,1.0485,0.7912,0.415,0.0,0.0,0.0,0.0,0.0,0.0,0.0,0.0,0.0,0.0,0.0,0.0,0.0,0.0,0.0,0.0,0.0,0.0,0.0,0.0,0.0,0.0,0.0,0.0,0.0,0.0,0.0,0.0,0.0,0.0,0.0,0.0,0.0,0.0,0.0,0.0,0.0,-1.1619,-1.1619,0.0,-1.1619,-1.1619,-1.1619,-1.1619,-1.1619,-1.1619,-1.1619,-1.1619,-1.1619,-1.1619,-1.1619,-1.1619,-1.1619,-1.1619,-1.1667,-1.1755,-1.1809,-1.1884,-1.1986,-1.2142,-1.221,-1.2216,-1.2345,-1.2379,-1.2498,-1.2498,-1.2881,-1.3781,-1.5726,-1.7798,-1.9875,-2.1929,-2.3472,-2.4636,0.0,0.0,0.0,0.0,0.0,0.0,0.0,0.0,0.0,0.0,0.0,1.8768,1.9291,2.0462,1.9941,1.7087,1.6302,1.5135,1.3456,0.0,0.0,0.0,0.0,0.0,0.0,0.0,0.0,0.0,0.0,0.0,0.0,0.0,0.0,0.0,0.0,0.0,0.0,0.0,0.0,1.0744,1.0751,0.7912,0.335,0.0,0.0,0.0,0.0,0.0,0.0,0.0,0.0,0.0,0.0,0.0,0.0,0.0,0.0,0.0,0.0,0.0,0.0,0.0,0.0,0.0,0.0,0.0,0.0,0.0,0.0,0.0,0.0,0.0,0.0,0.0,0.0,0.0,0.0,0.0,-1.1619,-1.1619,-1.1619,-1.1619,-1.1619,-1.1619,-1.1619,-1.1619,-1.1619,-1.1619,-1.1619,-1.1619,-1.1619,-1.1619,-1.1619,-1.164,-1.1687,-1.1687,-1.1762,-1.1911,-1.1959,-1.204,-1.2142,-1.2291,-1.2359,-1.2366,-1.2461,-1.2501,-1.2501,-1.2501,-1.2501,-1.2663,-1.4748,-1.6384,-1.7832,-2.0547,-2.2485,-2.3645,0.0,0.0,0.0,0.0,0.0,0.0,0.0,0.0,0.0,0.0,1.8559,1.9036,2.0856,2.0982,2.0322,1.8512,1.6818,1.5135,1.3325,1.1652,0.0,0.0,0.0,0.0,0.0,0.0,0.0,0.0,0.0,0.0,0.0,0.0,0.0,0.0,0.0,0.0,0.0,0.0,1.0717,1.0724,1.0744,1.0751,0.994,0.0,0.0,0.0,0.0,0.0,0.0,0.0,0.0,0.0,0.0,0.0,0.0,0.0,0.0,0.0,0.0,0.0,0.0,0.0,0.0,0.0,0.0,0.0,0.0,0.0,0.0,0.0,0.0,0.0,0.0,0.0,0.0,0.0,-1.1619,-1.1619,-1.1619,-1.1619,-1.1619,-1.1619,-1.1619,-1.1619,-1.1619,-1.1619,-1.1619,-1.1619,-1.1619,-1.1619,-1.1619,-1.1619,-1.1619,-1.1694,-1.183,-1.1837,-1.1918,-1.2074,-1.2223,-1.2291,-1.2298,-1.244,-1.2501,-1.2501,-1.2501,-1.2501,-1.2501,-1.2501,-1.2501,-1.2663,-1.4748,-1.559,-1.612,-2.0081,-2.1686,-2.2005,0.0,0.0,0.0,0.0,0.0,0.0,0.0,0.0,0.0,0.0,1.7862,1.7478,1.9314,1.9401,1.7988,1.5005,1.4232,1.3325,1.1505,0.0,0.0,0.0,0.0,0.0,0.0,0.0,0.0,0.0,0.0,0.0,0.0,0.0,0.0,0.0,0.0,0.0,0.0,0.0,1.0717,1.0717,1.0724,1.0738,1.0485,0.0,0.0,0.0,0.0,0.0,0.0,0.0,0.0,0.0,0.0,0.0,0.0,0.0,0.0,0.0,0.0,0.0,0.0,0.0,0.0,0.0,0.0,0.0,0.0,0.0,0.0,0.0,0.0,0.0,0.0,0.0,-1.1619,-1.1619,-1.1619,-1.1619,-1.1619,-1.1619,-1.1619,-1.1619,-1.1619,-1.1619,-1.1619,-1.1619,-1.1619,-1.1619,-1.1619,-1.1619,-1.1619,-1.1619,-1.1721,-1.1789,-1.183,-1.1945,-1.2074,-1.223,-1.2271,-1.2345,-1.2447,-1.2481,-1.2501,-1.2501,-1.2501,-1.2501,-1.2501,-1.2501,-1.2501,-1.2663,-1.4748,-1.6445,-1.8104,-2.0583,-2.2603,-2.4301,0.0,0.0,0.0,0.0,0.0,0.0,0.0,0.0,0.0,0.0,1.7151,1.7055,1.8921,1.8829,1.7228,1.3707,1.3367,1.2545,1.085,0.0,0.0,0.0,0.0,0.0,0.0,0.0,0.0,0.0,0.0,0.0,0.0,0.0,0.0,0.0,0.0,0.0,0.0,1.0717,1.0717,1.0717,1.0717,1.0731,1.0744,1.0819,0.8168,0.4113,0.1103,-0.0,-0.0,-0.0,0.0,0.0,0.0,0.0,0.0,0.0,0.0,0.0,0.0,0.0,0.0,0.0,0.0,0.0,0.0,0.0,0.0,0.0,0.0,0.0,0.0,0.0,0.0,0.0,-1.1619,-1.1619,-1.1619,-1.1619,-1.1619,-1.1619,-1.1619,-1.1619,-1.1619,-1.1619,-1.1619,-1.1619,-1.1619,-1.1619,-1.1619,-1.1674,-1.1708,-1.1708,-1.185,-1.1959,-1.2026,-1.2115,-1.223,-1.2379,-1.2379,-1.242,-1.2501,-1.2501,-1.2501,-1.2501,-1.2501,-1.2501,-1.2501,-1.2501,-1.2501,0.0,0.0,0.0,0.0,0.0,-2.1954,-2.4163,0.0,0.0,0.0,0.0,0.0,0.0,0.0,0.0,0.0,0.0,0.0,1.7162,1.8787,1.8823,1.7203,1.3478,1.3054,1.2437,0.0,0.0,0.0,0.0,0.0,0.0,0.0,0.0,0.0,0.0,0.0,0.0,0.0,0.0,0.0,0.0,0.0,0.0,1.0717,1.0717,1.0717,1.0724,1.0738,1.0744,1.0765,1.0921,1.0879,0.9835,0.3068,0.0283,-0.0,-0.0,0.0,0.0,0.0,0.0,0.0,0.0,0.0,0.0,0.0,0.0,0.0,0.0,0.0,0.0,0.0,0.0,0.0,0.0,0.0,0.0,0.0,0.0,0.0,0.0,-1.1619,-1.1619,-1.1619,-1.1619,-1.1619,-1.1619,-1.1619,-1.1619,-1.1619,-1.1619,-1.1619,-1.1619,-1.1619,-1.1626,-1.164,0.0,0.0,0.0,0.0,-1.2155,-1.2291,-1.2305,-1.2379,-1.2501,-1.2501,-1.2501,-1.2501,-1.2501,-1.2501,-1.2501,-1.2501,-1.2501,-1.2501,-1.2501,-1.2542,-1.2759,-1.2845,-1.3184,-1.4004,-1.8089,-2.0977,-2.3028,0.0,0.0,0.0,0.0,0.0,0.0,0.0,0.0,0.0,1.6627,1.6847,1.6981,1.7402,1.7193,1.551,1.176,1.1319,1.1114,0.0,0.0,0.0,0.0,0.0,0.0,0.0,0.0,0.0,0.0,0.0,0.0,0.0,0.0,0.0,0.0,0.0,0.0,1.0717,1.0717,1.0717,1.0731,1.0853,1.0907,1.0907,1.0941,1.098,1.0633,0.5951,0.2432,-0.0,-0.0,-0.0,-0.0,-0.0,0.0,0.0,0.0,0.0,0.0,0.0,0.0,0.0,0.0,0.0,0.0,0.0,0.0,0.0,0.0,0.0,0.0,0.0,0.0,0.0,-1.1619,-1.1619,-1.1619,-1.1619,-1.1619,-1.1619,-1.1619,-1.1619,-1.1619,-1.1619,-1.1619,-1.1619,-1.1619,-1.1619,-1.1667,-1.1782,-1.1816,-1.1884,-1.2013,-1.2162,-1.2257,-1.2291,-1.2406,-1.2474,-1.2501,0.0,0.0,-1.2501,-1.2501,-1.2501,-1.2501,-1.2501,-1.2501,-1.2501,-1.2663,-1.2786,-1.318,-1.4649,-1.6423,-1.8337,-2.1026,-2.3383,-2.5319,0.0,0.0,0.0,0.0,0.0,0.0,0.0,0.0,0.0,0.0,1.5747,1.5682,1.5682,1.5505,1.4216,1.1337,1.0921,0.0,0.0,0.0,0.0,0.0,0.0,0.0,0.0,0.0,0.0,0.0,0.0,0.0,0.0,0.0,0.0,0.0,0.0,1.0717,1.0724,1.0806,1.0833,1.0846,1.0995,1.1104,1.1172,1.1172,1.1274,1.1005,0.9209,0.4768,-0.0,-0.0,-0.0,-0.0,-0.0,-0.0,-0.0,0.0,0.0,0.0,0.0,0.0,0.0,0.0,0.0,0.0,0.0,0.0,0.0,0.0,0.0,-1.1619,-1.1619,0.0,-1.1619,-1.1619,-1.1619,-1.1619,-1.1619,-1.1619,-1.1619,-1.1619,-1.1619,-1.1619,-1.1619,-1.1619,-1.1619,-1.1619,-1.1687,-1.1755,-1.183,-1.1979,-1.2094,-1.2176,-1.2318,-1.2393,-1.2393,-1.2467,-1.2501,-1.2501,-1.2501,-1.2501,-1.2501,-1.2501,-1.2501,-1.2508,-1.2583,-1.2617,-1.2623,-1.3998,-1.4563,-1.4853,-1.7038,-1.7882,-1.8211,-2.1589,-2.3532,-2.4781,0.0,0.0,0.0,0.0,0.0,0.0,0.0,0.0,0.0,0.0,0.0,1.4432,1.4432,1.4297,1.3424,0.0,0.0,0.0,0.0,0.0,0.0,0.0,0.0,0.0,0.0,0.0,0.0,0.0,0.0,0.0,0.0,0.0,0.0,1.0724,1.0751,1.0765,1.0772,1.0928,1.0989,1.1002,1.1145,1.128,1.1396,1.1423,1.1443,1.1342,1.1502,0.7131,0.1017,0.0292,-0.0,-0.0,-0.0,-0.1022,-0.2189,-0.2182,-0.6119,0.0,0.0,0.0,0.0,0.0,0.0,0.0,0.0,-1.1619,-1.1619,-1.1619,-1.1619,-1.1619,-1.1619,-1.1619,-1.1619,-1.1619,-1.1619,-1.1619,-1.1619,-1.1619,-1.1619,-1.1619,-1.1619,-1.1619,-1.1619,-1.1647,-1.166,-1.166,-1.1796,-1.1891,-1.1918,-1.2155,-1.2305,-1.2332,-1.244,-1.2501,-1.2501,-1.2501,-1.2501,-1.2501,-1.2501,-1.2501,-1.2501,-1.2501,-1.2515,-1.2556,-1.2705,-1.2937,-1.3584,-1.5561,-1.6613,-1.7297,-1.9682,-1.9309,-1.8201,-2.1849,-2.338,-2.4074,0.0,0.0,0.0,0.0,0.0,0.0,0.0,0.0,0.0,0.0,0.0,0.0,0.0,0.0,0.0,0.0,0.0,0.0,0.0,0.0,0.0,0.0,0.0,0.0,0.0,0.0,0.0,0.0,0.0,0.0,0.0,0.0,1.0717,1.0724,1.086,1.0921,1.0934,1.1077,1.1138,1.1151,1.1307,1.1375,1.1402,1.1545,1.1592,1.1606,1.1536,0.8889,0.4649,0.1166,-0.0,-0.0,-0.0,-0.4679,-1.0292,-1.0262,-0.8464,-0.7268,-1.063,-1.166,-1.1063,-0.8703,-0.9879,-1.1647,0.0,-1.1619,-1.1619,-1.1619,-1.1619,-1.1619,-1.1619,-1.1619,-1.1619,-1.1619,-1.1619,-1.1619,-1.1619,-1.1619,-1.1619,-1.1619,-1.1619,-1.1619,-1.1619,-1.1735,-1.1809,-1.1809,-1.1952,-1.2094,-1.223,-1.2271,-1.2345,-1.2474,-1.2494,-1.2501,-1.2501,-1.2501,-1.2501,-1.2501,-1.2501,-1.2501,-1.2501,-1.2501,-1.2576,-1.2712,-1.2868,-1.4069,-1.6023,-1.6267,-1.7563,-1.9799,-2.1919,-2.2623,-2.2441,-2.2894,-2.4269,-2.603,0.0,0.0,0.0,0.0,0.0,0.0,0.0,0.0,0.0,0.0,0.0,0.0,0.0,0.0,0.0,0.0,0.0,0.0,0.0,0.0,0.0,0.0,0.0,0.0,0.0,0.0,0.0,0.0,0.0,0.0,0.0,1.0941,1.0975,1.0982,1.1043,1.107,1.1084,1.1233,1.1294,1.1307,1.1463,1.1525,1.1531,1.1592,1.1626,1.1647,1.1543,0.9039,0.0,0.0,-0.0,-0.0,-0.0,-0.5265,-1.1636,-1.1603,-1.0396,-0.9496,-1.1115,-1.0492,-0.8853,-0.711,-0.9152,-1.1647,-1.1626,-1.1619,-1.1619,-1.1619,-1.1619,-1.1619,-1.1619,-1.1619,-1.1619,-1.1619,-1.1619,-1.1619,-1.1619,-1.1619,-1.1619,-1.1619,-1.1694,-1.1742,-1.1742,-1.1796,-1.187,-1.1959,-1.2108,-1.2223,-1.2284,-1.2366,-1.244,-1.2501,-1.2501,-1.2501,-1.2501,-1.2501,-1.2501,-1.2501,-1.2501,-1.2501,-1.2508,-1.2596,-1.2766,-1.299,-1.4333,-1.5546,-1.6632,-1.9321,-2.0814,-2.1939,-2.4172,-2.4964,-2.4964,-2.4964,-2.5661,-2.6386,0.0,0.0,0.0,0.0,0.0,0.0,0.0,0.0,0.0,0.0,0.0,0.0,0.0,0.0,0.0,0.0,0.0,0.0,0.0,0.0,0.0,0.0,0.0,0.0,0.0,0.0,0.0,0.0,0.0,1.1009,1.1009,1.1118,1.1165,1.1165,1.1206,1.1226,1.124,1.1389,1.1457,1.1463,1.1572,1.1619,1.1619,1.1626,1.164,1.166,1.1549,0.8444,0.0,0.0,-0.2478,-0.1603,-0.1603,-0.5402,-1.0268,-1.1279,-1.1569,-1.1563,-1.1583,-0.9618,-0.7684,-0.7412,-0.9457,-1.1647,-1.1626,-1.1619,-1.1619,-1.1619,-1.1619,-1.1619,-1.1619,-1.1619,-1.1619,-1.1619,-1.1619,-1.1619,-1.1619,-1.1619,-1.1633,-1.1674,-1.1769,-1.1864,-1.1952,-1.1959,-1.2006,-1.2115,-1.2264,-1.2345,-1.2345,-1.2447,-1.2501,-1.2501,-1.2501,-1.2501,-1.2501,-1.2501,-1.2501,-1.2501,-1.2501,-1.2522,-1.2569,-1.2766,-1.3283,-1.4142,-1.5788,-1.717,-1.8607,-2.1849,-2.3537,-2.4134,-2.5792,-2.6386,-2.6386,-2.6386,-2.6386,-2.6386,0.0,0.0,0.0,0.0,0.0,0.0,0.0,0.0,0.0,0.0,0.0,0.0,0.0,0.0,0.0,0.0,0.0,0.0,0.0,0.0,0.0,0.0,0.0,0.0,0.0,0.0,0.0,0.0,1.1151,1.1158,1.1158,1.1158,1.1165,1.1172,1.1314,1.1382,1.1396,1.1545,1.1613,1.1613,1.1619,1.1619,1.1619,1.1647,1.1653,1.166,1.1549,0.0,0.0,0.0,-0.876,-0.5663,-0.5663,-0.5812,-0.6684,-1.048,-1.164,-1.1633,-1.1549,-0.9752,-0.8271,-1.0806,-1.1529,-1.1647,-1.1626,-1.1619,-1.1619,-1.1619,-1.1619,-1.1619,-1.1619,-1.1619,-1.1619,-1.1619,-1.1619,-1.1619,-1.1619,-1.1619,-1.1674,-1.1809,-1.183,-1.1945,-1.225,-1.2277,-1.2277,-1.2284,-1.2413,-1.2494,-1.2494,-1.2501,-1.2501,-1.2501,-1.2501,-1.2501,-1.2501,-1.2501,-1.2501,-1.2501,-1.2501,-1.2576,-1.2732,-1.3024,-1.429,-1.6232,-1.6563,-1.8913,-2.2831,-2.3005,-2.4282,-2.6241,-2.6386,-2.6386,-2.6386,-2.6386,-2.6386,-2.6386,0.0,0.0,0.0,0.0,0.0,0.0,0.0,0.0,0.0,0.0,0.0,0.0,0.0,0.0,0.0,0.0,0.0,0.0,0.0,0.0,0.0,0.0,0.0,0.0,0.0,0.0,0.0,1.1165,1.1267,1.1314,1.1314,1.1416,1.1463,1.147,1.1518,1.1545,1.1545,1.1599,1.1619,1.1619,1.1619,1.1619,1.1619,1.1647,0.841,0.39,0.0,0.0,0.0,0.0,0.0,-0.963,-0.963,-0.963,-0.9919,-1.1221,-1.164,-1.1626,-1.166,-1.0913,-1.0455,-1.1372,-1.1653,-1.1626,-1.1619,-1.1619,-1.1619,-1.1619,-1.1619,-1.1619,-1.1619,-1.1619,-1.1619,-1.1619,-1.1619,-1.1619,-1.1619,-1.1701,-1.1775,-1.1823,-1.2013,-1.2176,-1.2277,-1.2291,-1.2332,-1.2427,-1.2474,-1.2501,-1.2501,-1.2501,-1.2501,-1.2501,-1.2501,-1.2501,-1.2501,-1.2501,-1.2501,-1.2501,-1.2603,-1.2786,-1.3024,-1.4569,-1.5804,-1.6726,-1.9695,-2.1695,-2.3199,-2.4689,-2.5792,-2.6386,-2.6386,-2.6386,-2.6386,-2.6386,-2.6386,-2.6386,0.0,0.0,0.0,0.0,0.0,0.0,0.0,0.0,0.0,0.0,0.0,0.0,0.0,0.0,0.0,0.0,0.0,0.0,0.0,0.0,0.0,0.0,0.0,0.0,0.0,0.0,1.1348,1.1335,1.1436,1.1477,1.1477,1.1572,1.1619,1.1619,1.1619,1.1619,1.1619,1.1619,1.1626,1.1633,1.1633,1.164,1.1352,0.8564,0.4341,0.0,0.0,0.0,0.0,0.0,-1.1536,-1.1529,-1.1529,-1.1529,-1.1674,-1.1647,-1.1633,-1.1626,-1.1647,-1.1633,-1.1626,-1.1647,-1.1633,-1.1619,-1.1619,-1.1619,-1.1619,-1.1619,-1.1619,-1.1619,-1.1619,-1.1619,-1.1619,-1.1619,-1.1619,-1.164,-1.1687,-1.1775,-1.187,-1.1986,-1.2169,-1.2311,-1.2359,-1.2366,-1.2406,-1.2494,-1.2501,-1.2501,-1.2501,-1.2501,-1.2501,-1.2501,-1.2501,-1.2501,-1.2501,-1.2501,-1.2528,-1.2583,-1.3569,-1.4098,-1.446,-1.6615,-1.8161,-1.9085,-2.1845,-2.3484,-2.4332,-2.5753,-2.6386,-2.6386,-2.6386,-2.6386,-2.6386,-2.6386,-2.6386,-2.6386,0.0,0.0,0.0,0.0,0.0,0.0,0.0,0.0,0.0,0.0,0.0,0.0,0.0,0.0,0.0,0.0,0.0,0.0,0.0,0.0,0.0,0.0,0.0,0.0,0.0,1.126,1.1247,1.1358,1.1509,1.1647,1.1626,1.1626,1.1626,1.1626,1.1626,1.1626,1.1626,1.1626,1.1633,1.1509,1.1365,1.1234,1.0517,0.2898,0.0,0.0,0.0,0.0,0.0,-1.1653,-1.164,-1.1619,-1.1619,-1.1626,-1.1619,-1.1619,-1.1619,-1.1626,-1.1647,-1.1633,-1.1626,-1.1647,-1.1633,-1.1619,-1.1619,-1.1619,-1.1619,-1.1619,-1.1619,-1.1619,-1.1619,-1.1619,-1.1619,-1.1619,-1.1626,-1.1681,-1.1809,-1.1843,-1.1965,-1.2257,-1.2298,-1.2352,-1.2488,-1.2501,-1.2501,-1.2501,0.0,-1.2501,-1.2501,-1.2501,-1.2501,-1.2501,-1.2501,-1.2501,-1.2501,-1.2508,-1.2596,-1.291,-1.5265,-1.6385,-1.6725,-1.9008,-2.12,-2.314,-2.314,-2.4442,-2.6386,-2.6386,-2.6386,-2.6386,-2.6386,-2.6386,-2.6386,-2.6386,-2.6386,-2.6386,0.0,0.0,0.0,0.0,0.0,0.0,0.0,0.0,0.0,0.0,0.0,0.0,0.0,0.0,0.0,0.0,0.0,0.0,0.0,0.0,0.0,0.0,0.0,0.0,0.0,0.0,0.0,0.0,0.0,1.1543,1.1536,1.1536,1.1536,1.1536,1.1536,1.1536,1.1536,1.1536,1.1543,1.1391,0.0,0.7268,0.6688,0.0,0.0,0.0,0.0,0.0,-1.1626,-1.1626,-1.1633,-1.1653,-1.1529,-1.1536,-1.1536,-1.1653,-1.1647,-1.164,-1.1633,-1.1626,-1.1619,-1.1626,-1.1626,-1.1619,-1.1619,-1.1619,-1.1619,-1.1619,-1.1619,-1.1619,-1.1619,-1.1619,-1.1619,-1.1619,-1.1708,-1.1789,-1.1823,-1.2026,-1.2203,-1.2284,-1.2386,-1.2461,-1.2501,-1.2501,-1.2501,0.0,-1.2501,-1.2501,-1.2501,-1.2501,-1.2501,-1.2501,-1.2501,-1.2501,-1.2501,-1.2617,-1.3584,-1.5449,-1.6182,-1.7261,-1.9018,-2.1329,-2.2659,-2.314,-2.4761,-2.5898,-2.6386,-2.6386,-2.6386,-2.6386,-2.6386,-2.6386,-2.6386,-2.6386,-2.6386,-2.6386,0.0,0.0,0.0,0.0,0.0,0.0,0.0,0.0,0.0,0.0,0.0,0.0,0.0,0.0,0.0,0.0,0.0,0.0,0.0,0.0,0.0,0.0,0.0,0.0,0.0,0.0,0.0,0.0,0.0,0.0,0.0,0.9039,0.9039,0.9039,0.9039,0.9039,0.9039,0.9039,0.0,0.0,0.0,0.0,0.0,0.0,0.0,0.0,0.0,0.0,-1.1338,-0.9585,-0.9008,-0.9018,-0.9034,-0.9468,-0.9902,-0.9885,-1.0756,-1.1633,-1.1619,-1.1619,-1.1619,-1.1619,-1.1619,-1.1619,-1.1619,-1.1619,-1.19,-1.2602,-1.2187,-1.19,-1.2745,-1.218,-1.1619,-1.1619,-1.1742,-1.1857,-1.1925,-1.2135,-1.2311,-1.2372,-1.2454,-1.2501,-1.2501,-1.2501,-1.2501,-1.2501,-1.2501,-1.2501,-1.2501,-1.2501,-1.2501,-1.2501,-1.2501,-1.2993,-1.3981,-1.4223,-1.5545,-1.7824,-1.8872,-2.0107,-2.1362,-2.3632,-2.4602,-2.4602,0.0,-2.6386,-2.6386,-2.6386,-2.6386,-2.6386,-2.6386,-2.6386,-2.6386,-2.6386,-2.6386,-2.6386,0.0,0.0,0.0,0.0,0.0,0.0,0.0,0.0,0.0,0.0,0.0,0.0,0.0,0.0,0.0,0.0,0.0,0.0,0.0,0.0,0.0,0.0,0.0,0.0,0.0,0.0,0.0,0.0,0.0,0.0,0.0,0.0,0.0,0.0,0.0,0.0,0.0,0.0,0.0,0.0,0.0,0.0,0.0,0.0,0.0,0.0,0.0,0.0,-1.1063,-0.7119,-0.6101,-0.6543,-0.6543,-0.7263,-0.8271,-0.8261,-0.9867,-1.1619,-1.1619,-1.1619,-1.1619,-1.1619,-1.1619,-1.1619,-1.1619,-1.1756,-1.2323,-1.3729,-1.2888,-1.2323,-1.3729,-1.2745,-1.1626,-1.1647,-1.1769,-1.1918,-1.2067,-1.2223,-1.2366,-1.2488,-1.2501,-1.2501,-1.2501,-1.2501,-1.2501,-1.2501,-1.2501,-1.2501,-1.2501,-1.2501,-1.2508,-1.2528,-1.2838,-1.3996,-1.6043,-1.6535,-1.7994,-2.0252,-2.2225,-2.33,-2.362,-2.5581,-2.6386,-2.6386,-2.6386,-2.6386,-2.6386,-2.6386,-2.6386,-2.6386,-2.6386,-2.6386,-2.6386,-2.6386,-2.6386,-2.6386,0.0,0.0,0.0,0.0,0.0,0.0,0.0,0.0,0.0,0.0,0.0,0.0,0.0,0.0,0.0,0.0,0.0,0.0,0.0,0.0,0.0,0.0,0.0,0.0,0.0,0.0,0.0,0.0,0.0,0.0,0.0,0.0,0.0,0.0,0.0,0.0,0.0,0.0,0.0,0.0,0.0,0.0,0.0,0.0,0.0,0.0,0.0,0.0,0.0,0.0,-0.7869,-1.0547,-1.0547,-1.0692,-1.097,-1.0925,-1.1208,-1.1647,-1.1626,-1.1619,-1.1619,-1.1619,-1.1619,-1.1619,-1.1619,-1.2745,-1.3587,-1.2323,-1.3024,-1.3587,-1.2323,-1.1756,-1.166,-1.1775,-1.1925,-1.2074,-1.223,-1.2372,-1.2474,-1.2501,-1.2501,-1.2501,-1.2501,-1.2501,-1.2501,0.0,-1.2501,-1.2501,-1.2501,-1.2501,-1.2562,-1.2684,-1.4384,-1.5623,-1.6284,-1.8258,-2.0304,-2.259,-2.2957,-2.4111,-2.5898,-2.6228,-2.6386,-2.6386,-2.6386,0.0,-2.6386,-2.6386,-2.6386,-2.6386,-2.6386,-2.6386,-2.6386,-2.6386,-2.6386,-2.6386,0.0,0.0,0.0,0.0,0.0,0.0,0.0,0.0,0.0,0.0,0.0,0.0,0.0,0.0,0.0,0.0,0.0,0.0,0.0,0.0,0.0,0.0,0.0,0.0,0.0,0.0,-0.0,-0.0,0.0,0.0,0.0,-0.0,-0.0,-0.0,0.0,0.0,0.0,0.0,0.0,0.0,0.0,0.0,0.0,0.0,0.0,0.0,0.0,0.0,0.0,0.0,-0.8734,-0.8905,-1.0989,-1.1583,-1.1569,-1.1667,-1.1647,-1.1633,-1.1619,-1.1619,-1.1619,-1.1619,-1.1619,-1.1619,-1.1619,-1.2323,-1.3031,-1.3024,-1.3031,-1.3031,-1.3024,-1.3024,-1.2798,-1.1949,-1.2831,-1.329,-1.2416,-1.2413,-1.2501,-1.2501,-1.2501,-1.2501,-1.2501,-1.2501,-1.2501,-1.2501,-1.2501,-1.2501,-1.2501,-1.2576,-1.3113,-1.443,-1.554,-1.7304,-1.9722,-2.0963,-2.2533,-2.4761,-2.4761,-2.5409,-2.6386,-2.6386,-2.6386,-2.6386,-2.6386,-2.6386,-2.6386,-2.6386,-2.6386,-2.6386,-2.6386,-2.6386,-2.6386,-2.6386,-2.6386,-2.6386,0.0,0.0,0.0,0.0,0.0,0.0,0.0,0.0,0.0,0.0,0.0,0.0,0.0,0.0,0.0,0.0,0.0,0.0,0.0,0.0,0.0,0.0,0.0,0.0,0.0,0.0,0.0,-0.0,-0.0,0.0,0.0,0.0,0.0,0.0,-0.0,-0.0,-0.0,0.0,0.0,0.0,0.0,-0.2337,0.0,0.0,0.0,0.0,0.0,0.0,-1.1647,-1.1653,-0.9602,-0.7562,-1.0674,-1.1563,-1.1543,-1.1653,-1.1633,-1.1619,-1.1619,-1.1619,-1.1619,-1.1619,-1.1619,-1.1619,-1.1619,-1.2187,-1.3031,-1.4148,-1.3872,-1.3737,-1.4858,-1.4991,-1.4651,-1.329,-1.4449,-1.4918,-1.321,-1.3034,-1.2958,-1.2501,-1.2501,-1.2501,-1.2501,-1.2501,-1.2501,-1.2501,-1.2501,-1.2515,-1.2549,-1.3127,-1.4155,-1.6094,-1.6703,-1.8955,-2.2835,-2.3034,-2.4271,-2.6386,-2.6386,-2.6386,-2.6386,-2.6386,-2.6386,-2.6386,-2.6386,-2.6386,0.0,-2.6386,-2.6386,-2.6386,-2.6386,-2.6386,-2.6386,-2.6386,-2.6386,-2.6386,0.0,0.0,0.0,0.0,0.0,0.0,0.0,0.0,0.0,0.0,0.0,0.0,0.0,0.0,0.0,0.0,0.0,0.0,0.0,0.0,0.0,0.0,0.0,0.0,0.0,0.0,0.0,-0.0,-0.0,0.0,0.0,0.0,0.0,0.0,0.0,-0.0,-0.0,-0.0,0.0,0.0,0.0,0.0,0.0,0.0,0.0,0.0,0.0,-1.1619,-1.1626,-1.1647,-1.1358,-1.107,-1.1516,-1.166,-1.1653,-1.1626,-1.1619,-1.1619,-1.1619,-1.1619,-1.1619,-1.1619,-1.1619,-1.1619,-1.1619,-1.4298,-1.6263,-1.4716,-1.6957,-1.8798,-1.7248,-1.6967,-1.6964,-1.7369,-1.7448,-1.7016,-1.5464,-1.5225,-1.4475,-1.2656,-1.2501,-1.2501,-1.2501,-1.2501,-1.2501,-1.2501,-1.2501,-1.2562,-1.2705,-1.4579,-1.5979,-1.6317,-1.8276,-2.0623,-2.3105,-2.3128,-2.4271,-2.6386,-2.6386,-2.6386,-2.6386,-2.6386,-2.6386,-2.6386,-2.6386,-2.6386,0.0,-2.6386,-2.6386,-2.6386,-2.6386,-2.6386,-2.6386,-2.6386,-2.6386,-2.6386,0.0,0.0,0.0,0.0,0.0,0.0,0.0,0.0,0.0,0.0,0.0,0.0,0.0,0.0,0.0,0.0,0.0,0.0,0.0,0.0,0.0,0.0,0.0,0.0,0.0,0.0,-0.0,-0.0,-0.0,0.0,0.0,0.0,0.0,0.0,0.0,-0.0,-0.0,-0.0,0.0,0.0,0.0,0.0,0.0,0.0,0.0,0.0,0.0,0.0,-1.1619,-1.1626,-1.1633,-1.1633,-1.1633,-1.1633,-1.1633,-1.1619,-1.1619,-1.1619,-1.1619,-1.1619,-1.1619,-1.1619,-1.1619,-1.19,-1.3024,-1.4432,-1.5557,-1.5981,-1.7248,-1.8089,-1.7388,-1.8346,-1.8834,-1.799,-1.9041,-1.8811,-1.5955,-1.554,-1.4782,-1.2811,-1.2501,-1.2501,-1.2501,-1.2501,-1.2501,-1.2501,-1.2589,-1.2705,-1.2861,-1.3648,-1.5488,-1.8286,-1.9384,-2.0943,-2.314,-2.4442,-2.5581,-2.6386,-2.6386,-2.6386,-2.6386,-2.6386,-2.6386,-2.6386,-2.6386,-2.6386,0.0,-2.6386,-2.6386,-2.6386,-2.6386,-2.6386,-2.6386,-2.6386,-2.6386,-2.6386,0.0,0.0,0.0,0.0,0.0,0.0,0.0,0.0,0.0,0.0,0.0,0.0,0.0,0.0,0.0,0.0,0.0,0.0,0.0,0.0,0.0,0.0,0.0,0.0,0.0,0.0,0.0,-0.0,-0.0,-0.0,0.0,0.0,-0.0,-0.0,0.0,0.0,0.0,0.0,0.0,0.0,0.0,0.0,0.0,0.0,0.0,0.0,0.0,0.0,0.0,0.0,0.0,-1.1619,-1.1619,-1.1619,0.0,-1.1619,-1.1619,-1.1619,-1.1619,-1.1619,-1.1619,-1.1619,-1.1619,-1.2043,-1.4014,-1.4858,-1.5839,-1.7669,-1.8508,-1.8938,-1.8938,-2.0262,-2.0958,-1.9759,-2.1049,-2.1001,-1.7786,-1.736,-1.6599,-1.4475,-1.3722,-1.3414,-1.3414,-1.2804,-1.2522,-1.2569,-1.2671,-1.344,-1.4914,-1.4296,-1.5803,-1.9664,-2.0471,-2.1845,-2.4111,-2.492,-2.574,-2.6386,-2.6386,-2.6386,-2.6386,-2.6386,-2.6386,-2.6386,-2.6386,-2.6386,0.0,-2.6386,-2.6386,-2.6386,-2.6386,-2.6386,-2.6386,-2.6386,-2.6386,-2.6386,0.0,0.0,0.0,0.0,0.0,0.0,0.0,0.0,0.0,0.0,0.0,0.0,0.0,0.0,0.0,0.0,0.0,0.0,0.0,0.0,0.0,0.0,0.0,0.0,0.0,0.0,0.0,0.0,0.0,0.0,-0.0,-0.0,-0.0,-0.0,0.0,0.0,0.0,0.0,0.0,0.0,0.0,0.0,0.0,0.0,0.0,0.0,0.0,0.0,0.0,0.0,0.0,0.0,0.0,0.0,0.0,0.0,-1.1619,-1.1619,-1.1619,-1.1619,-1.1619,-1.1619,-1.1619,-1.2043,-1.4014,-1.5839,-1.7669,-1.9634,-2.1596,-2.2859,-2.2859,-2.3113,-2.342,-2.3714,-2.4008,-2.3559,-2.1715,-2.1601,-2.0841,-1.8723,-1.6751,-1.554,-1.554,-1.3722,-1.2562,-1.2718,-1.2725,0.0,-1.9384,-1.7494,-1.7432,-1.9897,-2.2006,-2.4111,-2.6386,-2.4271,-2.4271,-2.6386,-2.6386,-2.6386,-2.6386,-2.6386,-2.6386,-2.6386,-2.6386,-2.6386,0.0,-2.6386,-2.6386,-2.6386,-2.6386,-2.6386,-2.6386,-2.6386,-2.6386,-2.6386,0.0,0.0,0.0,0.0,0.0,0.0,0.0,0.0,0.0,0.0,0.0,0.0,0.0,0.0,0.0,0.0,0.0,0.0,0.0,0.0,0.0,0.0,0.0,0.0,0.0,0.0,0.0,0.0,0.0,0.0,0.0,0.0,-0.0,-0.0,-0.0,-0.0,0.0,0.0,0.0,0.0,0.0,0.0,0.0,0.0,0.0,0.0,0.0,0.0,0.0,0.0,0.0,0.0,0.0,0.0,0.0,0.0,0.0,-1.1619,-1.1619,-1.1619,-1.1619,-1.1619,-1.2602,-1.4014,-1.5839,-1.7809,-1.9773,-2.1596,-2.2448,-2.2859,-2.2859,-2.3287,-2.3661,-2.3754,-2.4182,-2.378,-2.1888,-2.0391,-1.8723,-1.6751,-1.4629,-1.3414,0.0,0.0,-1.2678,-1.2725,-1.4336,-1.5946,-1.7333,-1.9715,-2.1286,-2.2006,-2.282,-2.346,-2.4111,-2.4933,-2.574,-2.6386,-2.6386,-2.6386,-2.6386,-2.6386,-2.6386,-2.6386,-2.6386,-2.6386,-2.6386,-2.6386,-2.6386,-2.6386,-2.6386,-2.6386,-2.6386,-2.6386,-2.6386,-2.6386,0.0,0.0,0.0,0.0,0.0,0.0,0.0,0.0,0.0,0.0,0.0,0.0,0.0,0.0,0.0,0.0,0.0,0.0,0.0,0.0,0.0,0.0,0.0,0.0,0.0,0.0,0.0,0.0,0.0,0.0,0.0,0.0,0.0,0.0,-0.0,0.0,0.0,0.0,0.0,0.0,0.0,0.0,-1.1653,0.0,0.0,0.0,0.0,0.0,0.0,0.0,0.0,0.0,0.0,0.0,0.0,0.0,0.0,-1.1619,-1.1619,-1.2187,-1.2602,-1.2602,-1.4014,-1.5981,-1.7809,-1.9217,-2.0617,-2.2572,-2.2859,-2.2899,-2.302,-2.3434,-2.3808,-2.3915,-2.4329,-2.3883,-2.19,-2.1141,-1.9779,-1.7056,-1.554,0.0,0.0,-1.3411,-1.3998,-1.4057,-1.6208,-1.8012,-1.8892,-2.1596,-2.346,-2.4271,-2.4271,-2.4271,-2.4271,-2.574,-2.6386,-2.6386,-2.6386,-2.6386,-2.6386,-2.6386,-2.6386,-2.6386,-2.6386,-2.6386,0.0,-2.6386,-2.6386,-2.6386,-2.6386,-2.6386,-2.6386,-2.6386,-2.6386,-2.6386,0.0,0.0,0.0,0.0,0.0,0.0,0.0,0.0,0.0,0.0,0.0,0.0,0.0,0.0,0.0,0.0,0.0,0.0,0.0,0.0,0.0,0.0,0.0,0.0,0.0,0.0,0.0,0.0,-0.0,-0.0,-0.0,0.0,0.0,0.0,0.0,0.0,0.0,0.0,0.0,0.0,0.0,0.0,0.0,0.0,0.0,0.0,0.0,0.0,0.0,0.0,0.0,0.0,0.0,0.0,0.0,0.0,0.0,0.0,0.0,-1.3024,-1.4432,-1.4574,-1.5981,-1.7809,-1.9634,-2.0201,0.0,-2.2585,-2.2859,-2.2953,-2.3273,-2.3567,-2.3861,-2.4155,-2.4449,-2.387,-2.2049,-2.3264,-2.2967,-1.9025,-1.8572,0.0,-1.3281,-1.4959,-1.6225,-1.6423,-1.8678,-2.0804,-2.2968,-2.33,-2.4271,-2.6386,-2.6386,-2.6386,-2.6386,-2.6386,-2.6386,-2.6386,-2.6386,-2.6386,-2.6386,-2.6386,-2.6386,0.0,-2.6386,-2.6386,0.0,-2.6386,-2.6386,-2.6386,-2.6386,-2.6386,-2.6386,-2.6386,-2.6386,-2.6386,0.0,0.0,0.0,0.0,0.0,0.0,0.0,0.0,0.0,0.0,0.0,0.0,0.0,0.0,0.0,0.0,0.0,0.0,0.0,0.0,0.0,0.0,0.0,0.0,0.0,0.0,0.0,-0.0,-0.0,-0.0,-0.0,-0.0,0.0,0.0,0.0,0.0,0.0,0.0,0.0,0.0,0.0,0.0,0.0,0.0,0.0,0.0,-1.1619,-1.1619,0.0,0.0,0.0,0.0,0.0,0.0,0.0,0.0,-1.2602,0.0,0.0,0.0,-1.4707,-1.6122,-1.7949,-1.9495,0.0,-2.1183,-2.2435,-2.2859,-2.2859,-2.2953,-2.3273,-2.3567,-2.3861,-2.4155,-2.4449,-2.4475,-2.4031,-2.2967,0.0,-1.8874,-1.8572,-1.8329,-1.7577,-1.8096,-1.8622,-1.8837,-2.0974,-2.259,-2.314,-2.4761,-2.5898,-2.6386,-2.6386,-2.6386,-2.6386,-2.6386,-2.6386,-2.6386,-2.6386,-2.6386,-2.6386,-2.6386,-2.6386,-2.6386,-2.6386,0.0,-2.6386,-2.6386,-2.6386,-2.6386,-2.6386,-2.6386,-2.6386,-2.6386,-2.6386,-2.6386,0.0,0.0,0.0,0.0,0.0,0.0,0.0,0.0,0.0,0.0,0.0,0.0,0.0,0.0,0.0,0.0,0.0,0.0,0.0,0.0,0.0,0.0,0.0,0.0,0.0,0.0,0.0,0.0,0.0,-0.0,0.0,0.0,0.0,0.0,0.0,0.0,0.0,0.0,0.0,0.0,-1.164,0.0,0.0,0.0,0.0,0.0,-1.1619,-1.1619,0.0,-1.1619,-1.1619,-1.1619,0.0,0.0,0.0,0.0,-1.3587,0.0,-1.6545,-1.6957,-1.7248,-1.8229,-1.9912,-2.1321,-2.1321,0.0,-2.2859,-2.2859,-2.2859,-2.3006,-2.3447,-2.2924,-2.287,-2.4183,-2.378,-2.3574,-2.4488,-2.2806,-2.1141,-2.008,-1.993,-1.9725,0.0,-2.004,-2.09,-2.114,-2.3317,-2.4602,-2.4602,-2.574,-2.6386,-2.6386,-2.6386,-2.6386,-2.6386,-2.6386,-2.6386,-2.6386,-2.6386,-2.6386,-2.6386,-2.6386,-2.6386,-2.6386,-2.6386,0.0,-2.6386,-2.6386,-2.6386,-2.6386,-2.6386,-2.6386,-2.6386,-2.6386,-2.6386,-2.6386,0.0,0.0,0.0,0.0,0.0,0.0,0.0,0.0,0.0,0.0,0.0,0.0,0.0,0.0,0.0,0.0,0.0,0.0,0.0,0.0,0.0,0.0,0.0,0.0,0.0,0.0,0.0,0.0,0.0,0.0,0.0,0.0,0.0,0.0,0.0,0.0,0.0,0.0,0.0,0.0,-1.1626,0.0,0.0,0.0,0.0,0.0,0.0,0.0,0.0,-1.1619,-1.1619,-1.1619,-1.1619,0.0,0.0,0.0,0.0,0.0,-1.8369,-1.9495,-1.9773,-2.0051,-2.1032,-2.216,-2.2435,-2.2435,-2.2585,-2.2859,-2.2899,-2.31,-2.3222,-2.2181,-2.1934,-2.3793,-2.2967,0.0,-2.4327,-2.3116,-2.2049,-2.2049,-2.2049,0.0,-2.0156,-2.1762,-2.3116,-2.3418,-2.5268,-2.6386,-2.6386,-2.6386,-2.6386,-2.6386,-2.6386,-2.6386,-2.6386,-2.6386,-2.6386,-2.6386,-2.6386,-2.6386,-2.6386,-2.6386,-2.6386,-2.6386,0.0,0.0,-2.6386,-2.6386,-2.6386,-2.6386,-2.6386,-2.6386,-2.6386,-2.6386,-2.6386,-2.6386,0.0,0.0,0.0,0.0,0.0,0.0,0.0,0.0,0.0,0.0,0.0,0.0,0.0,0.0,0.0,0.0,0.0,0.0,0.0,0.0,0.0,0.0,0.0,0.0,0.0,0.0,0.0,0.0,0.0,0.0,-0.0,-0.0,-0.0,0.0,0.0,0.0,0.0,0.0,0.0,0.0,-1.1619,0.0,0.0,0.0,0.0,0.0,0.0,0.0,0.0,-1.1619,-1.1619,-1.1619,-1.1619,0.0,0.0,0.0,0.0,0.0,-1.5132,-1.6404,-1.8089,-1.9634,-1.9077,-1.8519,-2.019,-2.0479,-2.1032,-2.2585,-2.3073,-2.278,-2.1366,-2.2488,-2.3349,-2.2311,-2.3264,-2.4179,0.0,0.0,-2.4179,-2.4179,0.0,-2.424,-2.4456,-2.4853,-2.5255,-2.5793,-2.6201,-2.6386,-2.6386,-2.6386,-2.6386,-2.6386,-2.6386,-2.6386,-2.6386,-2.6386,-2.6386,-2.6386,-2.6386,-2.6386,-2.6386,-2.6386,-2.6386,-2.6386,0.0,-2.6386,-2.6386,-2.6386,-2.6386,-2.6386,-2.6386,-2.6386,-2.6386,-2.6386,-2.6386,-2.6386,0.0,0.0,0.0,0.0,0.0,0.0,0.0,0.0,0.0,0.0,0.0,0.0,0.0,0.0,0.0,0.0,0.0,0.0,0.0,0.0,0.0,0.0,0.0,0.0,0.0,0.0,0.0,0.0,0.0,-0.0,-0.0,-0.0,-0.0,-0.0292,0.0,0.0,0.0,0.0,0.0,0.0,0.0,0.0,0.0,0.0,0.0,0.0,0.0,0.0,0.0,0.0,-1.1619,-1.1619,-1.1619,0.0,0.0,0.0,0.0,0.0,-1.6967,-1.6545,-1.6122,-1.8089,-1.7809,-1.7388,-1.8369,-1.8508,-1.9077,-2.1032,-2.1545,-2.1537,-2.0779,-2.1776,-2.235,-2.1704,0.0,-2.4636,-2.4636,-2.4636,-2.4636,0.0,0.0,-2.505,-2.5478,-2.5651,-2.5932,-2.636,-2.6386,-2.6386,-2.6386,-2.6386,-2.6386,-2.6386,-2.6386,-2.6386,-2.6386,-2.6386,-2.6386,-2.6386,-2.6386,-2.6386,-2.6386,-2.6386,-2.6386,-2.6386,0.0,-2.6386,-2.6386,-2.6386,-2.6386,-2.6386,-2.6386,-2.6386,-2.6386,-2.6386,-2.6386,-2.6386,0.0,0.0,0.0,0.0,0.0,0.0,0.0,0.0,0.0,0.0,0.0,0.0,0.0,0.0,0.0,0.0,0.0,0.0,0.0,0.0,0.0,0.0,0.0,0.0,0.0,0.0,0.0,-0.0,-0.0,-0.0,-0.0,-0.0,-0.0,0.0,0.0,0.0,0.0,0.0,0.0,0.0,0.0,0.0,0.0,0.0,0.0,0.0,0.0,0.0,0.0,0.0,0.0,0.0,0.0,0.0,0.0,0.0,-1.4006,-1.4991,-1.7949,-1.6967,-1.5416,-1.6826,0.0,-1.599,-1.6404,-1.6583,-1.7188,-1.9156,0.0,-1.9957,-2.0005,-2.0692,0.0,-2.2174,-2.3574,-2.4636,-2.4636,-2.4636,-2.4636,-2.4636,-2.4903,-2.5197,-2.5478,-2.5785,-2.6079,-2.6373,-2.6386,-2.6386,-2.6386,-2.6386,-2.6386,-2.6386,-2.6386,-2.6386,-2.6386,-2.6386,-2.6386,-2.6386,-2.6386,-2.6386,-2.6386,-2.6386,-2.6386,-2.6386,-2.6386,-2.6386,-2.6386,-2.6386,-2.6386,-2.6386,-2.6386,-2.6386,-2.6386,-2.6386,-2.6386,-2.6386,0.0,0.0,0.0,0.0,0.0,0.0,0.0,0.0,0.0,0.0,0.0,0.0,0.0,0.0,0.0,0.0,0.0,0.0,0.0,0.0,0.0,0.0,0.0,0.0,0.0,-0.0,-0.0,-0.0,-0.0,-0.0,-0.0,-0.0,-0.0,-0.0,0.0,0.0,0.0,0.0,0.0,0.0,0.0,0.0,0.0,0.0,0.0,0.0,0.0,0.0,0.0,0.0,0.0,0.0,0.0,0.0,0.0,-1.1756,-1.3024,-1.4432,-1.4707,-1.5839,-1.6967,-1.7107,-1.4583,-1.2466,-1.4148,-1.4711,0.0,-1.7265,0.0,0.0,0.0,-2.0043,-2.2186,-2.4031,-2.4488,-2.4636,-2.4636,0.0,-2.4636,-2.4636,-2.4903,-2.5197,-2.5478,-2.5785,-2.6079,-2.6373,-2.6386,-2.6386,-2.6386,-2.6386,-2.6386,-2.6386,-2.6386,-2.6386,-2.6386,-2.6386,-2.6386,-2.6386,-2.6386,-2.6386,-2.6386,-2.6386,-2.6386,-2.6386,-2.6386,-2.6386,-2.6386,-2.6386,-2.6386,-2.6386,-2.6386,-2.6386,-2.6386,-2.6386,-2.6386,-2.6386,0.0,0.0,0.0,0.0,0.0,0.0,0.0,0.0,0.0,0.0,0.0,0.0,0.0,0.0,0.0,0.0,0.0,0.0,0.0,0.0,0.0,0.0,0.0,-0.0,-0.0,-0.0,-0.0,-0.0,-0.0,-0.0,-0.0,-0.0,0.0,0.0,0.0,0.0,0.0,0.0,0.0,0.0,0.0,0.0,0.0,0.0,0.0,0.0,0.0,0.0,0.0,0.0,-1.1619,0.0,0.0,0.0,0.0,-1.3309,-1.3872,-1.4716,-1.5839,-1.5,-1.4298,-1.6554,-1.5283,0.0,0.0,-1.4576,-1.4864,-1.5578,-1.7048,0.0,0.0,0.0,-2.2198,-2.4327,-2.4636,-2.4636,-2.4636,-2.4636,-2.4636,-2.4636,-2.5064,-2.5398,-2.5504,-2.5945,-2.6266,-2.6386,-2.6386,-2.6386,-2.6386,-2.6386,-2.6386,-2.6386,-2.6386,-2.6386,-2.6386,-2.6386,-2.6386,-2.6386,-2.6386,-2.6386,-2.6386,-2.6386,-2.6386,-2.6386,-2.6386,-2.6386,-2.6386,-2.6386,-2.6386,-2.6386,-2.6386,-2.6386,-2.6386,-2.6386,-2.6386,-2.6386,0.0,0.0,0.0,0.0,0.0,0.0,0.0,0.0,0.0,0.0,0.0,0.0,0.0,0.0,0.0,0.0,0.0,0.0,0.0,0.0,0.0,0.0,0.0,-0.0,-0.0,-0.0,-0.0,-0.0,-0.0,-0.0,-0.0,0.0,0.0,0.0,0.0,0.0,0.0,0.0,0.0,-1.1619,0.0,0.0,0.0,0.0,0.0,0.0,0.0,0.0,0.0,0.0,-1.2043,0.0,0.0,0.0,0.0,0.0,-1.5274,-1.5557,-1.6826,-1.5283,-1.4022,-1.6545,0.0,0.0,-1.4802,-1.5093,-1.554,-1.5018,-1.7192,-2.0032,-2.2323,-2.2657,0.0,0.0,-2.4636,-2.4636,-2.4636,-2.4636,-2.4636,-2.4636,-2.5157,-2.5518,-2.5518,-2.6052,-2.6386,-2.6386,-2.6386,-2.6386,-2.6386,-2.6386,-2.6386,-2.6386,-2.6386,-2.6386,-2.6386,-2.6386,-2.6386,-2.6386,-2.6386,-2.6386,-2.6386,-2.6386,-2.6386,-2.6386,-2.6386,-2.6386,-2.6386,-2.6386,-2.6386,-2.6386,-2.6386,-2.6386,-2.6386,-2.6386,-2.6386,-2.6386,0.0,0.0,0.0,0.0,0.0,0.0,0.0,0.0,0.0,0.0,0.0,0.0,0.0,0.0,0.0,0.0,0.0,0.0,0.0,0.0,0.0,0.0,0.0,-0.0,-0.0,-0.0,-0.0,-0.0,-0.0,-0.0,-0.0,-0.0,0.0,0.0,0.0,0.0,0.0,0.0,-1.164,-1.1619,-1.1619,-1.1619,0.0,0.0,0.0,0.0,0.0,0.0,0.0,0.0,0.0,0.0,0.0,0.0,0.0,-1.7117,-1.7248,-1.7248,-1.7117,-1.7107,-1.7117,0.0,0.0,0.0,-1.5578,-1.6449,-1.738,-1.5667,-1.871,-2.0991,-1.9025,-2.19,0.0,-2.4636,-2.4636,-2.4636,-2.4636,-2.4636,-2.4636,-2.4636,-2.5157,-2.5518,-2.5518,-2.6052,-2.6386,-2.6386,-2.6386,-2.6386,-2.6386,-2.6386,-2.6386,-2.6386,-2.6386,-2.6386,-2.6386,-2.6386,-2.6386,-2.6386,-2.6386,-2.6386,-2.6386,-2.6386,-2.6386,-2.6386,-2.6386,-2.6386,-2.6386,-2.6386,-2.6386,-2.6386,-2.6386,-2.6386,-2.6386,-2.6386,-2.6386,-2.6386,0.0,0.0,0.0,0.0,0.0,0.0,0.0,0.0,0.0,0.0,0.0,0.0,0.0,0.0,0.0,0.0,0.0,0.0,0.0,0.0,0.0,0.0,0.0,0.0,0.0,0.0,-0.0,-0.0,-0.0,-0.0,0.0,0.0,0.0,-0.0296,0.0,0.0,0.0,0.0,-1.164,-1.1619,-1.1619,-1.1619,0.0,0.0,0.0,0.0,0.0,0.0,0.0,0.0,0.0,0.0,0.0,0.0,-1.6967,-1.5557,-1.6122,-1.6967,-1.5557,-1.5274,0.0,-1.7166,0.0,0.0,0.0,-1.8686,-1.7902,-1.767,-1.9725,-2.19,-2.2657,-2.387,0.0,-2.4636,-2.4636,-2.4636,-2.4636,-2.4636,-2.4716,-2.493,-2.5277,-2.5598,-2.5798,-2.6172,-2.6386,-2.6386,-2.6386,-2.6386,-2.6386,-2.6386,-2.6386,-2.6386,-2.6386,-2.6386,-2.6386,-2.6386,-2.6386,-2.6386,-2.6386,-2.6386,-2.6386,-2.6386,-2.6386,-2.6386,-2.6386,-2.6386,-2.6386,-2.6386,-2.6386,-2.6386,-2.6386,-2.6386,-2.6386,-2.6386,-2.6386,-2.6386,0.0,0.0,0.0,0.0,0.0,0.0,0.0,0.0,0.0,0.0,0.0,0.0,0.0,0.0,0.0,0.0,0.0,0.0,0.0,0.0,0.0,0.0,0.0,0.0,0.0,-0.0,-0.0,0.0,0.0,0.0,0.0,0.0,0.0,-0.5098,0.0,-1.0304,0.0,-1.1762,-1.1714,-1.1701,-1.164,-1.1619,0.0,0.0,0.0,0.0,0.0,0.0,0.0,0.0,0.0,0.0,0.0,0.0,0.0,-1.8078,-1.8089,-1.811,-1.7066,-1.6245,0.0,-1.7518,-1.8496,-1.9391,-2.0978,0.0,0.0,0.0,-2.1452,-2.2967,-2.3264,-2.4031,0.0,-2.4636,-2.4636,-2.4636,-2.4636,-2.4636,-2.4743,-2.5037,-2.5331,-2.5625,-2.5932,-2.6226,-2.6386,-2.6386,-2.6386,-2.6386,-2.6386,-2.6386,-2.6386,-2.6386,-2.6386,-2.6386,-2.6386,-2.6386,-2.6386,-2.6386,-2.6386,-2.6386,-2.6386,-2.6386,-2.6386,-2.6386,-2.6386,-2.6386,-2.6386,-2.6386,-2.6386,-2.6386,-2.6386,-2.6386,-2.6386,-2.6386,-2.6386,-2.6386,0.0,0.0,0.0,0.0,0.0,0.0,0.0,0.0,0.0,0.0,0.0,0.0,0.0,0.0,0.0,0.0,0.0,0.0,0.0,0.0,0.0,0.0,0.0,0.0,0.0,0.0,0.0,0.0,0.0,0.0,0.0,0.0,-0.4404,-1.2374,0.0,-0.891,0.0,-1.1925,-1.185,-1.1837,-1.1694,-1.164,-1.164,-1.1626,0.0,0.0,0.0,0.0,0.0,0.0,0.0,0.0,0.0,0.0,-2.2585,-2.2435,-2.1333,-2.0145,-2.0227,0.0,0.0,-1.8321,-2.0016,0.0,-2.1543,-2.1751,-2.1751,-2.1601,0.0,-2.4031,-2.2211,-2.3413,-2.4636,-2.4636,-2.4636,-2.4636,-2.4636,-2.4636,-2.4756,-2.5077,-2.5344,-2.5638,-2.5959,-2.6239,-2.6386,-2.6386,-2.6386,-2.6386,-2.6386,-2.6386,-2.6386,-2.6386,-2.6386,-2.6386,-2.6386,-2.6386,-2.6386,-2.6386,-2.6386,-2.6386,-2.6386,-2.6386,-2.6386,-2.6386,-2.6386,-2.6386,-2.6386,-2.6386,-2.6386,-2.6386,-2.6386,-2.6386,-2.6386,-2.6386,-2.6386,-2.6386,0.0,0.0,0.0,0.0,0.0,0.0,0.0,0.0,0.0,0.0,0.0,0.0,0.0,0.0,0.0,0.0,0.0,0.0,0.0,0.0,0.0,0.0,0.0,0.0,0.0,0.0,0.0,0.0,0.0,0.0,0.0,0.0,0.0,-1.2532,0.0,-1.1618,0.0,0.0,0.0,-1.1999,-1.185,-1.1782,-1.1775,-1.166,-1.1619,0.0,0.0,0.0,0.0,0.0,0.0,0.0,-1.6685,-1.8787,-2.034,-1.8927,-1.9352,-2.0086,-1.8713,-1.9294,0.0,0.0,-2.2374,-2.3497,-2.1888,-2.2806,-2.3574,-2.19,-2.3264,-2.4488,-2.4031,-2.4327,-2.4636,-2.4636,-2.4636,-2.4636,-2.4636,-2.4636,-2.4823,-2.5358,-2.5478,-2.5718,-2.6239,-2.636,-2.6386,-2.6386,-2.6386,-2.6386,-2.6386,-2.6386,-2.6386,-2.6386,-2.6386,-2.6386,-2.6386,-2.6386,-2.6386,0.0,-2.6386,-2.6386,-2.6386,-2.6386,-2.6386,-2.6386,-2.6386,-2.6386,-2.6386,-2.6386,-2.6386,-2.6386,-2.6386,-2.6386,-2.6386,-2.6386,-2.6386,-2.6386,0.0,0.0,0.0,0.0,0.0,0.0,0.0,0.0,0.0,0.0,0.0,0.0,0.0,0.0,0.0,0.0,0.0,0.0,0.0,0.0,0.0,0.0,0.0,0.0,0.0,0.0,0.0,0.0,0.0,0.0,0.0,0.0,0.0,-0.9656,0.0,-1.2413,0.0,0.0,0.0,-1.2155,-1.2006,-1.1938,-1.1925,-1.1775,-1.1721,-1.1708,-1.1647,0.0,0.0,0.0,0.0,0.0,0.0,0.0,-2.0427,-2.0427,-2.1242,-2.1957,-2.1078,0.0,0.0,-2.2827,0.0,-2.4327,-2.3264,-2.387,-2.4327,-2.3264,-2.387,-2.4636,-2.4636,-2.4636,-2.4636,-2.4636,-2.4636,-2.4636,-2.4636,-2.4636,-2.485,-2.5438,-2.5518,-2.5745,-2.6333,-2.6386,-2.6386,-2.6386,-2.6386,-2.6386,-2.6386,-2.6386,-2.6386,-2.6386,-2.6386,-2.6386,-2.6386,-2.6386,-2.6386,-2.6386,-2.6386,-2.6386,-2.6386,-2.6386,-2.6386,-2.6386,-2.6386,-2.6386,-2.6386,-2.6386,-2.6386,-2.6386,-2.6386,-2.6386,-2.6386,-2.6386,-2.6386,-2.6386,0.0,0.0,0.0,0.0,0.0,0.0,0.0,0.0,0.0,0.0,0.0,0.0,0.0,0.0,0.0,0.0,0.0,0.0,0.0,0.0,0.0,0.0,0.0,0.0,0.0,0.0,0.0,0.0,0.0,0.0,0.0,0.0,0.0,-0.6414,0.0,0.0,0.0,0.0,0.0,-1.2311,-1.2162,-1.2101,-1.2088,-1.1932,-1.187,-1.1857,-1.1735,-1.1694,-1.1714,-1.2262,0.0,0.0,0.0,0.0,-2.1558,-2.3327,-2.3808,-2.3901,-2.4142,0.0,-2.4342,-2.4569,-2.4636,0.0,-2.4636,-2.4636,-2.4636,-2.4636,-2.4636,-2.4636,-2.4636,-2.4636,-2.4636,-2.4636,-2.4636,-2.4636,-2.4636,-2.4636,-2.485,-2.5438,-2.5518,-2.5745,-2.6333,-2.6386,-2.6386,-2.6386,-2.6386,-2.6386,-2.6386,-2.6386,-2.6386,-2.6386,-2.6386,-2.6386,-2.6386,-2.6386,-2.6386,-2.6386,-2.6386,-2.6386,-2.6386,-2.6386,-2.6386,-2.6386,-2.6386,-2.6386,-2.6386,-2.6386,-2.6386,-2.6386,-2.6386,-2.6386,-2.6386,-2.6386,-2.6386,-2.6386,0.0,0.0,0.0,0.0,0.0,0.0,0.0,0.0,0.0,0.0,0.0,0.0,0.0,0.0,0.0,0.0,0.0,0.0,0.0,0.0,0.0,0.0,0.0,0.0,0.0,0.0,0.0,0.0,0.0,0.0,0.0,0.0,0.0,-0.6414,0.0,0.0,0.0,0.0,0.0,-1.2461,-1.2318,-1.2257,-1.2244,-1.2088,-1.2033,-1.2026,-1.2006,-1.2006,-1.2296,-1.3916,-1.582,0.0,0.0,0.0,-2.3469,-2.3768,-2.3941,-2.4155,-2.4195,0.0,-2.4596,0.0,-2.4636,-2.4636,0.0,0.0,-2.4636,0.0,-2.4636,-2.4636,-2.4636,-2.4636,-2.4636,-2.4636,-2.4636,-2.4636,-2.4636,-2.4636,-2.485,-2.5438,-2.5518,-2.5745,-2.6333,-2.6386,-2.6386,-2.6386,-2.6386,-2.6386,-2.6386,-2.6386,-2.6386,-2.6386,-2.6386,-2.6386,-2.6386,-2.6386,-2.6386,-2.6386,-2.6386,-2.6386,-2.6386,-2.6386,-2.6386,-2.6386,-2.6386,-2.6386,-2.6386,-2.6386,-2.6386,-2.6386,-2.6386,-2.6386,-2.6386,-2.6386,-2.6386,-2.6386,0.0,0.0,0.0,0.0,0.0,0.0,0.0,0.0,0.0,0.0,0.0,0.0,0.0,0.0,0.0,0.0,0.0,0.0,0.0,0.0,0.0,0.0,0.0,0.0,0.0,0.0,0.0,0.0,0.0,0.0,0.0,-0.0,-0.2194,0.0,0.0,0.0,0.0,0.0,-1.2501,-1.2494,-1.2433,-1.2406,-1.2393,-1.2244,-1.2189,-1.2176,-1.2094,-1.206,-1.2366,-1.4513,-1.5729,-1.7073,-2.0173,0.0,0.0,0.0,-2.4342,-2.4449,-2.4449,-2.4543,-2.4636,0.0,-2.4636,-2.4636,-2.4636,-2.4636,-2.4636,-2.4636,-2.4636,-2.4636,-2.4636,-2.4636,-2.4636,-2.4636,-2.4636,-2.4636,-2.4636,-2.4636,-2.485,-2.5438,-2.5518,-2.5745,-2.6333,-2.6386,-2.6386,-2.6386,-2.6386,-2.6386,-2.6386,-2.6386,-2.6386,-2.6386,-2.6386,-2.6386,-2.6386,-2.6386,-2.6386,-2.6386,-2.6386,-2.6386,-2.6386,-2.5092,-2.5251,-2.6386,-2.6386,-2.6386,-2.6386,-2.6386,-2.6386,-2.6386,-2.6386,-2.6386,-2.6386,-2.6386,-2.6386,-2.6386,0.0,0.0,0.0,0.0,0.0,0.0,0.0,0.0,0.0,0.0,0.0,0.0,0.0,0.0,0.0,0.0,0.0,0.0,0.0,0.0,0.0,0.0,0.0,0.0,0.0,0.0,0.0,0.0,0.0,0.0,-0.0,-0.0,-0.2194,0.0,-1.0687,-1.2569,0.0,0.0,0.0,-1.2501,-1.2501,-1.2501,-1.2488,-1.2386,-1.2345,-1.2332,-1.2216,-1.2176,-1.2491,-1.4088,-1.5328,-1.6701,-1.9875,-2.1601,0.0,0.0,0.0,-2.4636,-2.4636,0.0,-2.4636,-2.4636,-2.4636,-2.4636,0.0,0.0,-2.4636,0.0,-2.4636,-2.4636,-2.4636,-2.4636,-2.4636,-2.4636,-2.4636,-2.4636,-2.4636,-2.4636,-2.4823,-2.5344,-2.5464,-2.5718,-2.6226,-2.6346,-2.6386,-2.6386,-2.6386,-2.6386,-2.6386,-2.6386,-2.607,-2.5568,-2.607,-2.5898,-2.4761,-2.4761,-2.5092,-2.5581,-2.5581,-2.5898,-2.6386,-2.4111,-2.3952,-2.5581,-2.5581,-2.5898,-2.6386,-2.6386,-2.6386,-2.6386,-2.6386,-2.6386,-2.6386,-2.6386,-2.6386,-2.6386,0.0,0.0,0.0,0.0,0.0,0.0,0.0,0.0,0.0,0.0,0.0,0.0,0.0,0.0,0.0,0.0,0.0,0.0,0.0,0.0,0.0,0.0,0.0,0.0,0.0,0.0,0.0,0.0,0.0,0.0,-0.0,-0.0,-0.2194,-0.6414,-1.0687,-1.2569,-1.2501,0.0,0.0,-1.2501,-1.2501,-1.2501,-1.2501,-1.2494,-1.2488,-1.2488,-1.2481,-1.2481,-1.2481,-1.2642,-1.5225,-1.8401,-1.8713,-2.1291,-2.4488,0.0,0.0,0.0,-2.4636,-2.4636,0.0,-2.4636,-2.4636,-2.4636,0.0,0.0,-2.4636,-2.4636,-2.4636,-2.4636,-2.4636,-2.4636,-2.4636,-2.4636,-2.4636,-2.4636,-2.4636,-2.4636,-2.4756,-2.5064,-2.5344,-2.5638,-2.5945,-2.6226,-2.6386,-2.6386,-2.6386,-2.6386,-2.6386,-2.6386,-2.5409,-2.33,-2.5251,-2.4442,-2.0231,-2.0231,-2.12,-2.33,-2.33,-2.443,-2.6386,-2.4111,-2.314,-2.33,-2.33,-2.4442,-2.6386,-2.6386,-2.6386,-2.6386,-2.6386,-2.6386,-2.6386,-2.6386,-2.6386,-2.6386,0.0,0.0,0.0,0.0,0.0,0.0,0.0,0.0,0.0,0.0,0.0,0.0,0.0,1.2501,1.2501,1.2501,0.0,0.0,0.0,0.0,0.0,0.0,0.0,0.0,0.0,0.0,0.0,0.0,0.0,-0.0,-0.0,-0.0,-0.2194,-0.6414,-1.0687,-1.2569,-1.2501,-1.2501,0.0,-1.2501,-1.2501,-1.2501,-1.2501,-1.2501,-1.2501,-1.2501,-1.2501,-1.2501,-1.2656,-1.4022,-1.5387,-1.7056,-1.9629,-2.1452,-2.2967,-2.4179,-2.4636,-2.4636,-2.4636,-2.4636,0.0,-2.4636,-2.4636,-2.4636,-2.4636,-2.4636,-2.4636,-2.4636,-2.4636,-2.4636,-2.4636,-2.4636,-2.4636,-2.4636,-2.4636,-2.4636,-2.4636,-2.4636,-2.4743,-2.5037,-2.5331,-2.5625,-2.5932,-2.6226,-2.6386,-2.6386,-2.6386,-2.6386,-2.6386,-2.6386,-2.5409,-2.314,-2.3952,-2.282,-1.9907,-1.9907,-2.0231,-2.1039,-2.2499,-2.346,-2.4271,-2.2006,-2.1845,-2.298,-2.1684,-2.2338,-2.4442,-2.574,-2.6386,-2.6386,-2.6386,-2.6386,-2.6386,-2.6386,-2.6386,-2.6386,0.0,0.0,0.0,0.0,0.0,0.0,0.0,0.0,0.0,0.0,0.0,0.0,0.0,0.0,1.2501,1.2501,1.2501,1.2528,1.244,0.0,0.0,0.0,0.0,0.0,0.0,0.0,0.0,0.0,0.0,0.0,0.0,-0.0,-0.2194,-0.6414,-1.0687,-1.2569,0.0,0.0,0.0,-1.2501,-1.2501,-1.2501,-1.2501,-1.2501,-1.2501,-1.2501,-1.2501,-1.2501,-1.2656,-1.4022,-1.4935,-1.6142,-1.9478,-2.1452,-2.2806,-2.4179,-2.4636,-2.4636,-2.4636,-2.4636,-2.4636,0.0,-2.4636,-2.4636,-2.4636,-2.4636,-2.4636,-2.4636,-2.4636,-2.4636,-2.4636,-2.4636,-2.4636,-2.4636,-2.4636,-2.4636,-2.4636,-2.4636,-2.4716,-2.4903,-2.5277,-2.5585,-2.5785,-2.6159,-2.6386,-2.6386,-2.6386,0.0,-2.6386,-2.574,-2.4271,-2.2166,-2.0544,-1.9572,-1.877,-1.8118,-1.8118,-1.877,-2.1039,-2.2327,-2.298,-2.0878,-2.0716,-2.1845,-1.9735,-2.0382,-2.33,-2.5409,-2.6386,-2.6386,-2.6386,-2.6386,-2.6386,-2.6386,-2.6386,-2.6386,0.0,0.0,0.0,0.0,0.0,0.0,0.0,0.0,0.0,0.0,0.0,0.0,0.0,0.0,0.0,1.2501,1.2501,1.2535,1.244,0.8778,0.0,0.0,0.0,0.0,0.0,0.0,0.0,0.0,0.0,0.0,0.0,0.0,-0.2508,-0.6414,-1.0682,-1.2562,-1.2501,0.0,-1.2501,-1.2501,-1.2501,-1.2501,-1.2501,-1.2501,-1.2501,-1.2501,-1.2501,-1.2501,-1.2501,-1.2501,-1.3868,-1.5845,-1.7967,-2.1291,-2.4636,-2.4636,-2.4636,-2.4636,0.0,0.0,0.0,-2.4636,-2.4636,-2.4636,-2.4636,0.0,-2.4636,-2.4636,-2.4636,-2.4636,-2.4636,-2.4636,-2.4636,-2.4636,-2.4636,-2.4636,-2.4636,-2.4636,-2.4636,-2.4636,-2.5144,-2.5504,-2.5518,-2.6039,-2.6373,-2.6386,-2.6386,-2.6386,-2.6386,-2.4271,-2.2006,-1.9907,-1.5687,-1.4375,-1.6483,-1.4375,-1.4375,-1.6483,-1.877,-2.1039,-2.282,-2.0878,-1.9907,-1.9745,-1.7629,-1.9085,-2.314,-2.5409,-2.6386,-2.6386,-2.6386,-2.6386,-2.6386,-2.6386,-2.6386,-2.6386,0.0,0.0,0.0,0.0,0.0,0.0,0.0,0.0,0.0,0.0,0.0,0.0,1.2501,1.2501,1.2501,1.2501,1.2522,1.2556,1.2447,1.1498,0.7542,0.0,0.0,0.0,0.0,0.0,0.0,0.0,0.0,0.0,0.0,0.0,0.0,0.0,-1.0664,-1.2542,-1.2501,-1.2501,-1.2501,-1.2501,-1.2501,-1.2501,-1.2501,-1.2501,-1.2501,-1.2501,-1.2501,-1.2501,-1.2501,-1.2501,-1.2804,-1.4022,-1.7512,-2.1291,-2.4636,-2.4636,-2.4636,-2.4636,-2.4636,0.0,0.0,0.0,0.0,0.0,-2.4636,0.0,-2.4636,-2.4636,-2.4636,-2.4636,-2.4636,-2.4636,-2.4636,-2.4636,-2.4636,-2.4636,-2.4636,-2.4636,-2.4636,-2.4636,-2.497,-2.5277,-2.5491,-2.5852,-2.6159,0.0,-2.6386,-2.6386,-2.6386,-2.282,-1.9745,-1.7629,-1.4871,-1.3728,-1.421,-1.3728,-1.3728,-1.4375,-1.8118,-1.942,-1.8435,-1.942,-1.9095,-1.7629,-1.8607,-1.9745,-2.0878,-2.314,-2.492,-2.6386,-2.6386,-2.6386,-2.6386,-2.6386,-2.6386,-2.6386,0.0,0.0,0.0,0.0,0.0,0.0,0.0,0.0,0.0,0.0,0.0,0.0,1.2501,1.2501,1.2501,1.2501,1.2535,1.1772,1.0047,1.1504,0.8812,0.0314,0.0,0.0,0.0,0.0,0.0,0.0,0.0,0.0,0.0,0.0,0.0,0.0,0.0,0.0,-1.2522,-1.2508,-1.2501,-1.2501,-1.2501,-1.2501,-1.2501,-1.2501,-1.2501,-1.2501,-1.2501,-1.2501,-1.2501,-1.2501,-1.3112,-1.433,-1.7512,-2.0841,-2.3574,-2.4341,-2.4636,-2.4636,-2.4636,-2.4636,-2.4636,-2.4636,0.0,0.0,-2.4636,-2.4636,-2.4636,0.0,-2.4636,-2.4636,-2.4636,-2.4636,-2.4636,-2.4636,-2.4636,-2.4636,-2.4636,-2.4636,-2.4636,-2.4636,-2.4903,-2.5144,-2.5317,-2.5705,-2.6026,-2.6199,-2.6319,-2.6056,-2.5092,-2.1845,-1.8933,-1.6647,-1.4541,-1.3403,-1.3403,-1.3403,-1.3887,-1.4698,-1.8281,-1.9258,-1.7955,-1.9258,-1.9258,-1.7955,-1.8435,-1.9572,-2.1362,-2.2659,-2.443,-2.6386,-2.6386,-2.6386,-2.6386,-2.6386,-2.6386,-2.6386,0.0,0.0,0.0,0.0,0.0,0.0,0.0,0.0,0.0,0.0,0.0,1.2556,1.2556,1.2556,1.2556,1.2556,1.2583,1.0699,0.6595,0.9311,0.7736,0.0,0.0,0.0,0.0,0.0,0.0,0.0,0.0,0.0,0.0,0.0,0.0,0.0,0.0,0.0,0.0,-1.2515,-1.2501,-1.2508,-1.2501,-1.2501,-1.2501,-1.2501,-1.2501,-1.2501,-1.2501,-1.2501,-1.2501,-1.2501,-1.3868,-1.5845,-1.7663,-1.9629,-2.1601,-2.3722,-2.4327,-2.4327,-2.4488,-2.4636,-2.4636,-2.4636,-2.4636,0.0,-2.4636,-2.4636,-2.4636,0.0,-2.4636,-2.4636,-2.4636,-2.4636,-2.4636,-2.4636,-2.4636,-2.4636,-2.4636,-2.4636,-2.4636,-2.4636,-2.4863,-2.5037,-2.5077,-2.5558,-2.5892,-2.5959,-2.6226,-2.5409,-2.314,-2.1362,-1.9095,-1.6647,-1.4698,-1.3562,-1.3403,-1.3403,-1.4541,-1.6647,-1.877,-1.9745,-1.9582,-2.0069,-2.0069,-1.942,-1.7946,-1.9572,-2.314,-2.33,-2.4602,-2.6386,-2.6386,-2.6386,-2.6386,-2.6386,-2.6386,-2.6386,0.0,0.0,0.0,0.0,0.0,0.0,0.0,0.0,0.0,0.0,0.0,1.2874,1.2874,1.2874,1.2874,1.2874,1.2595,1.0816,0.6591,0.387,0.0,0.0,0.0,0.0,0.0,0.0,0.0,0.0,0.0,0.0,0.0,0.0,0.0,0.0,0.0,0.0,-1.2549,-1.2515,-1.2515,-1.2542,-1.2515,-1.2501,-1.2501,-1.2501,-1.2501,-1.2501,-1.2501,-1.2501,-1.2501,-1.2501,-1.3868,-1.554,-1.5998,-1.7512,-1.9629,-2.1601,-2.2198,-2.2509,-2.4179,-2.4636,-2.4636,-2.4636,-2.4636,0.0,-2.4636,-2.4636,-2.4636,-2.4636,-2.4636,-2.4636,-2.4636,-2.4636,-2.4636,-2.4636,-2.4636,-2.4636,-2.4636,-2.4636,-2.4636,-2.4636,-2.469,-2.4823,-2.5064,-2.5184,-2.5451,-2.5919,-2.6226,-2.5409,-2.314,-2.2659,-2.0705,-1.6647,-1.6155,-1.5193,-1.3403,-1.3403,-1.4541,-1.6647,-1.877,-1.8933,-1.7302,-2.0867,-2.0544,-1.7465,-2.0544,-2.2327,-2.33,-2.5092,-2.6056,-2.6386,-2.6386,-2.6386,-2.6386,-2.6386,-2.6386,-2.6386,0.0,0.0,0.0,0.0,0.0,0.0,0.0,0.0,0.0,0.0,1.2963,1.2963,1.2963,1.2963,1.2963,1.2963,1.2849,1.0895,0.6637,0.2272,0.0,0.0,0.0,0.0,0.0,0.0,0.0,0.0,0.0,0.0,0.0,0.0,0.0,0.0,0.0,-0.7338,-1.2527,-1.2494,-1.244,-1.2528,-1.2508,-1.2515,-1.2528,-1.2508,-1.2501,-1.2501,-1.2501,-1.2501,-1.2501,-1.2501,-1.3162,-1.4307,-1.5375,-1.7125,-1.9367,-2.1368,-2.2761,-2.3833,-2.4763,-2.5077,-2.5037,-2.489,-2.4863,0.0,0.0,-2.4636,-2.4636,-2.4636,-2.4636,-2.4636,-2.4636,-2.4636,-2.4636,-2.4636,-2.4636,-2.4636,-2.4636,-2.4636,-2.4636,-2.4636,-2.4636,-2.469,-2.4836,-2.4997,-2.5331,-2.5919,-2.6226,-2.5898,-2.4761,-2.3632,-2.1684,-1.8272,-1.7138,-1.5514,-1.3397,-1.4541,-1.6164,-1.8281,-1.942,-1.9258,-1.8272,-2.0554,-2.0382,-1.8435,-2.1684,-2.3792,-2.4761,-2.5898,-2.6386,-2.6386,-2.6386,-2.6386,-2.6386,-2.6386,-2.6386,-2.6386,1.301,1.3024,0.0,0.0,0.0,0.0,0.0,0.0,0.0,0.0,1.3044,1.3044,1.3044,1.3044,1.3044,1.3044,1.3091,1.1132,0.6682,0.245,-0.0,-0.0,-0.0,-0.0,0.0,0.0,0.0,0.0,0.0,0.0,0.0,0.0,0.0,0.0,-0.0,-0.4688,-1.2556,-1.2516,-1.2581,-1.2603,-1.2596,-1.2569,-1.2542,-1.2542,-1.2549,-1.2549,-1.2576,-1.2589,-1.2589,-1.2589,-1.2977,-1.3548,-1.4798,-1.6765,-1.9083,-2.1124,-2.2995,-2.4406,-2.5352,-2.5518,-2.5451,-2.5224,-2.5157,-2.509,0.0,0.0,0.0,-2.4649,-2.4636,-2.4636,-2.4636,-2.4636,-2.4623,-2.4556,-2.4596,-2.4623,-2.4556,-2.4596,-2.4636,-2.4636,-2.4636,-2.4636,-2.4636,-2.4903,-2.5304,-2.5825,-2.6146,-2.6333,-2.6386,-2.4761,-2.282,-2.0554,-1.876,-1.6811,-1.4706,-1.6328,-1.8118,-1.9907,-1.9907,-1.9907,-1.9907,-2.0393,-2.0554,-2.0716,-2.282,-2.4761,-2.6386,-2.6386,-2.6386,-2.6386,-2.6386,-2.6386,-2.6386,-2.6386,-2.6386,-2.6386,1.3173,1.3261,1.3349,0.0,0.0,0.0,0.0,0.0,0.0,1.3349,1.3349,1.3349,1.3349,1.3349,1.3349,1.3349,1.3383,1.1374,0.7009,0.2505,-0.0,-0.0,-0.0,-0.0,-0.0,0.0,0.0,0.0,0.0,0.0,0.0,0.0,0.0,0.0,-0.0,-0.4586,-1.2566,-1.2681,-1.2822,-1.2983,-1.2929,-1.2745,-1.2522,-1.2657,-1.2705,-1.2718,-1.2861,-1.2908,-1.2908,-1.2908,-1.4176,-1.5447,-1.388,-1.4836,-1.688,-1.8926,-1.9709,-2.0801,-2.4406,-2.5518,-2.5504,-2.5478,-2.5464,-2.5384,-2.5104,0.0,-2.4957,-2.469,0.0,-2.4636,-2.4636,0.0,0.0,-2.4289,-2.4462,-2.4543,-2.4289,-2.4476,-2.4636,-2.4636,-2.4636,-2.4636,-2.4636,-2.4903,-2.5211,-2.5545,-2.5838,-2.6119,-2.6373,-2.6228,-2.5092,-2.282,-2.2487,-2.1362,-1.9258,-1.942,-1.9582,-1.9907,-1.9907,-1.9907,-1.9907,-2.1845,-2.282,-2.282,-2.5092,-2.6228,-2.6386,-2.6386,-2.6386,-2.6386,-2.6386,-2.6386,-2.6386,-2.6386,-2.6386,-2.6386,1.3315,1.3356,1.3403,0.0,0.0,0.0,0.0,0.0,0.0,1.3403,1.3403,1.3403,1.3403,1.3403,1.3403,1.3403,1.3431,1.2612,0.0,0.0,-0.0,-0.0,-0.0,-0.0,-0.0,0.0,0.0,0.0,-0.0,0.0,0.0,0.0,0.0,0.0,-0.0,0.0,-0.5412,-0.8191,-1.0784,-1.3024,-1.2976,-1.2881,-1.2773,-1.284,-1.2861,-1.2874,-1.2935,-1.2963,-1.2963,-1.2963,-1.3646,-1.4355,-1.3401,-1.5546,-1.8503,-1.9304,-2.1375,-2.3769,-2.5544,-2.5062,-2.4384,-2.5489,-2.4817,-2.4108,-2.508,-2.5331,-2.5251,-2.4957,0.0,0.0,0.0,0.0,0.0,0.0,-2.4556,-2.4596,-2.4476,-2.4556,-2.4636,-2.4636,-2.4636,0.0,-2.4636,-2.4903,-2.513,-2.5251,-2.5692,-2.6012,-2.6132,-2.6306,-2.5409,-2.314,-2.314,-2.2006,-1.9907,-2.12,-2.1684,-2.1684,-2.1684,-2.1684,-2.1845,-2.2659,-2.314,-2.314,-2.5409,-2.6386,-2.6386,-2.6386,-2.6386,-2.6386,-2.6386,-2.6386,-2.6386,-2.6386,-2.6386,-2.6386,1.3403,1.3403,1.3403,1.3403,0.0,0.0,0.0,0.0,0.0,0.0,0.0,0.0,1.3403,1.3403,1.3403,1.3403,1.3424,1.3451,0.0,0.0,0.1846,0.1849,0.0673,-0.0,-0.0,0.0,0.0,0.0,0.0,0.0,0.0,0.0,0.0,-0.3535,0.0,-0.0,-0.0331,0.0,-0.9235,-1.3146,-1.3098,-1.3085,-1.3078,-1.3037,-1.3044,-1.3085,-1.3085,-1.3085,-1.3085,-1.3085,-1.3633,0.0,-1.3398,-1.5902,-1.8933,-1.8933,-2.119,-2.3939,-2.5251,-2.4271,-2.3584,-2.5649,-2.4943,-2.407,-2.5383,-2.5638,-2.5558,-2.5264,-2.513,0.0,0.0,0.0,-2.4609,-2.4529,0.0,-2.4609,-2.4529,-2.4583,-2.4636,-2.4636,-2.4636,-2.4636,0.0,-2.4836,-2.4997,-2.5077,-2.5545,-2.5865,-2.5959,-2.6226,-2.574,-2.4111,-2.3952,-2.33,-2.1684,-2.33,-2.3632,-2.314,-2.314,-2.314,-2.314,-2.314,-2.346,-2.4111,-2.574,-2.6386,-2.6386,-2.6386,-2.6386,-2.6386,-2.6386,-2.6386,-2.6386,-2.6386,-2.6386,-2.6386,1.3403,1.3403,1.3403,1.3403,0.0,0.0,0.0,0.0,0.0,0.0,0.0,0.0,0.0,0.0,0.0,1.3403,0.0,1.3417,1.3451,0.0,0.6533,0.6533,0.2352,-0.0,-0.0,-0.0,-0.0,-0.0,0.0,0.0,0.0,0.0,0.0,-1.2527,-0.3873,-0.0,-0.0335,-0.4856,-0.923,-1.3318,-1.3417,-1.339,-1.337,0.0,-1.3261,-1.339,-1.339,0.0,0.0,-1.339,-1.4691,0.0,0.0,0.0,-1.6647,-1.6647,-1.6811,-1.7783,-2.2006,-2.314,-2.362,-2.5885,-2.6373,-2.6293,-2.6012,-2.5945,-2.5852,-2.5558,-2.5277,-2.5077,-2.5064,-2.4836,-2.4543,-2.4262,-2.4449,0.0,0.0,-2.4462,-2.4636,-2.4636,-2.4636,-2.4636,0.0,-2.4649,-2.477,-2.5064,-2.5358,-2.5651,-2.5945,-2.6226,-2.6386,-2.6228,-2.6228,-2.6228,-2.6228,-2.6228,-2.5251,-2.314,-2.314,-2.314,-2.314,-2.314,-2.4271,-2.6228,-2.6386,-2.6386,-2.6386,-2.6386,-2.6386,-2.6386,-2.6386,-2.6386,-2.6386,-2.6386,-2.6386,-2.6386,1.3403,1.3403,1.3403,1.3403,0.0,0.0,0.0,1.3403,0.0,0.0,1.3403,0.0,0.0,1.3403,1.3403,0.0,0.0,1.3417,1.3451,1.1945,0.9746,0.6871,0.8093,0.6068,0.0168,-0.0,-0.0,-0.0,-0.0,0.0,0.0,0.0,0.0,0.0,0.0,-0.8937,0.0,0.0,0.0,0.0,0.0,-1.3403,-1.3397,0.0,-1.3356,-1.3403,-1.3403,-1.3403,0.0,-1.3403,-1.3887,-1.4375,-1.3562,-1.4863,-1.6647,-1.6647,-1.7629,0.0,0.0,0.0,-2.1523,-2.3632,0.0,-2.4577,-2.5938,-2.6239,-2.6159,-2.5865,-2.5571,-2.5304,-2.5117,-2.4836,-2.4609,-2.4502,-2.4569,-2.4596,0.0,-2.4569,-2.4636,-2.4636,-2.4636,-2.4636,-2.4636,-2.4636,-2.4676,-2.4783,-2.5064,-2.5358,-2.5651,-2.5945,-2.6186,-2.6386,-2.6386,-2.6386,-2.6386,-2.6386,-2.6056,-2.5251,-2.5251,-2.5251,-2.5251,-2.5251,-2.574,-2.6386,-2.6386,-2.6386,-2.6386,-2.6386,-2.6386,-2.6386,-2.6386,-2.6386,-2.6386,-2.6386,-2.6386,-2.6386,1.3403,1.3403,1.3403,1.3403,0.0,0.0,0.0,0.0,0.0,0.0,1.3403,0.0,1.3403,0.0,1.3403,0.0,1.3403,1.341,1.3431,1.3464,1.2111,0.9212,1.1819,1.0126,0.3348,0.1007,-0.0,-0.0,-0.0,-0.0,0.0,0.0,0.0,0.0,0.0,-1.3378,-1.3365,-1.3478,-1.3471,-1.3331,-1.3431,-1.3403,0.0,0.0,-1.3403,-1.3403,0.0,-1.3403,-1.3403,-1.3403,-1.3403,-1.3403,-1.3403,-1.4375,-1.5514,-1.5514,-1.6492,-1.7801,-1.8444,-1.877,0.0,-2.2327,-2.314,0.0,-2.5898,-2.6386,-2.6333,-2.6146,-2.5879,-2.5611,-2.5424,-2.5064,-2.4796,-2.4796,-2.4703,-2.4636,0.0,-2.4636,-2.4636,-2.4636,-2.4636,-2.4636,-2.4636,-2.4636,-2.4636,-2.4636,-2.4917,-2.5211,-2.5504,0.0,-2.6092,-2.6373,-2.6386,-2.6386,-2.6386,-2.6386,-2.6386,-2.6386,-2.6386,-2.6386,-2.6386,-2.6386,-2.6386,-2.6386,-2.6386,-2.6386,-2.6386,-2.6386,-2.6386,-2.6386,-2.6386,-2.6386,-2.6386,-2.6386,-2.6386,-2.6386,0.0,1.3403,0.0,0.0,1.3403,0.0,0.0,0.0,1.3403,0.0,1.3403,1.3403,1.3403,1.3403,1.3403,1.3403,1.3403,1.3403,1.3403,1.3431,1.3437,1.3403,1.3464,1.2118,0.9198,0.3515,0.0503,-0.0,-0.0,-0.0,-0.0,0.0,0.0,0.0,-1.1478,0.0,-1.3331,-1.3464,-1.3471,-1.3325,-1.3424,-1.3403,-1.3403,-1.3403,-1.3403,-1.3403,-1.3403,-1.3403,-1.3403,-1.3403,-1.3403,-1.3403,-1.3403,-1.3403,-1.3403,-1.3403,-1.3403,-1.3887,-1.5835,-1.6483,-1.762,-2.1673,0.0,0.0,0.0,0.0,-2.6386,-2.6386,-2.6159,-2.5959,-2.5959,-2.5491,-2.5104,-2.5077,-2.4823,-2.4636,-2.4636,-2.4636,-2.4636,-2.4636,-2.4636,-2.4636,-2.4636,-2.4636,-2.4636,-2.4636,-2.4903,-2.5197,-2.5491,-2.5785,-2.6079,-2.6373,-2.6386,-2.6386,-2.6386,-2.6386,-2.6386,-2.6386,-2.6386,-2.6386,-2.6386,-2.6386,-2.6386,-2.6386,-2.6386,-2.6386,-2.6386,-2.6386,-2.6386,-2.6386,-2.6386,-2.6386,-2.6386,-2.6386,-2.6386,-2.6544,1.3403,1.3403,1.3403,0.0,1.3403,1.3403,0.0,0.0,0.0,0.0,1.3403,1.3403,1.3403,1.3403,1.3403,1.3403,1.3403,0.0,1.3403,1.3431,1.3437,1.3403,1.3464,1.2977,1.2253,1.0775,0.6727,-0.0,-0.0,-0.0,-0.0,0.0,0.0,0.0,0.0,-1.3331,-1.3464,-1.3431,-1.3417,-1.3424,-1.341,-1.3403,-1.3403,0.0,-1.3403,-1.3403,-1.3403,-1.3403,-1.3403,-1.3403,-1.3403,-1.3403,-1.3403,-1.3403,-1.3403,-1.3403,-1.3403,-1.3562,-1.4052,-1.535,-1.6811,-1.7946,-2.0705,-2.33,0.0,0.0,0.0,0.0,-2.6159,-2.5959,-2.5959,-2.5651,-2.5331,-2.5117,-2.4823,-2.4636,-2.4636,-2.4636,-2.4636,-2.4636,-2.4636,-2.4636,-2.4636,-2.4636,-2.4636,-2.4636,-2.4703,-2.497,-2.5491,0.0,0.0,-2.6373,-2.6386,-2.6386,-2.6386,-2.6386,-2.6386,-2.6386,-2.6386,-2.6386,-2.6386,-2.6386,-2.6386,-2.6386,-2.6386,-2.6386,-2.6386,-2.6386,-2.6386,-2.6386,-2.6386,-2.6386,-2.6386,-2.6386,-2.7305,-2.8686,1.3403,0.0,0.0,1.3403,0.0,0.0,1.3403,1.3403,0.0,1.3403,1.3403,0.0,1.3403,1.3403,1.3403,1.3403,1.3403,0.0,1.3403,1.3417,1.3424,1.3403,1.3451,1.3464,1.3431,1.3345,0.9948,0.2849,0.1009,-0.0,-0.0,0.0,0.0,0.0,0.0,-1.3318,-1.3451,-1.3431,-1.3417,-1.3403,-1.3403,-1.3403,0.0,-1.3403,-1.3403,-1.3403,-1.3403,-1.3403,-1.3403,-1.3403,-1.3403,-1.3403,-1.3403,-1.3403,-1.3403,-1.3403,-1.3403,-1.3403,-1.3403,-1.421,-1.535,-1.6319,-1.8435,-2.0705,-2.2648,-2.4111,-2.5251,0.0,-2.6266,-2.6146,0.0,-2.5905,-2.5571,-2.5144,-2.4943,-2.4783,-2.4649,-2.4636,-2.4636,-2.4636,-2.4636,-2.4636,-2.4636,-2.4636,-2.4636,-2.4636,-2.4636,0.0,0.0,0.0,0.0,-2.6373,-2.6386,-2.6386,-2.6386,-2.6386,-2.6386,-2.6386,-2.6386,-2.6386,-2.6386,-2.6386,-2.6386,-2.6386,-2.6386,-2.6386,-2.6386,-2.6386,-2.6386,-2.6386,-2.6386,-2.7004,-2.7762,-2.7762,-2.8374,-2.9589,0.0,0.0,0.0,0.0,0.0,0.0,0.0,1.3403,0.0,1.3403,0.0,1.3403,1.3403,1.3403,1.3403,1.3403,1.3403,1.3403,1.3403,1.3403,1.3403,1.3403,1.3431,1.3437,1.341,1.3338,1.1478,0.755,0.2522,-0.0,0.0,0.0,0.0,0.0,-1.1449,-1.3478,-1.3444,-1.3444,-1.3431,-1.3403,-1.3403,-1.3403,-1.3403,-1.3403,-1.3403,-1.3403,-1.3403,-1.3403,-1.3403,-1.3403,-1.3403,-1.3403,-1.3403,-1.3403,-1.3403,-1.3403,-1.3403,-1.3403,-1.3403,-1.3403,-1.3887,-1.5671,-1.6319,-1.762,-2.1351,-2.2648,-2.3632,-2.5581,-2.6228,-2.6386,0.0,-2.6146,-2.5785,-2.5277,-2.513,-2.4997,-2.4783,-2.469,-2.4649,-2.469,-2.4663,0.0,-2.4636,-2.4636,-2.4636,-2.4636,-2.4636,0.0,0.0,0.0,-2.5785,-2.6373,-2.6386,-2.6386,-2.6386,0.0,-2.6386,-2.6386,-2.6386,-2.6386,-2.6386,-2.6386,-2.6386,-2.6386,-2.6386,-2.6386,-2.6386,-2.6386,-2.6544,-2.6847,-2.6847,-2.8076,-2.9898,-3.0053,-3.0207,-3.05,0.0,0.0,0.0,0.0,0.0,1.3403,1.3403,1.3403,1.3403,1.3403,1.3403,1.3403,1.3403,1.3403,1.3403,1.3403,1.3403,0.0,1.3403,1.3403,1.3403,1.3403,1.3431,1.3451,1.3444,1.3351,1.3036,1.2173,0.404,-0.0,0.0,0.0,0.0,-0.6871,-1.1449,-1.3471,-1.341,-1.341,0.0,-1.3403,-1.3403,-1.3403,-1.3403,-1.3403,-1.3403,-1.3403,-1.3403,-1.3403,-1.3403,-1.3403,-1.3403,-1.3403,-1.3403,-1.3403,-1.3403,-1.3403,-1.3403,-1.3403,-1.3403,-1.3403,-1.3562,-1.3887,-1.535,-1.6811,-1.762,-2.0544,-2.314,-2.362,-2.5092,-2.6386,-2.6386,0.0,-2.5919,-2.5825,-2.5398,-2.5144,-2.5331,-2.4943,-2.473,-2.497,-2.4783,-2.4636,-2.4636,-2.4636,-2.4636,-2.4636,-2.4636,-2.489,0.0,0.0,-2.5785,0.0,-2.6386,0.0,0.0,0.0,-2.6386,-2.6386,-2.6386,-2.6386,-2.6386,-2.6386,-2.6386,-2.6386,-2.6386,-2.6386,-2.6386,-2.6386,-2.7305,-2.8827,-2.8827,-3.0207,-3.2184,-3.3833,-3.4434,-3.4434,0.0,0.0,0.0,0.0,0.0,0.0,0.0,1.3403,0.0,1.3403,1.3403,1.3403,1.3403,1.3403,1.3403,1.3403,1.3403,1.3403,1.3403,1.3403,1.3403,1.3403,1.3451,1.3471,1.3451,0.8751,0.8773,1.3385,0.4378,-0.0,0.0,0.0,0.0,-0.6871,-1.1432,-1.3451,-1.3403,0.0,0.0,-1.3403,-1.3403,-1.3403,-1.3403,-1.3403,-1.3403,-1.3403,-1.3403,-1.3403,-1.3403,-1.3403,-1.3403,-1.3403,-1.3403,-1.3403,-1.3403,-1.3403,-1.3403,-1.3403,-1.3403,-1.3403,-1.3403,-1.3403,-1.4217,-1.5185,-1.6319,-1.8272,-2.0059,-2.12,-2.2338,-2.3312,-2.4442,-2.5464,0.0,0.0,-2.5718,-2.5531,-2.5518,-2.5264,-2.5144,-2.5291,-2.5184,-2.5037,-2.4877,-2.4863,-2.4863,-2.4863,-2.473,-2.4957,-2.5705,0.0,-2.5785,0.0,0.0,0.0,0.0,0.0,0.0,-2.6386,-2.6386,-2.6386,-2.6386,-2.6386,-2.6386,-2.6386,-2.6386,-2.6386,-2.6544,-2.7462,-2.853,-2.9449,-3.0669,-3.2184,-3.4151,-3.5199,-3.6109,-3.7032,0.0,1.3403,0.0,0.0,1.3403,0.0,1.3403,1.3403,1.3403,1.3403,1.3403,1.3403,1.3403,1.3403,1.3403,1.3403,1.3403,1.3403,1.3403,1.3403,1.3403,1.341,1.3471,1.3325,1.3471,0.4537,0.3535,1.0477,0.3535,-0.0,0.0,-0.3703,-0.623,0.0,0.0,0.0,0.0,0.0,-1.3431,-1.3403,-1.3403,-1.3403,-1.3403,-1.3403,-1.3403,-1.3403,-1.3403,-1.3403,-1.3403,-1.3403,-1.3403,-1.3403,-1.3403,-1.3403,-1.3403,-1.3403,-1.3403,-1.3403,-1.3403,-1.3403,-1.3403,-1.3403,-1.3403,-1.3894,-1.5514,-1.6319,-1.7138,-1.877,-1.9582,-2.0393,-2.2166,-2.4271,0.0,0.0,0.0,-2.5892,-2.5718,-2.5598,-2.5531,-2.5598,-2.5491,-2.5358,-2.5184,-2.5117,-2.513,-2.5251,-2.493,-2.5064,-2.5825,-2.5705,-2.5852,0.0,0.0,-2.6386,-2.6386,0.0,-2.6386,-2.6386,-2.6386,-2.6386,-2.6386,-2.6386,-2.6386,-2.6386,-2.6386,-2.6702,-2.7162,-2.8671,-2.9898,-3.0807,-3.2489,-3.4301,-3.6109,-3.6109,-3.7179,-3.8574,0.0,0.0,0.0,0.0,0.0,0.0,1.3403,1.3403,1.3403,1.3403,1.3403,1.3403,1.3403,1.3403,1.3403,1.3403,1.3403,1.3403,1.3403,1.3403,1.3417,1.3444,1.3485,1.3351,1.3378,0.4546,0.0337,0.1179,0.0337,-0.0,0.0,-0.0503,0.0,0.0,0.0,0.0,0.0,-1.2253,-1.3431,-1.3403,-1.3403,-1.3403,-1.3403,-1.3403,-1.3403,-1.3403,-1.3403,-1.3403,-1.3403,-1.3403,-1.3403,-1.3403,-1.3403,-1.3403,-1.3403,-1.3403,-1.3403,-1.3403,-1.3403,-1.3403,-1.3403,-1.3403,-1.3403,-1.3403,-1.3728,-1.5185,-1.6647,-1.6811,-1.8444,-1.9907,-2.0231,-2.2006,-2.346,0.0,0.0,-2.6039,-2.6279,-2.5852,-2.5611,-2.5879,-2.5451,-2.5211,-2.5451,-2.5237,-2.5304,-2.5838,-2.5358,-2.5184,-2.5531,-2.5785,-2.6066,-2.6373,0.0,-2.6386,-2.6386,-2.6386,-2.6386,-2.6386,-2.6386,-2.6386,-2.6386,-2.6386,-2.6386,-2.6386,-2.6386,-2.7462,-2.9138,-2.9293,-3.1558,-3.49,-3.5199,-3.6423,-3.8263,-3.8263,-3.8428,-3.8574,0.0,0.0,0.0,0.0,0.0,0.0,0.0,1.3403,1.3403,1.3403,1.3403,1.3403,1.3403,1.3403,1.3403,1.3403,1.3403,1.3403,1.3403,1.3403,1.3417,1.3451,1.0753,1.0608,1.3385,0.4546,-0.0,-0.0,-0.0,-0.0,-0.0,0.0,0.0,0.0,0.0,-1.179,-0.9031,-1.2105,-1.3451,-1.3403,-1.3403,-1.3403,-1.3403,-1.3403,-1.3403,-1.3403,-1.3403,-1.3403,-1.3403,-1.3403,-1.3403,-1.3403,-1.3403,-1.3403,-1.3403,-1.3403,-1.3403,-1.3403,-1.3403,-1.3403,-1.3403,-1.3403,-1.3403,-1.3403,-1.3403,-1.4052,-1.4706,-1.4706,-1.6492,-1.7955,-1.7955,-1.9735,-2.1523,-2.282,0.0,-2.4794,-2.6215,-2.6186,-2.6079,-2.6199,-2.6012,-2.5838,-2.5785,-2.5678,-2.5625,-2.5692,-2.5478,-2.5545,-2.6012,-2.5985,-2.6092,-2.6373,0.0,-2.6386,-2.6386,-2.6386,-2.6386,-2.6386,-2.6386,-2.6386,-2.6386,-2.6386,-2.6386,-2.6544,-2.7605,-2.7919,-2.7919,-3.1558,-3.323,-3.4001,-3.6423,-3.7805,-3.8574,-3.8574,-3.8574,-3.8574,1.6975,0.0,1.5999,0.0,1.3403,1.3403,1.3403,1.3403,1.3403,1.3403,1.3403,1.3403,1.3403,1.3403,1.3403,1.3403,1.3403,1.3403,1.3403,1.3403,1.3424,1.3464,0.9059,0.7558,0.945,0.3199,-0.0,-0.0,-0.0,-0.0,0.0,0.0,0.0,0.0,-0.6566,-0.9086,-0.8536,-1.1951,-1.3464,-1.3403,-1.3403,-1.3403,-1.3403,-1.3403,-1.3403,-1.3403,-1.3403,-1.3403,-1.3403,-1.3403,-1.3403,-1.3403,-1.3403,-1.3403,-1.3403,-1.3403,-1.3403,-1.3403,-1.3403,-1.3403,-1.3403,-1.3403,-1.3403,-1.3403,-1.3403,-1.3403,-1.3403,-1.3403,-1.4541,-1.5671,-1.5671,-1.7465,-1.942,-2.0867,0.0,0.0,-2.5251,-2.6056,-2.6386,-2.6386,-2.6319,-2.6213,-2.6092,-2.6012,-2.5905,-2.5785,0.0,-2.5919,-2.6239,-2.6146,0.0,0.0,0.0,0.0,0.0,-2.6386,-2.6386,-2.6386,-2.6386,-2.6386,-2.6386,-2.6386,-2.6386,-2.6544,-2.7919,-2.8374,-2.853,-3.2776,-3.4451,-3.4619,-3.7511,-3.8574,-3.8574,-3.8574,-3.8574,-3.8574,1.6975,1.6647,1.5999,1.3728,1.3403,1.3403,1.3403,1.3403,1.3403,1.3403,1.3403,1.3403,1.3403,1.3403,1.3403,1.3403,1.3403,1.3403,1.3403,1.3403,1.3431,0.0,0.0,0.4695,0.0337,-0.0,-0.0,-0.0,-0.0,0.0,-0.0,0.0,-0.0,-0.0,-0.0168,-0.2688,-0.7038,-1.1449,-1.3464,-1.3403,-1.3403,-1.3403,-1.3403,-1.3403,-1.3403,-1.3403,-1.3403,-1.3403,-1.3403,-1.3403,-1.3403,-1.3403,-1.3403,-1.3403,-1.3403,-1.3403,-1.3403,-1.3403,-1.3403,-1.3403,-1.3403,-1.3403,-1.3403,-1.3403,-1.3403,-1.3403,-1.3403,-1.3403,-1.3397,-1.3403,-1.3403,-1.5193,-1.6647,-1.6647,0.0,0.0,-2.314,-2.5092,-2.6386,-2.6386,-2.6132,-2.6079,-2.636,-2.6132,-2.6079,0.0,0.0,0.0,0.0,0.0,0.0,-2.6386,-2.6386,0.0,-2.6386,-2.6386,-2.6386,-2.6386,-2.6386,-2.6386,-2.6386,-2.6386,-2.6386,-2.6386,-2.6386,-2.8686,-3.2505,-3.2505,-3.4918,-3.8574,-3.8574,-3.8574,-3.8574,-3.8574,-3.8574,-3.8574,1.9572,1.8933,1.7629,1.4052,1.3403,1.3403,1.3403,1.3403,1.3403,1.3403,1.3403,1.3403,1.3403,1.3403,1.3403,0.0,1.3403,1.3403,0.0,1.3424,1.3458,1.3331,1.1981,0.7745,0.0168,-0.0,-0.0,-0.0,0.0,0.0,0.0,-0.0,-0.0,-0.0,-0.0,-0.252,-0.7038,-1.1449,-1.3464,-1.3403,-1.3403,-1.3403,-1.3403,-1.3403,-1.3403,-1.3403,-1.3403,-1.3403,-1.3403,-1.3403,-1.3403,-1.3403,-1.3403,-1.3403,-1.3403,-1.3403,-1.3403,-1.3403,-1.3403,-1.3403,-1.3403,-1.3403,-1.3403,-1.3403,-1.3403,-1.3403,-1.3403,-1.3403,-1.3403,-1.3403,-1.3403,-1.3887,-1.4863,-1.6319,-1.7783,0.0,-2.0716,-2.1523,-2.2499,-2.3952,-2.4038,-2.466,-2.6215,-2.6306,0.0,0.0,0.0,0.0,0.0,0.0,0.0,0.0,-2.6386,0.0,-2.6386,-2.6386,-2.6386,-2.6386,-2.6386,-2.6386,-2.6386,-2.6386,-2.6386,-2.6544,-2.9293,-3.0515,-3.0669,-3.4918,-3.659,-3.6571,-3.8117,-3.8574,-3.8574,-3.8574,-3.8574,-3.8574,2.0716,1.9907,1.8607,1.4217,1.3403,1.3403,1.3403,1.3403,1.3403,1.3403,1.3403,1.3403,1.3403,1.3403,0.0,1.3403,1.3403,1.3403,1.3403,1.3424,1.2599,1.0937,1.0953,0.7406,0.0168,-0.0,0.0,-0.0,-0.0,-0.0,-0.0,-0.0,-0.0,-0.0,-0.0,-0.252,-0.7038,-1.1449,-1.3464,-1.3403,-1.3403,-1.3403,-1.3403,-1.3403,-1.3403,-1.3403,-1.3403,-1.3403,-1.3403,-1.3403,-1.3403,-1.3403,-1.3403,-1.3403,-1.3403,-1.3403,-1.3403,-1.3403,-1.3403,-1.3403,-1.3403,-1.3403,-1.3403,-1.3403,-1.3403,-1.3403,-1.3403,-1.3403,-1.3403,-1.3403,-1.3403,-1.3403,-1.3894,-1.5185,-1.5999,-1.7138,-1.8444,-1.942,-2.0716,-2.282,-2.314,0.0,0.0,-2.6386,-2.6386,0.0,0.0,0.0,0.0,0.0,0.0,-2.6386,-2.6386,0.0,-2.6386,-2.6386,-2.6386,-2.6386,-2.6386,-2.6386,-2.6386,-2.6386,-2.6386,-2.6544,-2.9913,-3.0977,-3.0977,-3.5515,-3.7179,-3.6737,-3.8117,-3.8574,-3.8574,-3.8574,-3.8574,-3.8574,2.0716,1.9907,0.0,0.0,1.3403,0.0,1.3403,1.3403,1.3403,1.3403,1.3403,1.3403,1.3403,1.3403,1.3403,1.3403,0.0,0.0,0.0,1.3403,1.1558,0.7372,0.6533,0.436,0.0168,-0.0,-0.0,-0.0,-0.0,-0.0,-0.0,-0.0,-0.0,-0.0,-0.0,-0.252,-0.7038,-1.1449,-1.3464,-1.3403,-1.3403,-1.3403,-1.3403,-1.3403,-1.3403,-1.3403,-1.3403,-1.3403,-1.3403,-1.3403,-1.3403,-1.3403,-1.3403,-1.3403,-1.3403,-1.3403,-1.3403,-1.3403,-1.3403,-1.3403,-1.3403,-1.3403,-1.3403,-1.3403,-1.3403,-1.3403,-1.3403,-1.3403,-1.3403,-1.3403,-1.3403,-1.3403,-1.3403,-1.3403,-1.5028,-1.6319,-1.6319,-1.8118,-2.0231,-2.2659,0.0,0.0,0.0,-2.6386,-2.6386,0.0,0.0,0.0,0.0,0.0,-2.6386,-2.6386,-2.6386,-2.6386,-2.6386,-2.6386,-2.6386,-2.6386,-2.6386,-2.6386,-2.6386,-2.6386,-2.6544,-2.6689,-2.8686,-3.0823,-3.2809,-3.49,-3.6885,-3.8574,-3.8574,-3.8574,-3.8574,-3.8574,-3.8574,-3.8574,0.0,0.0,1.8607,1.4217,1.3403,1.3403,1.3403,1.3403,1.3403,1.3403,1.3403,1.3403,1.3403,1.3403,1.3403,1.3403,1.3403,1.3403,1.3403,1.3424,1.2945,1.179,0.5198,0.1007,-0.0,-0.0,-0.0,-0.0,-0.0,-0.0,-0.0,-0.0,-0.0,-0.0,-0.0,-0.252,-0.7038,-1.1449,-1.3464,-1.3403,-1.3403,-1.3403,-1.3403,-1.3403,-1.3403,-1.3403,-1.3403,-1.3403,-1.3403,-1.3403,-1.3403,-1.3403,-1.3403,-1.3403,-1.3403,-1.3403,-1.3403,-1.3403,-1.3403,-1.3403,-1.3403,-1.3403,-1.3403,-1.3403,-1.3403,-1.3403,-1.3403,-1.3403,-1.3403,-1.3403,-1.3403,-1.3403,-1.3403,-1.3403,-1.3894,-1.4217,-1.4217,-1.4541,-1.6336,0.0,-2.0716,-2.2178,-2.6056,-2.6386,-2.6386,0.0,0.0,0.0,0.0,-2.6386,-2.6386,-2.6386,-2.6386,-2.6386,-2.6386,-2.6386,-2.6386,-2.6386,-2.6386,-2.6386,-2.6386,-2.6386,-2.7305,-2.8827,-3.0823,-3.2944,-3.49,-3.7032,-3.8117,-3.8574,-3.8574,-3.8574,-3.8574,-3.8574,-3.8574,-3.8574,2.0716,1.9907,1.8607,1.4217,1.3403,1.3403,1.3403,1.3403,1.3403,1.3403,1.3403,1.3403,1.3403,1.3403,1.3403,1.3403,1.3403,1.3403,1.3403,1.3431,1.3464,1.3331,0.8747,0.4204,0.0168,-0.0,-0.0,-0.0,-0.0,-0.0,-0.0,-0.0,-0.0,-0.0,-0.0,-0.252,-0.7038,-1.1449,-1.3464,-1.3403,-1.3403,-1.3403,-1.3403,-1.3403,-1.3403,-1.3403,-1.3403,-1.3403,-1.3403,-1.3403,-1.3403,-1.3403,-1.3403,-1.3403,-1.3403,-1.3403,-1.3403,-1.3403,-1.3403,-1.3403,-1.3403,-1.3403,-1.3403,-1.3403,-1.3403,-1.3403,-1.3403,-1.3403,-1.3403,-1.3403,-1.3403,-1.3403,-1.3403,-1.3403,-1.3403,-1.3403,-1.3403,-1.3403,-1.5036,-1.942,-1.9907,-2.1684,-2.5898,-2.6386,-2.6386,-2.6386,-2.6386,0.0,-2.6386,-2.6386,-2.6386,-2.6386,-2.6386,-2.6386,-2.6386,-2.6386,-2.6386,-2.6386,-2.6386,-2.6386,-2.6386,-2.7305,-2.8374,-2.9589,-3.2641,-3.4451,-3.5664,-3.7805,-3.8574,-3.8574,-3.8574,-3.8574,-3.8574,-3.8574,-3.8574,-3.8574,2.0716,1.9907,1.8607,1.4217,1.3403,1.3403,1.3403,1.3403,1.3403,1.3403,1.3403,1.3403,1.3403,1.3403,1.3403,1.3403,1.3403,1.3403,1.3403,1.3431,1.3125,1.247,1.3023,0.9114,0.0168,-0.0,-0.0,-0.0,-0.0,-0.0,-0.0,-0.0,-0.0,-0.0,-0.0,-0.252,-0.7038,-1.1449,-1.3464,-1.3403,-1.3403,-1.3403,-1.3403,-1.3403,-1.3403,-1.3403,-1.3403,-1.3403,-1.3403,-1.3403,-1.3403,-1.3403,-1.3403,-1.3403,-1.3403,-1.3403,-1.3403,-1.3403,-1.3403,-1.3403,-1.3403,-1.3403,-1.3403,-1.3403,-1.3403,-1.3403,-1.3403,-1.3403,-1.3403,-1.3403,-1.3403,-1.3403,-1.3403,-1.3403,-1.3403,-1.3403,-1.3403,0.0,-1.5036,-1.942,-1.9907,-2.1684,-2.5898,-2.6386,-2.6386,-2.6386,-2.6386,-2.6386,-2.6386,-2.6386,-2.6386,-2.6386,-2.6386,-2.6386,-2.6386,-2.6386,-2.6386,-2.6386,-2.6386,-2.6386,-2.6386,-2.8218,-2.9293,-3.0053,-3.3532,-3.5348,-3.6109,-3.7805,-3.8574,-3.8574,-3.8574,-3.8574,-3.8574,-3.8574,-3.8574,-3.8574,2.0716,1.9907,1.8607,1.4217,1.3403,1.3403,1.3403,1.3403,1.3403,1.3403,1.3403,1.3403,1.3403,1.3403,1.3403,1.3403,1.3403,1.3403,1.3403,1.3431,1.1754,0.7881,1.1305,0.9114,0.0168,-0.0,-0.0,-0.0,-0.0,-0.0,-0.0,-0.0,-0.0,-0.0,-0.0,-0.252,-0.7038,-1.1449,-1.3464,-1.3403,-1.3403,-1.3403,-1.3403,-1.3403,-1.3403,-1.3403,-1.3403,-1.3403,-1.3403,-1.3403,-1.3403,-1.3403,-1.3403,-1.3403,-1.3403,-1.3403,-1.3403,-1.3403,-1.3403,-1.3403,-1.3403,-1.3403,-1.3403,-1.3403,-1.3403,-1.3403,-1.3403,-1.3403,-1.3403,-1.3403,-1.3403,-1.3403,-1.3403,-1.3403,-1.3403,-1.3403,-1.3403,0.0,-1.5036,-1.942,-1.9907,-2.1684,-2.5898,-2.6386,-2.6386,-2.6386,-2.6386,-2.6386,-2.6386,-2.6386,-2.6386,-2.6386,-2.6386,-2.6386,-2.6386,-2.6386,-2.6386,-2.6386,-2.6386,-2.6386,-2.6386,-2.6689,-2.8686,-3.2048,-3.2657,-3.4918,-3.8117,-3.8428,-3.8574,-3.8574,-3.8574,-3.8574,-3.8574,-3.8574,-3.8574,-3.8574,2.0716,1.9907,1.8607,1.4217,1.3403,1.3403,1.3403,1.3403,1.3403,1.3403,1.3403,1.3403,1.3403,1.3403,1.3403,1.3403,1.3403,1.3403,1.3403,1.3451,1.1432,0.6871,0.6389,0.421,0.0168,-0.0,-0.0,-0.0,-0.0,-0.0,-0.0,-0.0,-0.0,-0.0,-0.0,-0.252,-0.7038,-1.1449,-1.3464,-1.3403,-1.3403,-1.3403,-1.3403,-1.3403,-1.3403,-1.3403,-1.3403,-1.3403,-1.3403,-1.3403,-1.3403,-1.3403,-1.3403,-1.3403,-1.3403,-1.3403,-1.3403,-1.3403,-1.3403,-1.3403,-1.3403,-1.3403,-1.3403,-1.3403,-1.3403,-1.3403,-1.3403,-1.3403,-1.3403,-1.3403,-1.3403,-1.3403,-1.3403,-1.3403,-1.3403,0.0,0.0,-1.3403,-1.5036,-1.942,-1.9907,-2.1684,-2.5898,-2.6386,-2.6386,-2.6386,-2.6386,-2.6386,-2.6386,-2.6386,-2.6386,-2.6386,-2.6386,-2.6386,-2.6386,-2.6386,-2.6386,-2.6386,-2.6386,-2.6386,-2.6544,-2.8686,-3.0669,-3.2657,-3.4769,-3.6904,-3.8574,-3.8574,-3.8574,-3.8574,-3.8574,-3.8574,-3.8574,-3.8574,-3.8574,-3.8574,2.0716,1.9907,1.8607,1.4217,1.3403,1.3403,1.3403,1.3403,1.3403,1.3403,1.3403,1.3403,1.3403,1.3403,1.3403,1.3403,1.3403,1.3403,1.3403,1.3464,1.1449,0.6871,0.2352,-0.0,-0.0,-0.0,-0.0,-0.0,-0.0,-0.0,-0.0,-0.0,-0.0,-0.0,-0.0,-0.252,-0.7038,-1.1449,-1.3464,-1.3403,-1.3403,-1.3403,-1.3403,-1.3403,-1.3403,-1.3403,-1.3403,-1.3403,-1.3403,-1.3403,-1.3403,-1.3403,-1.3403,-1.3403,-1.3403,-1.3403,-1.3403,-1.3403,-1.3403,-1.3403,-1.3403,-1.3403,-1.3403,-1.3403,-1.3403,-1.3403,-1.3403,-1.3403,-1.3403,-1.3403,-1.3403,-1.3403,-1.3403,-1.3403,0.0,0.0,0.0,-1.3403,-1.5036,-1.942,-1.9907,-2.1684,-2.5898,-2.6386,-2.6386,-2.6386,-2.6386,-2.6386,-2.6386,-2.6386,-2.6386,-2.6386,-2.6386,-2.6386,-2.6386,-2.6386,-2.6386,-2.6386,-2.6386,-2.6386,-2.6544,-3.0053,-3.2048,-3.2657,-3.6275,-3.8117,-3.8574,-3.8574,-3.8574,-3.8574,-3.8574,-3.8574,-3.8574,-3.8574,-3.8574,-3.8574,2.0716,1.9907,1.8607,1.4217,1.3403,1.3403,1.3403,1.3403,1.3403,1.3403,1.3403,1.3403,1.3403,1.3403,1.3403,1.3403,1.3403,1.3403,1.3403,1.3464,1.1449,0.6871,0.2352,-0.0,-0.0,-0.0,-0.0,-0.0,-0.0,-0.0,-0.0,-0.0,-0.0,-0.0,-0.0,-0.252,-0.7038,-1.1449,-1.3464,-1.3403,-1.3403,-1.3403,-1.3403,-1.3403,-1.3403,-1.3403,-1.3403,-1.3403,-1.3403,-1.3403,-1.3403,-1.3403,-1.3403,-1.3403,-1.3403,-1.3403,-1.3403,-1.3403,-1.3403,-1.3403,-1.3403,-1.3403,-1.3403,-1.3403,-1.3403,-1.3403,-1.3403,-1.3403,-1.3403,-1.3403,-1.3403,-1.3403,-1.3403,-1.3403,0.0,0.0,-1.3403,-1.3403,-1.5036,-1.942,-1.9907,-2.1684,-2.5898,-2.6386,-2.6386,-2.6386,-2.6386,-2.6386,-2.6386,-2.6386,-2.6386,-2.6386,-2.6386,-2.6386,-2.6386,-2.6386,-2.6386,-2.6386,-2.6386,-2.6386,-2.6544,-2.8686,-3.0669,-3.2657,-3.4751,-3.6885,-3.8574,-3.8574,-3.8574,-3.8574,-3.8574,-3.8574,-3.8574,-3.8574,-3.8574,-3.8574,2.1121,2.0109,1.8758,1.4232,1.3403,1.3403,1.3403,1.3403,1.3403,1.3403,1.3403,1.3403,1.3403,1.3403,1.3403,1.3403,1.3403,1.3403,1.3403,1.3464,1.01,0.2856,0.0841,-0.0,-0.0,-0.0,-0.0,-0.0,-0.0,-0.0,-0.0,-0.0,-0.0,-0.0,-0.0,-0.252,-0.7038,-1.1449,-1.3464,-1.3403,-1.3403,-1.3403,-1.3403,-1.3403,-1.3403,-1.3403,-1.3403,-1.3403,-1.3403,-1.3403,-1.3403,-1.3403,-1.3403,-1.3403,-1.3403,-1.3403,-1.3403,-1.3403,-1.3403,-1.3403,-1.3403,-1.3403,-1.3403,-1.3403,-1.3403,-1.3403,-1.3403,-1.3403,-1.3403,-1.3403,-1.3403,-1.3403,-1.3403,-1.3403,0.0,-1.3403,-1.3403,-1.4541,-1.6492,-1.9582,-2.1039,-2.314,-2.607,-2.6386,-2.6386,-2.6386,-2.6386,-2.6386,-2.6386,-2.6386,-2.6386,-2.6386,-2.6386,-2.6386,-2.6386,-2.6386,-2.6386,-2.6386,-2.6386,-2.7004,-2.8374,-3.0361,-3.2489,-3.4451,-3.6571,-3.7805,-3.8574,-3.8574,-3.8574,-3.8574,-3.8574,-3.8574,-3.8574,-3.8574,-3.8574,-3.8574,2.1355,2.0281,1.8872,1.4311,1.3431,1.3403,1.3403,1.3403,1.3403,1.3403,1.3403,1.3403,1.3403,1.3403,1.3403,1.3403,1.3403,1.3403,1.3403,1.2099,0.7901,0.0337,-0.0,-0.0,-0.0,-0.0,-0.0,-0.0,-0.0,-0.0,-0.0,-0.0,-0.0,-0.0168,-0.303,-0.5211,-0.7038,-1.1438,-1.3451,-1.3403,-1.3403,-1.3403,-1.3403,-1.3403,-1.3403,-1.3403,-1.3403,-1.3403,-1.3403,-1.3403,-1.3403,-1.3403,-1.3403,-1.3403,-1.3403,-1.3403,-1.3403,-1.3403,-1.3403,-1.3403,-1.3403,-1.3403,-1.3403,-1.3403,-1.3403,-1.3403,-1.3403,-1.3403,-1.3403,-1.3403,-1.3403,-1.3403,-1.3403,-1.3403,-1.3403,-1.3403,-1.3403,-1.4698,-1.6656,-1.9582,-2.12,-2.33,-2.607,-2.6386,-2.6386,-2.6386,-2.6386,-2.6386,-2.6386,-2.6386,-2.6386,-2.6386,-2.6386,-2.6386,-2.6386,-2.6386,-2.6386,-2.6386,-2.6386,-2.7462,-2.9449,-3.159,-3.3549,-3.5664,-3.7658,-3.8574,-3.8574,-3.8574,-3.8574,-3.8574,-3.8574,-3.8574,-3.8574,-3.8574,-3.8574,-3.8574,2.1556,2.0382,1.8919,1.4462,1.3505,1.3403,1.3403,1.3403,1.3403,1.3403,1.3403,1.3403,1.3403,1.3403,1.3403,1.3403,1.3403,1.3403,1.3403,0.9207,0.4695,0.0168,-0.0,-0.0,-0.0,-0.0,-0.0,-0.0,-0.0,-0.0,-0.0,-0.0,-0.0,-0.0337,-0.9454,-1.0964,-0.7038,-1.1587,-1.3431,-1.3403,-1.3403,-1.3403,-1.3403,-1.3403,-1.3403,-1.3403,-1.3403,-1.3403,-1.3403,-1.3403,-1.3403,-1.3403,-1.3403,-1.3403,-1.3403,-1.3403,-1.3403,-1.3403,-1.3403,-1.3403,-1.3403,-1.3403,-1.3403,-1.3403,-1.3403,-1.3403,-1.3403,-1.3403,-1.3403,-1.3403,-1.3403,-1.3403,-1.3403,-1.3403,-1.3403,-1.3403,-1.3397,-1.3397,-1.5036,-1.942,-1.9907,-2.1684,-2.5898,-2.6386,-2.6386,-2.6386,-2.6386,-2.6386,-2.6386,-2.6386,-2.6386,-2.6386,-2.6386,-2.6386,-2.6386,-2.6386,-2.6386,-2.6386,-2.6386,-2.7462,-2.9449,-3.159,-3.3549,-3.5664,-3.7658,-3.8574,-3.8574,-3.8574,-3.8574,-3.8574,-3.8574,-3.8574,-3.8574,-3.8574,-3.8574,-3.8574,2.1832,2.0905,1.925,1.4498,1.3593,1.3526,1.3417,1.3403,1.3403,1.3403,1.3403,1.3403,1.3403,1.3403,1.3403,1.3403,1.3403,1.3424,1.3471,0.9226,0.4695,0.0168,-0.0,-0.0,-0.0,-0.0,-0.0,-0.0,-0.0,-0.0,-0.0,-0.0,-0.0,-0.0337,-0.9454,-1.2675,-1.1449,-1.2785,-1.3431,-1.3403,-1.3403,-1.3403,-1.3403,-1.3403,-1.3403,-1.3403,-1.3403,-1.3403,-1.3403,-1.3403,-1.3403,-1.3403,-1.3403,-1.3403,-1.3403,-1.3403,-1.3403,-1.3403,-1.3403,-1.3403,-1.3403,-1.3403,-1.3403,-1.3403,-1.3403,-1.3403,-1.3403,-1.3403,-1.3403,-1.3403,-1.3403,-1.3403,-1.3403,-1.3403,-1.3403,-1.3887,-1.535,-1.5679,-1.7302,-2.1684,-2.2166,-2.33,-2.607,-2.6386,-2.6386,-2.6386,-2.6386,-2.6386,-2.6386,-2.6386,-2.6386,-2.6386,-2.6386,-2.6386,-2.6386,-2.6386,-2.6386,-2.6386,-2.6386,-2.8232,-3.159,-3.2201,-3.4319,-3.7658,-3.8263,-3.8574,-3.8574,-3.8574,-3.8574,-3.8574,-3.8574,-3.8574,-3.8574,-3.8574,-3.8574,-3.8574,2.2065,2.1119,1.9448,1.4678,1.3709,1.36,1.3505,1.3437,1.3403,1.3403,1.3403,1.3403,1.3403,1.3403,1.3403,1.3403,1.3403,1.3431,1.3331,0.9235,0.4695,0.0168,-0.0,-0.0,-0.0,-0.0,-0.0,-0.0,-0.0,-0.0,-0.0,-0.0,-0.0,-0.0337,-0.7573,-1.1807,-1.3331,-1.3451,-1.3417,-1.3403,-1.3403,-1.3403,-1.3403,-1.3403,-1.3403,-1.3403,-1.3403,-1.3403,-1.3403,-1.3403,-1.3403,-1.3403,-1.3403,-1.3403,-1.3403,-1.3403,-1.3403,-1.3403,-1.3403,-1.3403,-1.3403,-1.3403,-1.3403,-1.3403,-1.3403,-1.3403,-1.3403,-1.3403,-1.3403,-1.3403,-1.3403,-1.3403,-1.3403,-1.3403,-1.4052,-1.4863,-1.535,-1.6811,-1.8923,-2.1523,-2.2659,-2.3952,-2.6228,-2.6386,-2.6386,-2.6386,-2.6386,-2.6386,-2.6386,-2.6386,-2.6386,-2.6386,-2.6386,-2.6386,-2.6386,-2.6386,-2.6386,-2.6386,-2.6386,-2.853,-3.2505,-3.2505,-3.4769,-3.8574,-3.8574,-3.8574,-3.8574,-3.8574,-3.8574,-3.8574,-3.8574,-3.8574,-3.8574,-3.8574,-3.8574,-3.8574,2.2084,2.1049,1.9543,1.493,1.3851,1.3661,1.3648,1.3519,1.3424,1.3424,1.341,1.3403,1.3403,1.3403,1.3403,1.3403,1.3403,1.3431,1.3331,0.9235,0.4695,0.0168,-0.0,-0.0,-0.0,-0.0,-0.0,-0.0,-0.0,-0.0,-0.0,-0.0,-0.0505,-0.1347,-0.5033,-0.9235,-1.3325,-1.3431,-1.3403,-1.3403,-1.3403,-1.3403,-1.3403,-1.3403,-1.3403,-1.3403,-1.3403,-1.3403,-1.3403,-1.3403,-1.3403,-1.3403,-1.3403,-1.3403,-1.3403,-1.3403,-1.3403,-1.3403,-1.3403,-1.3403,-1.3403,-1.3403,-1.3403,-1.3403,-1.3403,-1.3403,-1.3403,-1.3403,-1.3403,-1.3403,-1.3403,-1.3403,-1.3403,-1.3403,-1.5028,-1.5843,-1.4217,-1.7311,-1.9745,-2.0393,-2.2006,-2.3952,-2.6228,-2.6386,-2.6386,-2.6386,-2.6386,-2.6386,-2.6386,-2.6386,-2.6386,-2.6386,-2.6386,-2.6386,-2.6386,-2.6386,-2.6386,-2.6386,-2.6544,-2.8686,-3.2505,-3.2657,-3.4918,-3.8574,-3.8574,-3.8574,-3.8574,-3.8574,-3.8574,-3.8574,-3.8574,-3.8574,-3.8574,-3.8574,-3.8574,-3.8574,2.2084,2.1181,1.9722,1.4952,1.4021,1.3933,1.381,1.3675,1.358,1.358,1.3478,1.3403,1.3403,1.3403,1.3403,1.3403,1.3403,1.3431,1.3331,0.9235,0.4695,0.0168,-0.0,-0.0,-0.0,-0.0,-0.0,-0.0,-0.0,-0.0,-0.0,-0.0,-0.3705,-1.0304,-0.7893,-0.9226,-1.3458,-1.3417,-1.3403,-1.3403,-1.3403,-1.3403,-1.3403,-1.3403,-1.3403,-1.3403,-1.3403,-1.3403,-1.3403,-1.3403,-1.3403,-1.3403,-1.3403,-1.3403,-1.3403,-1.3403,-1.3403,-1.3403,-1.3403,-1.3403,-1.3403,-1.3403,-1.3403,-1.3403,-1.3403,-1.3403,-1.3403,-1.3403,-1.3403,-1.3403,-1.3403,-1.3403,-1.3403,-1.3403,-1.3728,-1.5193,-1.8128,-1.7792,-1.9248,-2.443,-2.3952,-2.3952,-2.6228,-2.6386,-2.6386,-2.6386,-2.6386,-2.6386,-2.6386,-2.6386,-2.6386,-2.6386,-2.6386,-2.6386,-2.6386,-2.6386,-2.6386,-2.6386,-2.8076,-3.0053,-3.2505,-3.4151,-3.6275,-3.8574,-3.8574,-3.8574,-3.8574,-3.8574,-3.8574,-3.8574,-3.8574,-3.8574,-3.8574,-3.8574,-3.8574,-3.8574,2.2084,2.1221,1.9807,1.506,1.4122,1.4048,1.3966,1.3824,1.3702,1.3641,1.3559,1.3485,1.341,1.3403,1.3403,1.3403,1.3403,1.3431,1.3331,0.9235,0.4695,0.0168,-0.0,-0.0,-0.0,-0.0,-0.0,-0.0,-0.0,-0.0,-0.0,-0.0,-0.4715,-1.3385,-1.0948,-1.126,-1.3451,-1.3417,-1.3403,-1.3403,-1.3403,-1.3403,-1.3403,-1.3403,-1.3403,-1.3403,-1.3403,-1.3403,-1.3403,-1.3403,-1.3403,-1.3403,-1.3403,-1.3403,-1.3403,-1.3403,-1.3403,-1.3403,-1.3403,-1.3403,-1.3403,-1.3403,-1.3403,-1.3403,-1.3403,-1.3403,-1.3403,-1.3403,-1.3403,-1.3403,-1.3403,-1.3403,-1.3403,-1.3403,-1.4217,-1.5679,-1.7955,-1.9085,-2.1028,-2.4442,-2.4761,-2.5092,-2.6228,-2.6386,-2.6386,-2.6386,-2.6386,-2.6386,-2.6386,-2.6386,-2.6386,-2.6386,-2.6386,-2.6386,-2.6386,-2.6386,-2.6847,-2.7762,-2.8827,-3.0961,-3.4001,-3.505,-3.6571,-3.8574,-3.8574,-3.8574,-3.8574,-3.8574,-3.8574,-3.8574,-3.8574,-3.8574,-3.8574,-3.8574,-3.8574,-3.8574,2.2084,2.1221,1.9662,1.5168,1.4197,1.4109,1.4109,1.398,1.3838,1.3722,1.3682,1.3614,1.3492,1.3451,1.3431,1.3403,1.3403,1.3431,1.3331,0.9235,0.4695,0.0168,-0.0,-0.0,-0.0,-0.0,-0.0,-0.0,-0.0,-0.0,-0.0,-0.0,-0.4376,-1.234,-1.3004,-1.3478,-1.3444,-1.341,-1.3403,-1.3403,-1.3403,-1.3403,-1.3403,-1.3403,-1.3403,-1.3403,-1.3403,-1.3403,-1.3403,-1.3403,-1.3403,-1.3403,-1.3403,-1.3403,-1.3403,-1.3403,-1.3403,-1.3403,-1.3403,-1.3403,-1.3403,-1.3403,-1.3403,-1.3403,-1.3403,-1.3403,-1.3403,-1.3403,-1.3403,-1.3403,-1.3403,-1.3403,-1.3403,-1.3403,-1.4863,-1.6328,-1.7138,-2.022,-2.282,-2.362,-2.5251,-2.6386,-2.6386,-2.6386,-2.6386,-2.6386,-2.6386,-2.6386,-2.6386,-2.6386,-2.6386,-2.6386,-2.6386,-2.6386,-2.6386,-2.6689,-2.7919,-2.9898,-3.0361,-3.2168,-3.5497,-3.5812,-3.7032,-3.8574,-3.8574,-3.8574,-3.8574,-3.8574,-3.8574,-3.8574,-3.8574,-3.8574,-3.8574,-3.8574,-3.8574,-3.8574,2.2084,2.1221,1.9662,1.5168,1.4285,1.4272,1.4272,1.4136,1.4034,1.4014,1.3899,1.3804,1.3783,1.3675,1.3546,1.341,1.3403,1.3431,1.3331,0.9235,0.4695,0.0168,-0.0,-0.0,-0.0,-0.0,-0.0,-0.0,-0.0,-0.0,-0.0,-0.0,-0.2688,-0.7718,-1.1622,-1.3464,-1.341,-1.3403,-1.3403,-1.3403,-1.3403,-1.3403,-1.3403,-1.3403,-1.3403,-1.3403,-1.3403,-1.3403,-1.3403,-1.3403,-1.3403,-1.3403,-1.3403,-1.3403,-1.3403,-1.3403,-1.3403,-1.3403,-1.3403,-1.3403,-1.3403,-1.3403,-1.3403,-1.3403,-1.3403,-1.3403,-1.3403,-1.3403,-1.3403,-1.3403,-1.3403,-1.3403,-1.3403,-1.3403,-1.3562,-1.5193,-1.8933,-1.9907,-2.1684,-2.5581,-2.6228,-2.6386,-2.6386,-2.6386,-2.6386,-2.6386,-2.6386,-2.6386,-2.6386,-2.6386,-2.6386,-2.6386,-2.6386,-2.6386,-2.6386,-2.8061,-3.0053,-3.2048,-3.385,-3.49,-3.5497,-3.7345,-3.8263,-3.8574,-3.8574,-3.8574,-3.8574,-3.8574,-3.8574,-3.8574,-3.8574,-3.8574,-3.8574,-3.8574,-3.8574,-3.8574,2.1911,2.0183,1.8287,1.4822,1.4299,1.4299,1.4299,1.4245,1.417,1.4082,1.4014,1.3939,1.3851,1.3783,1.3722,1.3654,1.3593,1.3573,1.3445,1.1501,0.7238,0.0337,-0.0,-0.0,-0.0,-0.0,-0.0,-0.0,-0.0,-0.0,-0.0168,-0.5053,-0.7234,-0.6871,-1.1432,-1.3444,-1.3403,-1.3403,-1.3403,-1.3403,-1.3403,-1.3403,-1.3403,-1.3403,-1.3403,-1.3403,-1.3403,-1.3403,-1.3403,-1.3403,-1.3403,-1.3403,-1.3403,-1.3403,-1.3403,-1.3403,-1.3403,-1.3403,-1.3403,-1.3403,-1.3403,-1.3403,-1.3403,-1.3403,-1.3403,-1.3403,-1.3403,-1.3403,-1.3403,-1.3403,-1.3403,-1.3403,-1.3403,-1.3403,-1.4375,-1.6328,-1.942,-2.0878,-2.282,-2.6056,-2.6386,-2.6386,-2.6386,-2.6386,-2.6386,-2.6386,-2.6386,-2.6386,-2.6386,-2.6386,-2.6386,-2.6386,-2.6386,-2.6386,-2.6386,-2.8374,-3.0515,-3.2505,-3.4601,-3.6109,-3.7198,-3.8117,-3.8574,-3.8574,-3.8574,-3.8574,-3.8574,-3.8574,-3.8574,-3.8574,-3.8574,-3.8574,-3.8574,-3.8574,-3.8574,-3.8574]},{"header":{"parameterUnit":"m.s-1","parameterCategory":1,"la1":30.6,"la2":28.766,"lo1":-90.7593,"lo2":-88.6598,"dx":0.0162,"dy":0.0183,"nx":116,"ny":114,"refTime":"2023-01-29T06:00:00:Z","depth":0,"parameterNumber":3,"parameterNumberName":"V-component_of_WINDS"},"data":[0.0,0.0,0.0,0.0,0.0,0.0,0.0,0.0,0.0,0.0,0.0,0.0,0.0,0.0,0.0,0.0,0.0,0.0,0.0,0.0,0.0,0.0,0.0,0.0,0.0,0.0,0.0,0.0,0.0,0.0,0.0,0.0,0.0,0.0,0.0,0.0,0.0,0.0,0.0,0.0,0.0,0.0,0.0,0.0,0.0,0.0,0.0,0.0,0.0,0.0,0.0,0.0,0.0,0.0,0.0,0.0,0.0,0.0,0.0,0.0,0.0,0.0,0.0,0.0,0.0,0.0,0.0,0.0,0.0,0.0,0.0,0.0,0.0,0.0,0.0,0.0,0.0,0.0,0.0,0.0,0.0,0.0,0.0,0.0,0.0,0.0,0.0,0.0,0.0,0.0,0.0,0.0,0.0,0.0,0.0,0.0,0.0,0.0,0.0,0.0,0.0,0.0,0.0,0.0,0.0,0.0,0.0,0.0,0.0,0.0,0.0,0.0,0.0,0.0,0.0,0.0,0.0,0.0,0.0,0.0,0.0,0.0,0.0,0.0,0.0,0.0,0.0,0.0,0.0,0.0,0.0,0.0,0.0,0.0,0.0,0.0,0.0,0.0,0.0,0.0,0.0,0.0,0.0,0.0,0.0,0.0,0.0,0.0,0.0,0.0,0.0,0.0,0.0,0.0,0.0,0.0,0.0,0.0,0.0,0.0,0.0,0.0,0.0,0.0,0.0,0.0,0.0,0.0,0.0,0.0,0.0,0.0,0.0,0.0,0.0,0.0,0.0,0.0,0.0,0.0,0.0,0.0,0.0,0.0,0.0,0.0,0.0,0.0,0.0,0.0,0.0,0.0,0.0,0.0,0.0,0.0,0.0,0.0,0.0,0.0,0.0,0.0,0.0,0.0,0.0,0.0,0.0,0.0,0.0,0.0,0.0,0.0,0.0,0.0,0.0,0.0,0.0,0.0,0.0,0.0,0.0,0.0,0.0,0.0,0.0,0.0,0.0,0.0,0.0,0.0,0.0,0.0,0.0,0.0,0.0,0.0,0.0,0.0,0.0,0.0,0.0,0.0,0.0,0.0,0.0,0.0,0.0,0.0,0.0,0.0,0.0,0.0,0.0,0.0,0.0,0.0,0.0,0.0,0.0,0.0,0.0,0.0,0.0,0.0,0.0,0.0,0.0,0.0,0.0,0.0,0.0,0.0,0.0,0.0,0.0,0.0,0.0,0.0,0.0,0.0,0.0,0.0,0.0,0.0,0.0,0.0,0.0,0.0,0.0,0.0,0.0,0.0,0.0,0.0,0.0,0.0,0.0,0.0,0.0,0.0,0.0,0.0,0.0,0.0,0.0,0.0,0.0,0.0,0.0,0.0,0.0,0.0,0.0,0.0,0.0,0.0,0.0,0.0,0.0,0.0,0.0,0.0,0.0,0.0,0.0,0.0,0.0,0.0,0.0,0.0,0.0,0.0,0.0,0.0,0.0,0.0,0.0,0.0,0.0,0.0,0.0,0.0,0.0,0.0,0.0,0.0,0.0,0.0,0.0,0.0,0.0,0.0,0.0,0.0,0.0,0.0,0.0,0.0,0.0,0.0,0.0,0.0,0.0,0.0,0.0,0.0,0.0,0.0,0.0,0.0,0.0,0.0,0.0,0.0,0.0,0.0,0.0,0.0,0.0,0.0,0.0,0.0,0.0,0.0,0.0,0.0,0.0,0.0,0.0,0.0,0.0,0.0,0.0,0.0,0.0,0.0,0.0,0.0,0.0,0.0,0.0,0.0,0.0,0.0,0.0,0.0,0.0,0.0,0.0,0.0,0.0,0.0,0.0,0.0,0.0,0.0,0.0,0.0,0.0,0.0,0.0,0.0,0.0,0.0,0.0,0.0,0.0,0.0,0.0,0.0,0.0,0.0,0.0,0.0,0.0,0.0,0.0,0.0,0.0,0.0,0.0,0.0,0.0,0.0,0.0,0.0,0.0,0.0,0.0,0.0,0.0,0.0,0.0,0.0,0.0,0.0,0.0,0.0,0.0,0.0,0.0,0.0,0.0,0.0,0.0,0.0,0.0,0.0,0.0,0.0,0.0,0.0,0.0,0.0,0.0,0.0,0.0,0.0,0.0,0.0,0.0,0.0,0.0,0.0,0.0,0.0,0.0,0.0,0.0,0.0,0.0,0.0,0.0,0.0,0.0,0.0,0.0,0.0,0.0,0.0,0.0,0.0,0.0,0.0,0.0,0.0,0.0,0.0,0.0,0.0,0.0,0.0,0.0,0.0,0.0,0.0,0.0,0.0,0.0,0.0,0.0,0.0,0.0,0.0,0.0,0.0,0.0,0.0,0.0,0.0,0.0,0.0,0.0,0.0,0.0,0.0,0.0,0.0,0.0,0.0,0.0,0.0,0.0,0.0,0.0,0.0,0.0,0.0,0.0,0.0,0.0,0.0,0.0,0.0,0.0,0.0,0.0,0.0,0.0,0.0,0.0,0.0,0.0,0.0,0.0,0.0,0.0,0.0,0.0,0.0,0.0,0.0,0.0,0.0,0.0,0.0,0.0,0.0,0.0,0.0,0.0,0.0,0.0,0.0,0.0,0.0,0.0,0.0,0.0,0.0,0.0,0.0,0.0,0.0,0.0,0.0,0.0,0.0,0.0,0.0,0.0,0.0,0.0,0.0,0.0,0.0,0.0,0.0,0.0,0.0,0.0,0.0,0.0,0.0,0.0,0.0,0.0,0.0,0.0,0.0,0.0,0.0,0.0,0.0,0.0,0.0,0.0,0.0,0.0,0.0,0.0,0.0,0.0,0.0,0.0,0.0,0.0,0.0,0.0,0.0,0.0,0.0,0.0,0.0,0.0,0.0,0.0,0.0,0.0,0.0,0.0,0.0,0.0,0.0,0.0,0.0,0.0,0.0,0.0,0.0,0.0,0.0,0.0,0.0,0.0,0.0,0.0,0.0,0.0,0.0,0.0,0.0,0.0,0.0,0.0,0.0,0.0,0.0,0.0,0.0,0.0,0.0,0.0,0.0,0.0,0.0,0.0,0.0,0.0,0.0,0.0,0.0,0.0,0.0,0.0,0.0,0.0,0.0,0.0,0.0,0.0,0.0,0.0,0.0,0.0,0.0,0.0,0.0,0.0,0.0,0.0,0.0,0.0,0.0,0.0,0.0,0.0,0.0,0.0,0.0,0.0,0.0,0.0,0.0,0.0,0.0,0.0,0.0,0.0,0.0,0.0,0.0,0.0,0.0,0.0,0.0,0.0,0.0,0.0,0.0,0.0,0.0,0.0,0.0,0.0,0.0,0.0,0.0,0.0,0.0,0.0,0.0,0.0,0.0,0.0,0.0,0.0,0.0,0.0,0.0,0.0,0.0,0.0,0.0,0.0,0.0,0.0,0.0,0.0,0.0,0.0,0.0,0.0,0.0,0.0,0.0,0.0,0.0,0.0,0.0,0.0,0.0,0.0,0.0,0.0,0.0,0.0,0.0,0.0,0.0,0.0,0.0,0.0,0.0,0.0,0.0,0.0,0.0,0.0,0.0,0.0,0.0,0.0,0.0,0.0,0.0,0.0,0.0,0.0,0.0,0.0,0.0,0.0,0.0,0.0,0.0,0.0,0.0,0.0,0.0,0.0,0.0,0.0,0.0,0.0,0.0,0.0,0.0,0.0,0.0,0.0,0.0,0.0,0.0,0.0,0.0,0.0,0.0,0.0,0.0,0.0,0.0,0.0,0.0,0.0,0.0,0.0,0.0,0.0,0.0,0.0,0.0,0.0,0.0,0.0,0.0,0.0,0.0,0.0,0.0,0.0,0.0,0.0,0.0,0.0,0.0,0.0,0.0,0.0,0.0,0.0,0.0,0.0,0.0,0.0,0.0,0.0,0.0,0.0,0.0,0.0,0.0,0.0,0.0,0.0,0.0,0.0,0.0,0.0,0.0,0.0,0.0,0.0,0.0,0.0,0.0,0.0,0.0,0.0,0.0,0.0,0.0,0.0,0.0,0.0,0.0,0.0,0.0,0.0,0.0,0.0,0.0,0.0,0.0,0.0,0.0,0.0,0.0,0.0,0.0,0.0,0.0,0.0,0.0,0.0,0.0,0.0,0.0,0.0,0.0,0.0,0.0,0.0,0.0,0.0,0.0,0.0,0.0,0.0,0.0,0.0,0.0,0.0,0.0,0.0,0.0,0.0,0.0,0.0,0.0,0.0,0.0,0.0,0.0,0.0,0.0,0.0,0.0,0.0,0.0,0.0,0.0,0.0,0.0,0.0,0.0,0.0,0.0,0.0,0.0,0.0,0.0,0.0,0.0,0.0,0.0,0.0,0.0,0.0,0.0,0.0,0.0,0.0,0.0,0.0,0.0,0.0,0.0,0.0,0.0,0.0,0.0,0.0,0.0,0.0,0.0,0.0,0.0,0.0,0.0,0.0,0.0,0.0,0.0,0.0,0.0,0.0,0.0,0.0,0.0,0.0,0.0,0.0,0.0,0.0,0.0,0.0,0.0,0.0,0.0,0.0,0.0,0.0,0.0,0.0,0.0,0.0,0.0,0.0,0.0,0.0,0.0,0.0,0.0,0.0,0.0,0.0,0.0,0.0,0.0,0.0,0.0,0.0,0.0,0.0,0.0,0.0,0.0,0.0,0.0,0.0,0.0,0.0,0.0,0.0,0.0,0.0,0.0,0.0,0.0,0.0,0.0,0.0,0.0,0.0,0.0,0.0,0.0,0.0,0.0,0.0,0.0,0.0,0.0,0.0,0.0,0.0,0.0,0.0,0.0,0.0,0.0,0.0,0.0,0.0,0.0,0.0,0.0,0.0,0.0,0.0,0.0,0.0,0.0,0.0,0.0,0.0,0.0,0.0,0.0,0.0,0.0,0.0,0.0,0.0,0.0,0.0,0.0,0.0,0.0,0.0,0.0,0.0,0.0,0.0,0.0,0.0,0.0,0.0,0.0,0.0,0.0,0.0,0.0,0.0,0.0,0.0,0.0,0.0,0.0,0.0,0.0,0.0,0.0,0.0,0.0,0.0,0.0,0.0,0.0,0.0,0.0,0.0,0.0,0.0,0.0,0.0,0.0,0.0,0.0,0.0,0.0,0.0,0.0,0.0,0.0,0.0,0.0,0.0,0.0,0.0,0.0,0.0,0.0,0.0,0.0,0.0,0.0,0.0,0.0,0.0,0.0,0.0,0.0,0.0,0.0,0.0,0.0,0.0,0.0,0.0,0.0,0.0,0.0,0.0,0.0,0.0,0.0,0.0,0.0,0.0,0.0,0.0,0.0,0.0,0.0,0.0,0.0,0.0,0.0,0.0,0.0,0.0,0.0,0.0,0.0,0.0,0.0,0.0,0.0,0.0,0.0,0.0,0.0,0.0,0.0,0.0,0.0,0.0,0.0,0.0,0.0,0.0,0.0,0.0,0.0,0.0,0.0,0.0,0.0,0.0,0.0,0.0,0.0,0.0,0.0,0.0,0.0,0.0,0.0,0.0,0.0,0.0,0.0,0.0,0.0,0.0,0.0,0.0,0.0,0.0,0.0,0.0,0.0,0.0,0.0,0.0,0.0,0.0,0.0,0.0,0.0,0.0,0.0,0.0,0.0,0.0,0.0,0.0,0.0,0.0,0.0,0.0,0.0,0.0,0.0,0.0,0.0,0.0,0.0,0.0,0.0,0.0,0.0,0.0,0.0,0.0,0.0,0.0,0.0,0.0,0.0,0.0,0.0,0.0,0.0,0.0,0.0,0.0,0.0,0.0,0.0,0.0,0.0,0.0,0.0,0.0,0.0,0.0,0.0,0.0,0.0,0.0,0.0,0.0,0.0,0.0,0.0,0.0,0.0,0.0,0.0,0.0,0.0,0.0,0.0,0.0,0.0,0.0,0.0,0.0,0.0,0.0,0.0,0.0,0.0,0.0,0.0,0.0,0.0,0.0,0.0,0.0,0.0,0.0,0.0,0.0,0.0,0.0,0.0,0.0,0.0,0.0,0.0,0.0,0.0,0.0,0.0,0.0,0.0,0.0,0.0,0.0,0.0,0.0,0.0,0.0,0.0,0.0,0.0,0.0,0.0,0.0,0.0,0.0,0.0,0.0,0.0,0.0,0.0,-6.4481,0.0,0.0,0.0,0.0,0.0,0.0,0.0,0.0,0.0,0.0,0.0,0.0,0.0,0.0,0.0,0.0,0.0,0.0,0.0,0.0,0.0,0.0,0.0,0.0,0.0,0.0,0.0,0.0,0.0,0.0,0.0,0.0,0.0,0.0,0.0,0.0,0.0,0.0,0.0,0.0,0.0,0.0,0.0,0.0,0.0,0.0,0.0,0.0,0.0,0.0,0.0,0.0,0.0,0.0,0.0,0.0,0.0,0.0,0.0,0.0,0.0,0.0,0.0,0.0,0.0,0.0,0.0,0.0,0.0,0.0,0.0,0.0,0.0,0.0,0.0,0.0,0.0,0.0,0.0,0.0,0.0,0.0,0.0,0.0,0.0,0.0,0.0,0.0,0.0,0.0,0.0,0.0,0.0,0.0,0.0,0.0,0.0,0.0,0.0,0.0,0.0,0.0,0.0,0.0,0.0,0.0,0.0,0.0,0.0,0.0,0.0,0.0,0.0,0.0,0.0,0.0,-6.4332,0.0,0.0,0.0,0.0,0.0,0.0,0.0,0.0,0.0,0.0,0.0,0.0,0.0,0.0,0.0,0.0,0.0,0.0,0.0,0.0,0.0,0.0,0.0,0.0,0.0,0.0,0.0,0.0,0.0,0.0,0.0,0.0,0.0,0.0,0.0,0.0,0.0,0.0,0.0,0.0,0.0,0.0,0.0,0.0,0.0,0.0,0.0,0.0,0.0,0.0,0.0,0.0,0.0,0.0,0.0,0.0,0.0,0.0,0.0,0.0,0.0,0.0,0.0,0.0,0.0,0.0,0.0,0.0,0.0,0.0,0.0,0.0,0.0,0.0,0.0,0.0,0.0,0.0,0.0,0.0,0.0,0.0,0.0,0.0,0.0,0.0,0.0,0.0,0.0,0.0,0.0,0.0,0.0,0.0,0.0,0.0,0.0,0.0,0.0,0.0,0.0,0.0,0.0,0.0,0.0,0.0,0.0,0.0,-6.5897,-6.5897,-6.5897,-6.5897,-6.5897,-6.5872,-6.5155,-6.4875,-6.4807,-6.3764,0.0,0.0,0.0,0.0,0.0,0.0,0.0,0.0,0.0,0.0,0.0,0.0,0.0,0.0,0.0,0.0,0.0,0.0,0.0,0.0,0.0,0.0,0.0,0.0,0.0,0.0,0.0,0.0,0.0,0.0,0.0,0.0,0.0,0.0,0.0,0.0,0.0,0.0,0.0,0.0,0.0,0.0,0.0,0.0,0.0,0.0,0.0,0.0,0.0,0.0,0.0,0.0,0.0,0.0,0.0,0.0,0.0,0.0,0.0,0.0,0.0,0.0,0.0,0.0,0.0,0.0,0.0,0.0,0.0,0.0,0.0,0.0,0.0,0.0,0.0,0.0,0.0,0.0,0.0,0.0,0.0,0.0,0.0,0.0,0.0,0.0,-6.559,-6.5705,0.0,0.0,0.0,0.0,0.0,0.0,0.0,0.0,0.0,0.0,0.0,0.0,0.0,-6.5897,-6.5897,-6.5897,-6.5897,-6.5897,-6.5897,-6.5897,-6.5897,-6.5897,-6.5897,-6.5936,-6.6512,0.0,-6.4946,-6.5351,0.0,0.0,0.0,0.0,0.0,0.0,0.0,0.0,0.0,0.0,0.0,0.0,0.0,0.0,0.0,0.0,0.0,0.0,0.0,0.0,0.0,0.0,0.0,0.0,0.0,0.0,0.0,0.0,0.0,0.0,0.0,0.0,0.0,0.0,0.0,0.0,0.0,0.0,0.0,0.0,0.0,0.0,0.0,0.0,0.0,0.0,0.0,0.0,0.0,0.0,0.0,0.0,0.0,0.0,0.0,0.0,0.0,0.0,0.0,0.0,0.0,0.0,0.0,0.0,0.0,0.0,0.0,0.0,0.0,0.0,0.0,0.0,0.0,0.0,0.0,0.0,0.0,0.0,0.0,0.0,0.0,0.0,0.0,0.0,0.0,-6.5667,-6.5897,-6.5897,-6.5897,-6.5897,0.0,0.0,0.0,0.0,0.0,0.0,0.0,0.0,0.0,-6.5897,-6.5897,-6.5897,-6.5897,-6.5897,-6.5897,-6.5897,-6.5897,-6.5897,-6.5897,-6.6359,-6.6551,-6.6628,-6.7475,-6.7472,-6.6845,-6.6154,-6.6467,-6.7203,0.0,0.0,0.0,0.0,-6.77,-6.7667,0.0,0.0,0.0,0.0,0.0,0.0,0.0,0.0,0.0,0.0,0.0,0.0,0.0,0.0,0.0,-5.9354,0.0,0.0,0.0,0.0,0.0,0.0,0.0,0.0,0.0,0.0,0.0,0.0,0.0,0.0,0.0,0.0,0.0,0.0,0.0,0.0,0.0,0.0,0.0,0.0,0.0,0.0,0.0,0.0,0.0,0.0,0.0,0.0,0.0,0.0,0.0,0.0,0.0,0.0,0.0,0.0,0.0,0.0,0.0,0.0,0.0,0.0,0.0,0.0,0.0,0.0,0.0,0.0,0.0,0.0,0.0,0.0,0.0,0.0,0.0,0.0,0.0,-6.5897,-6.5897,-6.5897,-6.5897,-6.5897,0.0,0.0,0.0,0.0,0.0,0.0,-6.5897,-6.5897,-6.5897,-6.5897,-6.5897,-6.5897,-6.5897,-6.5897,-6.5897,-6.5897,-6.609,-6.6205,-6.6244,-6.7051,-6.7436,-6.7475,-6.8282,-6.8552,-6.8294,-6.7063,-6.8279,-7.073,-6.9134,-6.8532,-6.8446,-6.7911,-6.77,-6.7687,0.0,0.0,0.0,0.0,0.0,0.0,0.0,0.0,0.0,0.0,0.0,0.0,0.0,0.0,-5.8874,-5.9354,-5.9823,-6.0103,0.0,0.0,0.0,0.0,0.0,0.0,0.0,0.0,0.0,0.0,0.0,0.0,0.0,0.0,0.0,0.0,0.0,0.0,0.0,0.0,0.0,-6.1057,0.0,0.0,0.0,0.0,0.0,0.0,0.0,0.0,0.0,0.0,0.0,0.0,0.0,0.0,0.0,0.0,0.0,0.0,0.0,0.0,0.0,0.0,0.0,0.0,0.0,0.0,0.0,0.0,0.0,0.0,0.0,0.0,0.0,0.0,0.0,0.0,0.0,0.0,0.0,-6.5897,-6.5897,0.0,0.0,0.0,0.0,-6.5897,-6.5897,-6.5897,-6.5897,-6.5897,-6.5897,-6.5897,-6.5897,-6.5897,-6.5897,-6.5897,-6.5897,-6.5897,-6.6667,-6.7051,-6.7051,-6.7936,-6.8321,-6.8359,-6.8936,-6.8871,-6.8383,-6.8306,-6.9298,-7.0892,-7.0801,-7.0761,-7.047,-6.8461,-6.7704,-6.7687,0.0,0.0,0.0,0.0,0.0,0.0,0.0,0.0,0.0,0.0,0.0,0.0,0.0,-5.8418,-5.8549,-5.9319,-5.9559,-5.9792,-6.0103,0.0,0.0,0.0,0.0,0.0,0.0,0.0,0.0,0.0,0.0,0.0,0.0,0.0,0.0,0.0,0.0,0.0,0.0,0.0,0.0,-6.102,-6.1131,-6.1266,0.0,0.0,0.0,0.0,0.0,0.0,0.0,0.0,0.0,0.0,0.0,0.0,0.0,0.0,0.0,0.0,0.0,0.0,0.0,0.0,0.0,0.0,0.0,0.0,0.0,0.0,0.0,0.0,0.0,0.0,0.0,0.0,0.0,0.0,0.0,0.0,0.0,-6.5897,-6.5897,0.0,-6.5897,-6.5897,-6.5897,-6.5897,-6.5897,-6.5897,-6.5897,-6.5897,-6.5897,-6.5897,-6.5897,-6.5897,-6.5897,-6.5897,-6.6167,-6.6667,-6.6974,-6.7398,-6.7975,-6.8859,-6.9244,-6.9283,-7.0014,-7.0206,-6.9986,-6.9986,-7.0354,-7.0899,-7.0934,-7.008,-6.8747,-6.7996,-6.7686,-6.7687,0.0,0.0,0.0,0.0,0.0,0.0,0.0,0.0,0.0,0.0,0.0,-5.8632,-5.8503,-5.8186,-5.8326,-5.9103,-5.9284,-5.9592,-6.0074,0.0,0.0,0.0,0.0,0.0,0.0,0.0,0.0,0.0,0.0,0.0,0.0,0.0,0.0,0.0,0.0,0.0,0.0,0.0,0.0,-6.0935,-6.0973,-6.1131,-6.1354,0.0,0.0,0.0,0.0,0.0,0.0,0.0,0.0,0.0,0.0,0.0,0.0,0.0,0.0,0.0,0.0,0.0,0.0,0.0,0.0,0.0,0.0,0.0,0.0,0.0,0.0,0.0,0.0,0.0,0.0,0.0,0.0,0.0,0.0,0.0,-6.5897,-6.5897,-6.5897,-6.5897,-6.5897,-6.5897,-6.5897,-6.5897,-6.5897,-6.5897,-6.5897,-6.5897,-6.5897,-6.5897,-6.5897,-6.6013,-6.6282,-6.6282,-6.6705,-6.7552,-6.7821,-6.8282,-6.8859,-6.9706,-7.009,-7.0129,-7.0667,-7.0898,-7.0898,-7.0898,-7.0898,-7.0909,-7.0904,-6.9581,-6.7731,-6.7733,-6.7691,-6.7709,0.0,0.0,0.0,0.0,0.0,0.0,0.0,0.0,0.0,0.0,-5.9313,-5.8586,-5.8088,-5.8042,-5.8194,-5.8713,-5.9139,-5.9592,-6.0103,-6.0649,0.0,0.0,0.0,0.0,0.0,0.0,0.0,0.0,0.0,0.0,0.0,0.0,0.0,0.0,0.0,0.0,0.0,0.0,-6.0781,-6.0819,-6.0935,-6.0973,-6.1032,0.0,0.0,0.0,0.0,0.0,0.0,0.0,0.0,0.0,0.0,0.0,0.0,0.0,0.0,0.0,0.0,0.0,0.0,0.0,0.0,0.0,0.0,0.0,0.0,0.0,0.0,0.0,0.0,0.0,0.0,0.0,0.0,0.0,-6.5897,-6.5897,-6.5897,-6.5897,-6.5897,-6.5897,-6.5897,-6.5897,-6.5897,-6.5897,-6.5897,-6.5897,-6.5897,-6.5897,-6.5897,-6.5897,-6.5897,-6.632,-6.709,-6.7128,-6.759,-6.8475,-6.9321,-6.9706,-6.9744,-7.0552,-7.0898,-7.0898,-7.0898,-7.0898,-7.0898,-7.0898,-7.0898,-7.0909,-7.0904,-6.9603,-6.7797,-6.7791,-6.7746,-6.7725,0.0,0.0,0.0,0.0,0.0,0.0,0.0,0.0,0.0,0.0,-6.0789,-5.9965,-5.9441,-5.8837,-5.8835,-5.9625,-5.9855,-6.0103,-6.0597,0.0,0.0,0.0,0.0,0.0,0.0,0.0,0.0,0.0,0.0,0.0,0.0,0.0,0.0,0.0,0.0,0.0,0.0,0.0,-6.0781,-6.0781,-6.0819,-6.0896,-6.102,0.0,0.0,0.0,0.0,0.0,0.0,0.0,0.0,0.0,0.0,0.0,0.0,0.0,0.0,0.0,0.0,0.0,0.0,0.0,0.0,0.0,0.0,0.0,0.0,0.0,0.0,0.0,0.0,0.0,0.0,0.0,-6.5897,-6.5897,-6.5897,-6.5897,-6.5897,-6.5897,-6.5897,-6.5897,-6.5897,-6.5897,-6.5897,-6.5897,-6.5897,-6.5897,-6.5897,-6.5897,-6.5897,-6.5897,-6.6474,-6.6859,-6.709,-6.7744,-6.8475,-6.936,-6.959,-7.0014,-7.0591,-7.0783,-7.0898,-7.0898,-7.0898,-7.0898,-7.0898,-7.0898,-7.0898,-7.0909,-7.0904,-7.053,-7.0001,-7.0046,-6.9051,-6.7684,0.0,0.0,0.0,0.0,0.0,0.0,0.0,0.0,0.0,0.0,-6.1845,-6.098,-6.0468,-5.9719,-5.9591,-6.0578,-6.0294,-6.0311,-6.0757,0.0,0.0,0.0,0.0,0.0,0.0,0.0,0.0,0.0,0.0,0.0,0.0,0.0,0.0,0.0,0.0,0.0,0.0,-6.0781,-6.0781,-6.0781,-6.0781,-6.0858,-6.0935,-6.1358,-6.2043,-6.2756,-6.3193,-6.4336,-6.5586,-6.5586,0.0,0.0,0.0,0.0,0.0,0.0,0.0,0.0,0.0,0.0,0.0,0.0,0.0,0.0,0.0,0.0,0.0,0.0,0.0,0.0,0.0,0.0,0.0,0.0,-6.5897,-6.5897,-6.5897,-6.5897,-6.5897,-6.5897,-6.5897,-6.5897,-6.5897,-6.5897,-6.5897,-6.5897,-6.5897,-6.5897,-6.5897,-6.6205,-6.6397,-6.6397,-6.7205,-6.7821,-6.8205,-6.8706,-6.936,-7.0206,-7.0206,-7.0437,-7.0898,-7.0898,-7.0898,-7.0898,-7.0898,-7.0898,-7.0898,-7.0898,-7.0898,0.0,0.0,0.0,0.0,0.0,-6.9629,-6.9679,0.0,0.0,0.0,0.0,0.0,0.0,0.0,0.0,0.0,0.0,0.0,-6.1883,-6.145,-6.0621,-6.0492,-6.1429,-6.0762,-6.0453,0.0,0.0,0.0,0.0,0.0,0.0,0.0,0.0,0.0,0.0,0.0,0.0,0.0,0.0,0.0,0.0,0.0,0.0,-6.0781,-6.0781,-6.0781,-6.0819,-6.0896,-6.0935,-6.105,-6.1935,-6.2497,-6.2987,-6.3872,-6.4843,-6.5703,-6.5742,0.0,0.0,0.0,0.0,0.0,0.0,0.0,0.0,0.0,0.0,0.0,0.0,0.0,0.0,0.0,0.0,0.0,0.0,0.0,0.0,0.0,0.0,0.0,0.0,-6.5897,-6.5897,-6.5897,-6.5897,-6.5897,-6.5897,-6.5897,-6.5897,-6.5897,-6.5897,-6.5897,-6.5897,-6.5897,-6.5936,-6.6013,0.0,0.0,0.0,0.0,-6.8936,-6.9706,-6.9783,-7.0206,-7.0898,-7.0898,-7.0898,-7.0898,-7.0898,-7.0898,-7.0898,-7.0898,-7.0898,-7.0898,-7.0898,-7.1129,-7.1448,-7.1035,-7.1132,-7.1214,-6.9319,-7.0255,-7.2484,0.0,0.0,0.0,0.0,0.0,0.0,0.0,0.0,0.0,-6.4291,-6.3426,-6.2824,-6.2749,-6.1996,-6.1633,-6.194,-6.1824,-6.1464,0.0,0.0,0.0,0.0,0.0,0.0,0.0,0.0,0.0,0.0,0.0,0.0,0.0,0.0,0.0,0.0,0.0,0.0,-6.0781,-6.0781,-6.0781,-6.0858,-6.155,-6.1858,-6.1858,-6.205,-6.3075,-6.4401,-6.4766,-6.5541,-6.6445,-6.6601,-6.6758,-6.6875,-6.6836,0.0,0.0,0.0,0.0,0.0,0.0,0.0,0.0,0.0,0.0,0.0,0.0,0.0,0.0,0.0,0.0,0.0,0.0,0.0,0.0,-6.5897,-6.5897,-6.5897,-6.5897,-6.5897,-6.5897,-6.5897,-6.5897,-6.5897,-6.5897,-6.5897,-6.5897,-6.5897,-6.5897,-6.6167,-6.6821,-6.7013,-6.7398,-6.8129,-6.8975,-6.9513,-6.9706,-7.036,-7.0744,-7.0898,0.0,0.0,-7.0898,-7.0898,-7.0898,-7.0898,-7.0898,-7.0898,-7.0898,-7.0909,-7.2514,-7.4745,-7.2001,-7.2579,-7.4937,-7.4553,-7.3601,-7.2503,0.0,0.0,0.0,0.0,0.0,0.0,0.0,0.0,0.0,0.0,-6.4351,-6.4086,-6.4086,-6.3365,-6.2826,-6.2694,-6.1935,0.0,0.0,0.0,0.0,0.0,0.0,0.0,0.0,0.0,0.0,0.0,0.0,0.0,0.0,0.0,0.0,0.0,0.0,-6.0781,-6.0819,-6.1281,-6.1435,-6.1512,-6.2358,-6.2974,-6.3358,-6.3358,-6.3935,-6.4894,-6.5528,-6.6117,-6.664,-6.6836,-6.6914,-6.6914,-6.6914,-6.6836,-6.6719,0.0,0.0,0.0,0.0,0.0,0.0,0.0,0.0,0.0,0.0,0.0,0.0,0.0,0.0,-6.5897,-6.5897,0.0,-6.5897,-6.5897,-6.5897,-6.5897,-6.5897,-6.5897,-6.5897,-6.5897,-6.5897,-6.5897,-6.5897,-6.5897,-6.5897,-6.5897,-6.6282,-6.6667,-6.709,-6.7936,-6.859,-6.9052,-6.986,-7.0283,-7.0283,-7.0706,-7.0898,-7.0898,-7.0898,-7.0898,-7.0898,-7.0898,-7.0898,-7.0937,-7.136,-7.1552,-7.1591,-7.2011,-7.3214,-7.467,-7.3801,-7.4485,-7.5852,-7.4676,-7.3513,-7.2482,0.0,0.0,0.0,0.0,0.0,0.0,0.0,0.0,0.0,0.0,0.0,-6.5099,-6.5099,-6.4489,-6.3838,0.0,0.0,0.0,0.0,0.0,0.0,0.0,0.0,0.0,0.0,0.0,0.0,0.0,0.0,0.0,0.0,0.0,0.0,-6.0819,-6.0973,-6.105,-6.1089,-6.1973,-6.232,-6.2397,-6.3205,-6.3974,-6.4628,-6.4782,-6.4897,-6.5153,-6.6076,-6.6454,-6.6594,-6.6835,-6.6914,-6.6914,-6.6914,-6.6906,-6.6878,-6.6644,-6.6594,0.0,0.0,0.0,0.0,0.0,0.0,0.0,0.0,-6.5897,-6.5897,-6.5897,-6.5897,-6.5897,-6.5897,-6.5897,-6.5897,-6.5897,-6.5897,-6.5897,-6.5897,-6.5897,-6.5897,-6.5897,-6.5897,-6.5897,-6.5897,-6.6051,-6.6128,-6.6128,-6.6898,-6.7436,-6.759,-6.8936,-6.9783,-6.9937,-7.0552,-7.0898,-7.0898,-7.0898,-7.0898,-7.0898,-7.0898,-7.0898,-7.0898,-7.0898,-7.0975,-7.1206,-7.2052,-7.2447,-7.2409,-7.3208,-7.3417,-7.346,-7.4757,-7.5338,-7.5091,-7.3175,-7.2495,-7.2473,0.0,0.0,0.0,0.0,0.0,0.0,0.0,0.0,0.0,0.0,0.0,0.0,0.0,0.0,0.0,0.0,0.0,0.0,0.0,0.0,0.0,0.0,0.0,0.0,0.0,0.0,0.0,0.0,0.0,0.0,0.0,0.0,-6.0781,-6.0819,-6.1589,-6.1935,-6.2012,-6.282,-6.3166,-6.3243,-6.4128,-6.4512,-6.4666,-6.5474,-6.5743,-6.582,-6.6269,-6.64,-6.6478,-6.6787,-6.6914,-6.6914,-6.6914,-6.6907,-6.6869,-6.6676,-6.6534,-6.6361,-6.6183,-6.6128,-6.6112,-6.6109,-6.6102,-6.6051,0.0,-6.5897,-6.5897,-6.5897,-6.5897,-6.5897,-6.5897,-6.5897,-6.5897,-6.5897,-6.5897,-6.5897,-6.5897,-6.5897,-6.5897,-6.5897,-6.5897,-6.5897,-6.5897,-6.6551,-6.6974,-6.6974,-6.7782,-6.859,-6.936,-6.959,-7.0014,-7.0744,-7.086,-7.0898,-7.0898,-7.0898,-7.0898,-7.0898,-7.0898,-7.0898,-7.0898,-7.0898,-7.1321,-7.2091,-7.2976,-7.3231,-7.3028,-7.3375,-7.3155,-7.2623,-7.2828,-7.2857,-7.2832,-7.2609,-7.2532,-7.25,0.0,0.0,0.0,0.0,0.0,0.0,0.0,0.0,0.0,0.0,0.0,0.0,0.0,0.0,0.0,0.0,0.0,0.0,0.0,0.0,0.0,0.0,0.0,0.0,0.0,0.0,0.0,0.0,0.0,0.0,0.0,-6.205,-6.2243,-6.2281,-6.2627,-6.2781,-6.2858,-6.3705,-6.4051,-6.4128,-6.5013,-6.5359,-6.5397,-6.5743,-6.5936,-6.6051,-6.6307,-6.6419,0.0,0.0,-6.6914,-6.6914,-6.6914,-6.6902,-6.6846,-6.6654,-6.6576,-6.6513,-6.642,-6.6244,-6.6129,-6.626,-6.6167,-6.6051,-6.5936,-6.5897,-6.5897,-6.5897,-6.5897,-6.5897,-6.5897,-6.5897,-6.5897,-6.5897,-6.5897,-6.5897,-6.5897,-6.5897,-6.5897,-6.5897,-6.632,-6.659,-6.659,-6.6898,-6.7321,-6.7821,-6.8667,-6.9321,-6.9667,-7.0129,-7.0552,-7.0898,-7.0898,-7.0898,-7.0898,-7.0898,-7.0898,-7.0898,-7.0898,-7.0898,-7.0937,-7.1437,-7.2399,-7.3668,-7.3737,-7.393,-7.4254,-7.4044,-7.3801,-7.3474,-7.277,-7.2502,-7.2502,-7.2502,-7.2465,-7.2496,0.0,0.0,0.0,0.0,0.0,0.0,0.0,0.0,0.0,0.0,0.0,0.0,0.0,0.0,0.0,0.0,0.0,0.0,0.0,0.0,0.0,0.0,0.0,0.0,0.0,0.0,0.0,0.0,0.0,-6.2435,-6.2435,-6.3051,-6.332,-6.332,-6.3551,-6.3666,-6.3743,-6.4589,-6.4974,-6.5013,-6.5628,-6.5897,-6.5897,-6.5936,-6.6013,-6.6128,-6.6346,-6.6379,0.0,0.0,-6.679,-6.6777,-6.6777,-6.6774,-6.6714,-6.6511,-6.6461,-6.6423,-6.6538,-6.6337,-6.6157,-6.6345,-6.6242,-6.6051,-6.5936,-6.5897,-6.5897,-6.5897,-6.5897,-6.5897,-6.5897,-6.5897,-6.5897,-6.5897,-6.5897,-6.5897,-6.5897,-6.5897,-6.5974,-6.6205,-6.6744,-6.7282,-6.7782,-6.7821,-6.809,-6.8706,-6.9552,-7.0014,-7.0014,-7.0591,-7.0898,-7.0898,-7.0898,-7.0898,-7.0898,-7.0898,-7.0898,-7.0898,-7.0898,-7.1014,-7.1283,-7.2399,-7.3457,-7.449,-7.4278,-7.4372,-7.4629,-7.4356,-7.4085,-7.3729,-7.2834,-7.2496,-7.2496,-7.2496,-7.2496,-7.2496,0.0,0.0,0.0,0.0,0.0,0.0,0.0,0.0,0.0,0.0,0.0,0.0,0.0,0.0,0.0,0.0,0.0,0.0,0.0,0.0,0.0,0.0,0.0,0.0,0.0,0.0,0.0,0.0,-6.3243,-6.3281,-6.3281,-6.3281,-6.332,-6.3358,-6.4166,-6.4551,-6.4628,-6.5474,-6.5859,-6.5859,-6.5897,-6.5897,-6.5897,-6.6051,-6.609,-6.6128,-6.6346,0.0,0.0,0.0,-6.6535,-6.6399,-6.6399,-6.6426,-6.6383,-6.6167,-6.6013,-6.5974,-6.6346,-6.6239,-6.6165,-6.6352,-6.623,-6.6051,-6.5936,-6.5897,-6.5897,-6.5897,-6.5897,-6.5897,-6.5897,-6.5897,-6.5897,-6.5897,-6.5897,-6.5897,-6.5897,-6.5897,-6.6205,-6.6974,-6.709,-6.7744,-6.9475,-6.9629,-6.9629,-6.9667,-7.0398,-7.086,-7.086,-7.0898,-7.0898,-7.0898,-7.0898,-7.0898,-7.0898,-7.0898,-7.0898,-7.0898,-7.0898,-7.1321,-7.2206,-7.386,-7.4382,-7.3982,-7.4709,-7.4472,-7.3529,-7.4088,-7.3639,-7.259,-7.2496,-7.2496,-7.2496,-7.2496,-7.2496,-7.2496,0.0,0.0,0.0,0.0,0.0,0.0,0.0,0.0,0.0,0.0,0.0,0.0,0.0,0.0,0.0,0.0,0.0,0.0,0.0,0.0,0.0,0.0,0.0,0.0,0.0,0.0,0.0,-6.332,-6.3897,-6.4166,-6.4166,-6.4743,-6.5013,-6.5051,-6.532,-6.5474,-6.5474,-6.5782,-6.5897,-6.5897,-6.5897,-6.5897,-6.5897,-6.6051,-6.6108,-6.6135,0.0,0.0,0.0,0.0,0.0,-6.6415,-6.6415,-6.6415,-6.6372,-6.6165,-6.6013,-6.5936,-6.6128,-6.6097,-6.6013,-6.6178,-6.609,-6.5936,-6.5897,-6.5897,-6.5897,-6.5897,-6.5897,-6.5897,-6.5897,-6.5897,-6.5897,-6.5897,-6.5897,-6.5897,-6.5897,-6.6359,-6.6782,-6.7051,-6.8129,-6.9052,-6.9629,-6.9706,-6.9937,-7.0475,-7.0744,-7.0898,-7.0898,-7.0898,-7.0898,-7.0898,-7.0898,-7.0898,-7.0898,-7.0898,-7.0898,-7.0898,-7.1475,-7.2514,-7.386,-7.4089,-7.4354,-7.4673,-7.4148,-7.3832,-7.3578,-7.3256,-7.2834,-7.2496,-7.2496,-7.2496,-7.2496,-7.2496,-7.2496,-7.2496,0.0,0.0,0.0,0.0,0.0,0.0,0.0,0.0,0.0,0.0,0.0,0.0,0.0,0.0,0.0,0.0,0.0,0.0,0.0,0.0,0.0,0.0,0.0,0.0,0.0,0.0,-6.4359,-6.4282,-6.4859,-6.5089,-6.5089,-6.5628,-6.5897,-6.5897,-6.5897,-6.5897,-6.5897,-6.5897,-6.5936,-6.5974,-6.5974,-6.6013,-6.6063,-6.6167,-6.6225,0.0,0.0,0.0,0.0,0.0,-6.6269,-6.623,-6.623,-6.623,-6.6205,-6.6051,-6.5974,-6.5936,-6.6051,-6.5974,-6.5936,-6.6051,-6.5974,-6.5897,-6.5897,-6.5897,-6.5897,-6.5897,-6.5897,-6.5897,-6.5897,-6.5897,-6.5897,-6.5897,-6.5897,-6.6013,-6.6282,-6.6782,-6.7321,-6.7975,-6.9013,-6.9821,-7.009,-7.0129,-7.036,-7.086,-7.0898,-7.0898,-7.0898,-7.0898,-7.0898,-7.0898,-7.0898,-7.0898,-7.0898,-7.0898,-7.1052,-7.136,-7.2332,-7.3384,-7.4389,-7.4178,-7.4216,-7.4468,-7.3747,-7.3364,-7.3252,-7.2723,-7.2496,-7.2496,-7.2496,-7.2496,-7.2496,-7.2496,-7.2496,-7.2496,0.0,0.0,0.0,0.0,0.0,0.0,0.0,0.0,0.0,0.0,0.0,0.0,0.0,0.0,0.0,0.0,0.0,0.0,0.0,0.0,0.0,0.0,0.0,0.0,0.0,-6.6396,-6.6319,-6.6101,-6.6115,-6.6051,-6.5936,-6.5936,-6.5936,-6.5936,-6.5936,-6.5936,-6.5936,-6.5936,-6.5974,-6.6115,-6.614,-6.6242,-6.6399,-6.6382,0.0,0.0,0.0,0.0,0.0,-6.609,-6.6013,-6.5897,-6.5897,-6.5936,-6.5897,-6.5897,-6.5897,-6.5936,-6.6051,-6.5974,-6.5936,-6.6051,-6.5974,-6.5897,-6.5897,-6.5897,-6.5897,-6.5897,-6.5897,-6.5897,-6.5897,-6.5897,-6.5897,-6.5897,-6.5936,-6.6244,-6.6974,-6.7167,-6.7859,-6.9513,-6.9744,-7.0052,-7.0821,-7.0898,-7.0898,-7.0898,0.0,-7.0898,-7.0898,-7.0898,-7.0898,-7.0898,-7.0898,-7.0898,-7.0898,-7.0937,-7.1437,-7.2294,-7.339,-7.3908,-7.3912,-7.4165,-7.3934,-7.3391,-7.3391,-7.305,-7.2496,-7.2496,-7.2496,-7.2496,-7.2496,-7.2496,-7.2496,-7.2496,-7.2496,-7.2496,0.0,0.0,0.0,0.0,0.0,0.0,0.0,0.0,0.0,0.0,0.0,0.0,0.0,0.0,0.0,0.0,0.0,0.0,0.0,0.0,0.0,0.0,0.0,0.0,0.0,0.0,0.0,0.0,0.0,-6.6307,-6.6269,-6.6269,-6.6269,-6.6269,-6.6269,-6.6269,-6.6269,-6.6269,-6.6307,-6.6294,0.0,-6.6361,-6.6422,0.0,0.0,0.0,0.0,0.0,-6.5936,-6.5936,-6.5974,-6.609,-6.623,-6.6269,-6.6269,-6.609,-6.6051,-6.6013,-6.5974,-6.5936,-6.5897,-6.5936,-6.5936,-6.5897,-6.5897,-6.5897,-6.5897,-6.5897,-6.5897,-6.5897,-6.5897,-6.5897,-6.5897,-6.5897,-6.6397,-6.6859,-6.7051,-6.8205,-6.9206,-6.9667,-7.0244,-7.0667,-7.0898,-7.0898,-7.0898,0.0,-7.0898,-7.0898,-7.0898,-7.0898,-7.0898,-7.0898,-7.0898,-7.0898,-7.0898,-7.1552,-7.2409,-7.3471,-7.3753,-7.403,-7.4203,-7.3775,-7.3541,-7.3391,-7.2943,-7.263,-7.2496,-7.2496,-7.2496,-7.2496,-7.2496,-7.2496,-7.2496,-7.2496,-7.2496,-7.2496,0.0,0.0,0.0,0.0,0.0,0.0,0.0,0.0,0.0,0.0,0.0,0.0,0.0,0.0,0.0,0.0,0.0,0.0,0.0,0.0,0.0,0.0,0.0,0.0,0.0,0.0,0.0,0.0,0.0,0.0,0.0,-6.6419,-6.6419,-6.6419,-6.6419,-6.6419,-6.6419,-6.6419,0.0,0.0,0.0,0.0,0.0,0.0,0.0,0.0,0.0,0.0,-6.5986,-6.6105,-6.6187,-6.6264,-6.638,-6.632,-6.6256,-6.614,-6.6044,-6.5974,-6.5897,-6.5897,-6.5897,-6.5897,-6.5897,-6.5897,-6.5897,-6.5897,-6.5808,-6.5597,-6.5755,-6.5808,-6.5569,-6.5717,-6.5897,-6.5897,-6.659,-6.7244,-6.7628,-6.8821,-6.9821,-7.0167,-7.0629,-7.0898,-7.0898,-7.0898,-7.0898,-7.0898,-7.0898,-7.0898,-7.0898,-7.0898,-7.0898,-7.0898,-7.0898,-7.0969,-7.1099,-7.2326,-7.3132,-7.3535,-7.3636,-7.3753,-7.3888,-7.3275,-7.2997,-7.2997,0.0,-7.2496,-7.2496,-7.2496,-7.2496,-7.2496,-7.2496,-7.2496,-7.2496,-7.2496,-7.2496,-7.2496,0.0,0.0,0.0,0.0,0.0,0.0,0.0,0.0,0.0,0.0,0.0,0.0,0.0,0.0,0.0,0.0,0.0,0.0,0.0,0.0,0.0,0.0,0.0,0.0,0.0,0.0,0.0,0.0,0.0,0.0,0.0,0.0,0.0,0.0,0.0,0.0,0.0,0.0,0.0,0.0,0.0,0.0,0.0,0.0,0.0,0.0,0.0,0.0,-6.6112,-6.6338,-6.64,-6.6436,-6.6436,-6.6322,-6.6165,-6.6087,-6.6024,-6.5897,-6.5897,-6.5897,-6.5897,-6.5897,-6.5897,-6.5897,-6.5897,-6.5833,-6.569,-6.5291,-6.5542,-6.569,-6.5291,-6.5569,-6.5936,-6.6051,-6.6744,-6.759,-6.8436,-6.9321,-7.0129,-7.0821,-7.0898,-7.0898,-7.0898,-7.0898,-7.0898,-7.0898,-7.0898,-7.0898,-7.0898,-7.0898,-7.0937,-7.1052,-7.0997,-7.1176,-7.1624,-7.3074,-7.3533,-7.3025,-7.3266,-7.3341,-7.3238,-7.2742,-7.2496,-7.2496,-7.2496,-7.2496,-7.2496,-7.2496,-7.2496,-7.2496,-7.2496,-7.2496,-7.2496,-7.2496,-7.2496,-7.2496,0.0,0.0,0.0,0.0,0.0,0.0,0.0,0.0,0.0,0.0,0.0,0.0,0.0,0.0,0.0,0.0,0.0,0.0,0.0,0.0,0.0,0.0,0.0,0.0,0.0,0.0,0.0,0.0,0.0,0.0,0.0,0.0,0.0,0.0,0.0,0.0,0.0,0.0,0.0,0.0,0.0,0.0,0.0,0.0,0.0,0.0,0.0,0.0,0.0,0.0,-6.6489,-6.6592,-6.6592,-6.6568,-6.6444,-6.6174,-6.6088,-6.6051,-6.5936,-6.5897,-6.5897,-6.5897,-6.5897,-6.5897,-6.5897,-6.5569,-6.5321,-6.569,-6.5475,-6.5321,-6.569,-6.5833,-6.6128,-6.6782,-6.7628,-6.8475,-6.936,-7.0167,-7.0744,-7.0898,-7.0898,-7.0898,-7.0898,-7.0898,-7.0898,0.0,-7.0898,-7.0898,-7.0898,-7.0898,-7.1245,-7.1937,-7.1497,-7.1956,-7.3451,-7.3227,-7.3213,-7.3317,-7.3367,-7.3119,-7.263,-7.2553,-7.2496,-7.2496,-7.2496,0.0,-7.2496,-7.2496,-7.2496,-7.2496,-7.2496,-7.2496,-7.2496,-7.2496,-7.2496,-7.2496,0.0,0.0,0.0,0.0,0.0,0.0,0.0,0.0,0.0,0.0,0.0,0.0,0.0,0.0,0.0,0.0,0.0,0.0,0.0,0.0,0.0,0.0,0.0,0.0,0.0,0.0,-6.6914,-6.6914,0.0,0.0,0.0,-6.6914,-6.6914,-6.6914,0.0,0.0,0.0,0.0,0.0,0.0,0.0,0.0,0.0,0.0,0.0,0.0,0.0,0.0,0.0,0.0,-6.6341,-6.6516,-6.656,-6.6538,-6.6461,-6.6167,-6.6051,-6.5974,-6.5897,-6.5897,-6.5897,-6.5897,-6.5897,-6.5897,-6.5897,-6.569,-6.5513,-6.5475,-6.5513,-6.5513,-6.5475,-6.5475,-6.5838,-6.691,-6.7582,-6.8369,-6.9525,-7.0398,-7.0898,-7.0898,-7.0898,-7.0898,-7.0898,-7.0898,-7.0898,-7.0898,-7.0898,-7.0898,-7.0898,-7.1321,-7.1622,-7.1727,-7.2334,-7.2776,-7.2967,-7.3108,-7.3131,-7.2943,-7.2943,-7.2761,-7.2496,-7.2496,-7.2496,-7.2496,-7.2496,-7.2496,-7.2496,-7.2496,-7.2496,-7.2496,-7.2496,-7.2496,-7.2496,-7.2496,-7.2496,-7.2496,0.0,0.0,0.0,0.0,0.0,0.0,0.0,0.0,0.0,0.0,0.0,0.0,0.0,0.0,0.0,0.0,0.0,0.0,0.0,0.0,0.0,0.0,0.0,0.0,0.0,0.0,0.0,-6.6914,-6.6914,0.0,0.0,0.0,0.0,0.0,-6.6914,-6.6914,-6.6914,0.0,0.0,0.0,0.0,-6.6912,0.0,0.0,0.0,0.0,0.0,0.0,-6.6051,-6.609,-6.6221,-6.6367,-6.6453,-6.6423,-6.6307,-6.609,-6.5974,-6.5897,-6.5897,-6.5897,-6.5897,-6.5897,-6.5897,-6.5897,-6.5897,-6.5755,-6.5513,-6.5161,-6.5261,-6.5329,-6.5003,-6.4932,-6.541,-6.6816,-6.7254,-6.7992,-6.9577,-7.0326,-7.0777,-7.0898,-7.0898,-7.0898,-7.0898,-7.0898,-7.0898,-7.0898,-7.0898,-7.0975,-7.1168,-7.1699,-7.1981,-7.1852,-7.3076,-7.3292,-7.2423,-7.3056,-7.3066,-7.2496,-7.2496,-7.2496,-7.2496,-7.2496,-7.2496,-7.2496,-7.2496,-7.2496,0.0,-7.2496,-7.2496,-7.2496,-7.2496,-7.2496,-7.2496,-7.2496,-7.2496,-7.2496,0.0,0.0,0.0,0.0,0.0,0.0,0.0,0.0,0.0,0.0,0.0,0.0,0.0,0.0,0.0,0.0,0.0,0.0,0.0,0.0,0.0,0.0,0.0,0.0,0.0,0.0,0.0,-6.6914,-6.6914,0.0,0.0,0.0,0.0,0.0,0.0,-6.6914,-6.6914,-6.6914,0.0,0.0,0.0,0.0,0.0,0.0,0.0,0.0,0.0,-6.5897,-6.5936,-6.6051,-6.6101,-6.615,-6.6153,-6.6128,-6.609,-6.5936,-6.5897,-6.5897,-6.5897,-6.5897,-6.5897,-6.5897,-6.5897,-6.5897,-6.5897,-6.5168,-6.4626,-6.5035,-6.4407,-6.3975,-6.437,-6.4444,-6.501,-6.656,-6.6862,-6.7618,-6.9752,-7.0124,-7.0362,-7.0871,-7.0898,-7.0898,-7.0898,-7.0898,-7.0898,-7.0898,-7.0898,-7.1245,-7.2052,-7.1657,-7.2078,-7.3603,-7.3303,-7.3124,-7.328,-7.3354,-7.3066,-7.2496,-7.2496,-7.2496,-7.2496,-7.2496,-7.2496,-7.2496,-7.2496,-7.2496,0.0,-7.2496,-7.2496,-7.2496,-7.2496,-7.2496,-7.2496,-7.2496,-7.2496,-7.2496,0.0,0.0,0.0,0.0,0.0,0.0,0.0,0.0,0.0,0.0,0.0,0.0,0.0,0.0,0.0,0.0,0.0,0.0,0.0,0.0,0.0,0.0,0.0,0.0,0.0,0.0,-6.6914,-6.6914,-6.6914,0.0,0.0,0.0,0.0,0.0,0.0,-6.6914,-6.6914,-6.6914,0.0,0.0,0.0,0.0,0.0,0.0,0.0,0.0,0.0,0.0,-6.5897,-6.5936,-6.5974,-6.5974,-6.5974,-6.5974,-6.5974,-6.5897,-6.5897,-6.5897,-6.5897,-6.5897,-6.5897,-6.5897,-6.5897,-6.5808,-6.5475,-6.5099,-6.4799,-6.4696,-6.437,-6.4138,-6.4332,-6.4512,-6.5144,-6.6557,-6.6954,-6.783,-6.9801,-7.0095,-7.0298,-7.0843,-7.0898,-7.0898,-7.0898,-7.0898,-7.0898,-7.0898,-7.1398,-7.2052,-7.2937,-7.2754,-7.2864,-7.3341,-7.3624,-7.3642,-7.3391,-7.305,-7.2742,-7.2496,-7.2496,-7.2496,-7.2496,-7.2496,-7.2496,-7.2496,-7.2496,-7.2496,0.0,-7.2496,-7.2496,-7.2496,-7.2496,-7.2496,-7.2496,-7.2496,-7.2496,-7.2496,0.0,0.0,0.0,0.0,0.0,0.0,0.0,0.0,0.0,0.0,0.0,0.0,0.0,0.0,0.0,0.0,0.0,0.0,0.0,0.0,0.0,0.0,0.0,0.0,0.0,0.0,0.0,-6.6914,-6.6914,-6.6914,0.0,0.0,-6.6914,-6.6914,0.0,0.0,0.0,0.0,0.0,0.0,0.0,0.0,0.0,0.0,0.0,0.0,0.0,0.0,0.0,0.0,0.0,-6.5897,-6.5897,-6.5897,0.0,-6.5897,-6.5897,-6.5897,-6.5897,-6.5897,-6.5897,-6.5897,-6.5897,-6.5781,-6.523,-6.5003,-6.4731,-6.4255,-6.4019,-6.3934,-6.3934,-6.4264,-6.4985,-6.6175,-6.676,-6.7635,-6.9398,-6.9626,-6.9811,-7.0362,-7.0593,-7.0652,-7.0652,-7.0805,-7.1014,-7.1283,-7.186,-7.2515,-7.3303,-7.3545,-7.3556,-7.3388,-7.3815,-7.3747,-7.3119,-7.2889,-7.2686,-7.2496,-7.2496,-7.2496,-7.2496,-7.2496,-7.2496,-7.2496,-7.2496,-7.2496,0.0,-7.2496,-7.2496,-7.2496,-7.2496,-7.2496,-7.2496,-7.2496,-7.2496,-7.2496,0.0,0.0,0.0,0.0,0.0,0.0,0.0,0.0,0.0,0.0,0.0,0.0,0.0,0.0,0.0,0.0,0.0,0.0,0.0,0.0,0.0,0.0,0.0,0.0,0.0,0.0,0.0,0.0,0.0,0.0,-6.6914,-6.6914,-6.6914,-6.6914,0.0,0.0,0.0,0.0,0.0,0.0,0.0,0.0,0.0,0.0,0.0,0.0,0.0,0.0,0.0,0.0,0.0,0.0,0.0,0.0,0.0,0.0,-6.5897,-6.5897,-6.5897,-6.5897,-6.5897,-6.5897,-6.5897,-6.5781,-6.523,-6.4731,-6.4255,-6.3723,-6.3168,-6.2805,-6.2805,-6.3503,-6.4347,-6.5154,-6.5962,-6.6994,-6.8352,-6.8511,-6.8705,-6.9272,-6.9775,-7.0095,-7.0095,-7.0593,-7.1245,-7.2129,-7.2168,0.0,-7.2977,-7.3574,-7.403,-7.4255,-7.3699,-7.3119,-7.2496,-7.3066,-7.3066,-7.2496,-7.2496,-7.2496,-7.2496,-7.2496,-7.2496,-7.2496,-7.2496,-7.2496,0.0,-7.2496,-7.2496,-7.2496,-7.2496,-7.2496,-7.2496,-7.2496,-7.2496,-7.2496,0.0,0.0,0.0,0.0,0.0,0.0,0.0,0.0,0.0,0.0,0.0,0.0,0.0,0.0,0.0,0.0,0.0,0.0,0.0,0.0,0.0,0.0,0.0,0.0,0.0,0.0,0.0,0.0,0.0,0.0,0.0,0.0,-6.6914,-6.6914,-6.6914,-6.6914,0.0,0.0,0.0,0.0,0.0,0.0,0.0,0.0,0.0,0.0,0.0,0.0,0.0,0.0,0.0,0.0,0.0,0.0,0.0,0.0,0.0,-6.5897,-6.5897,-6.5897,-6.5897,-6.5897,-6.5597,-6.523,-6.4731,-6.4217,-6.368,-6.3168,-6.2953,-6.2805,-6.2805,-6.398,-6.5007,-6.5264,-6.6439,-6.762,-6.8379,-6.884,-6.9272,-6.9775,-7.033,-7.0652,0.0,0.0,-7.1898,-7.2168,-7.2901,-7.3445,-7.3612,-7.3576,-7.3625,-7.3699,-7.3492,-7.329,-7.3119,-7.2926,-7.2686,-7.2496,-7.2496,-7.2496,-7.2496,-7.2496,-7.2496,-7.2496,-7.2496,-7.2496,-7.2496,-7.2496,-7.2496,-7.2496,-7.2496,-7.2496,-7.2496,-7.2496,-7.2496,-7.2496,0.0,0.0,0.0,0.0,0.0,0.0,0.0,0.0,0.0,0.0,0.0,0.0,0.0,0.0,0.0,0.0,0.0,0.0,0.0,0.0,0.0,0.0,0.0,0.0,0.0,0.0,0.0,0.0,0.0,0.0,0.0,0.0,0.0,0.0,-6.6914,0.0,0.0,0.0,0.0,0.0,0.0,0.0,-6.609,0.0,0.0,0.0,0.0,0.0,0.0,0.0,0.0,0.0,0.0,0.0,0.0,0.0,0.0,-6.5897,-6.5897,-6.5755,-6.5597,-6.5597,-6.523,-6.4696,-6.4217,-6.385,-6.3453,-6.2867,-6.2805,-6.2915,-6.3246,-6.4383,-6.5411,-6.5705,-6.6843,-6.7915,-6.8416,-6.8614,-6.8978,-6.9701,-7.0095,0.0,0.0,-7.1487,-7.2011,-7.2318,-7.3108,-7.3609,-7.3711,-7.3494,-7.329,-7.3066,-7.3066,-7.3066,-7.3066,-7.2686,-7.2496,-7.2496,-7.2496,-7.2496,-7.2496,-7.2496,-7.2496,-7.2496,-7.2496,-7.2496,0.0,-7.2496,-7.2496,-7.2496,-7.2496,-7.2496,-7.2496,-7.2496,-7.2496,-7.2496,0.0,0.0,0.0,0.0,0.0,0.0,0.0,0.0,0.0,0.0,0.0,0.0,0.0,0.0,0.0,0.0,0.0,0.0,0.0,0.0,0.0,0.0,0.0,0.0,0.0,0.0,0.0,0.0,-6.6914,-6.6914,-6.6914,0.0,0.0,0.0,0.0,0.0,0.0,0.0,0.0,0.0,0.0,0.0,0.0,0.0,0.0,0.0,0.0,0.0,0.0,0.0,0.0,0.0,0.0,0.0,0.0,0.0,0.0,0.0,0.0,-6.5475,-6.5099,-6.5067,-6.4696,-6.4217,-6.3723,-6.3587,0.0,-6.2904,-6.2805,-6.3062,-6.3943,-6.4751,-6.5558,-6.6366,-6.7173,-6.7878,-6.8368,-6.8047,-6.8148,-6.919,-6.9313,0.0,-7.0796,-7.1139,-7.1703,-7.2579,-7.2879,-7.3154,-7.3404,-7.3341,-7.3066,-7.2496,-7.2496,-7.2496,-7.2496,-7.2496,-7.2496,-7.2496,-7.2496,-7.2496,-7.2496,-7.2496,-7.2496,0.0,-7.2496,-7.2496,0.0,-7.2496,-7.2496,-7.2496,-7.2496,-7.2496,-7.2496,-7.2496,-7.2496,-7.2496,0.0,0.0,0.0,0.0,0.0,0.0,0.0,0.0,0.0,0.0,0.0,0.0,0.0,0.0,0.0,0.0,0.0,0.0,0.0,0.0,0.0,0.0,0.0,0.0,0.0,0.0,0.0,-6.6914,-6.6914,-6.6914,-6.6914,-6.6914,0.0,0.0,0.0,0.0,0.0,0.0,0.0,0.0,0.0,0.0,0.0,0.0,0.0,0.0,-6.5897,-6.5897,0.0,0.0,0.0,0.0,0.0,0.0,0.0,0.0,-6.5597,0.0,0.0,0.0,-6.4997,-6.4661,-6.4178,-6.3766,0.0,-6.3308,-6.2917,-6.2805,-6.2805,-6.3062,-6.3943,-6.4751,-6.5558,-6.6366,-6.7173,-6.7704,-6.7863,-6.8148,0.0,-6.9231,-6.9313,-6.962,-7.0498,-7.1253,-7.2006,-7.2838,-7.3146,-7.3317,-7.3391,-7.2943,-7.263,-7.2496,-7.2496,-7.2496,-7.2496,-7.2496,-7.2496,-7.2496,-7.2496,-7.2496,-7.2496,-7.2496,-7.2496,-7.2496,-7.2496,0.0,-7.2496,-7.2496,-7.2496,-7.2496,-7.2496,-7.2496,-7.2496,-7.2496,-7.2496,-7.2496,0.0,0.0,0.0,0.0,0.0,0.0,0.0,0.0,0.0,0.0,0.0,0.0,0.0,0.0,0.0,0.0,0.0,0.0,0.0,0.0,0.0,0.0,0.0,0.0,0.0,0.0,0.0,0.0,0.0,-6.6914,0.0,0.0,0.0,0.0,0.0,0.0,0.0,0.0,0.0,0.0,-6.6013,0.0,0.0,0.0,0.0,0.0,-6.5897,-6.5897,0.0,-6.5897,-6.5897,-6.5897,0.0,0.0,0.0,0.0,-6.5321,0.0,-6.4554,-6.4407,-6.437,-6.4099,-6.3637,-6.3262,-6.3262,0.0,-6.2805,-6.2805,-6.2805,-6.3209,-6.442,-6.5188,-6.5952,-6.6896,-6.762,-6.7982,-6.7741,-6.8161,-6.8614,-6.8891,-6.8935,-6.9359,0.0,-7.1056,-7.1704,-7.2529,-7.2843,-7.2997,-7.2997,-7.2686,-7.2496,-7.2496,-7.2496,-7.2496,-7.2496,-7.2496,-7.2496,-7.2496,-7.2496,-7.2496,-7.2496,-7.2496,-7.2496,-7.2496,-7.2496,0.0,-7.2496,-7.2496,-7.2496,-7.2496,-7.2496,-7.2496,-7.2496,-7.2496,-7.2496,-7.2496,0.0,0.0,0.0,0.0,0.0,0.0,0.0,0.0,0.0,0.0,0.0,0.0,0.0,0.0,0.0,0.0,0.0,0.0,0.0,0.0,0.0,0.0,0.0,0.0,0.0,0.0,0.0,0.0,0.0,0.0,0.0,0.0,0.0,0.0,0.0,0.0,0.0,0.0,0.0,0.0,-6.5936,0.0,0.0,0.0,0.0,0.0,0.0,0.0,0.0,-6.5897,-6.5897,-6.5897,-6.5897,0.0,0.0,0.0,0.0,0.0,-6.4059,-6.3766,-6.368,-6.3593,-6.3317,-6.3014,-6.2917,-6.2917,-6.2904,-6.2805,-6.2915,-6.3466,-6.5124,-6.5816,-6.6516,-6.7657,-6.8148,0.0,-6.7757,-6.8097,-6.8368,-6.8368,-6.8368,0.0,-7.0292,-7.0629,-7.1143,-7.2072,-7.2355,-7.2496,-7.2496,-7.2496,-7.2496,-7.2496,-7.2496,-7.2496,-7.2496,-7.2496,-7.2496,-7.2496,-7.2496,-7.2496,-7.2496,-7.2496,-7.2496,-7.2496,0.0,0.0,-7.2496,-7.2496,-7.2496,-7.2496,-7.2496,-7.2496,-7.2496,-7.2496,-7.2496,-7.2496,0.0,0.0,0.0,0.0,0.0,0.0,0.0,0.0,0.0,0.0,0.0,0.0,0.0,0.0,0.0,0.0,0.0,0.0,0.0,0.0,0.0,0.0,0.0,0.0,0.0,0.0,0.0,0.0,0.0,0.0,-6.6914,-6.6914,-6.6914,0.0,0.0,0.0,0.0,0.0,0.0,0.0,-6.5897,0.0,0.0,0.0,0.0,0.0,0.0,0.0,0.0,-6.5897,-6.5897,-6.5897,-6.5897,0.0,0.0,0.0,0.0,0.0,-6.49,-6.459,-6.4138,-6.3723,-6.3892,-6.4056,-6.355,-6.3498,-6.3317,-6.2904,-6.3392,-6.4328,-6.5756,-6.6248,-6.6861,-6.816,-6.8047,-6.781,0.0,0.0,-6.781,-6.781,0.0,-6.8452,-7.0032,-7.0182,-7.0827,-7.2336,-7.248,-7.2496,-7.2496,-7.2496,-7.2496,-7.2496,-7.2496,-7.2496,-7.2496,-7.2496,-7.2496,-7.2496,-7.2496,-7.2496,-7.2496,-7.2496,-7.2496,-7.2496,0.0,-7.2496,-7.2496,-7.2496,-7.2496,-7.2496,-7.2496,-7.2496,-7.2496,-7.2496,-7.2496,-7.2496,0.0,0.0,0.0,0.0,0.0,0.0,0.0,0.0,0.0,0.0,0.0,0.0,0.0,0.0,0.0,0.0,0.0,0.0,0.0,0.0,0.0,0.0,0.0,0.0,0.0,0.0,0.0,0.0,0.0,-6.6914,-6.6914,-6.6914,-6.6914,-6.6874,0.0,0.0,0.0,0.0,0.0,0.0,0.0,0.0,0.0,0.0,0.0,0.0,0.0,0.0,0.0,0.0,-6.5897,-6.5897,-6.5897,0.0,0.0,0.0,0.0,0.0,-6.4444,-6.4554,-6.4661,-6.4138,-6.4217,-6.4332,-6.4059,-6.4019,-6.3892,-6.3317,-6.3928,-6.4837,-6.5903,-6.6526,-6.7283,-6.8315,0.0,-6.7687,-6.7687,-6.7687,-6.7687,0.0,0.0,-6.8825,-7.0,-7.0477,-7.1248,-7.2422,-7.2496,-7.2496,-7.2496,-7.2496,-7.2496,-7.2496,-7.2496,-7.2496,-7.2496,-7.2496,-7.2496,-7.2496,-7.2496,-7.2496,-7.2496,-7.2496,-7.2496,-7.2496,0.0,-7.2496,-7.2496,-7.2496,-7.2496,-7.2496,-7.2496,-7.2496,-7.2496,-7.2496,-7.2496,-7.2496,0.0,0.0,0.0,0.0,0.0,0.0,0.0,0.0,0.0,0.0,0.0,0.0,0.0,0.0,0.0,0.0,0.0,0.0,0.0,0.0,0.0,0.0,0.0,0.0,0.0,0.0,0.0,-6.6914,-6.6914,-6.6914,-6.6914,-6.6914,-6.6914,0.0,0.0,0.0,0.0,0.0,0.0,0.0,0.0,0.0,0.0,0.0,0.0,0.0,0.0,0.0,0.0,0.0,0.0,0.0,0.0,0.0,0.0,0.0,-6.5192,-6.4932,-6.4178,-6.4444,-6.4833,-6.4481,0.0,-6.4734,-6.459,-6.4705,-6.4709,-6.4154,0.0,-6.5789,-6.6469,-6.7158,0.0,-6.8246,-6.7982,-6.7687,-6.7687,-6.7687,-6.7687,-6.7687,-6.8421,-6.9229,-7.0,-7.0844,-7.1651,-7.2459,-7.2496,-7.2496,-7.2496,-7.2496,-7.2496,-7.2496,-7.2496,-7.2496,-7.2496,-7.2496,-7.2496,-7.2496,-7.2496,-7.2496,-7.2496,-7.2496,-7.2496,-7.2496,-7.2496,-7.2496,-7.2496,-7.2496,-7.2496,-7.2496,-7.2496,-7.2496,-7.2496,-7.2496,-7.2496,-7.2496,0.0,0.0,0.0,0.0,0.0,0.0,0.0,0.0,0.0,0.0,0.0,0.0,0.0,0.0,0.0,0.0,0.0,0.0,0.0,0.0,0.0,0.0,0.0,0.0,0.0,-6.6914,-6.6914,-6.6914,-6.6914,-6.6914,-6.6914,-6.6914,-6.6914,-6.6875,0.0,0.0,0.0,0.0,0.0,0.0,0.0,0.0,0.0,0.0,0.0,0.0,0.0,0.0,0.0,0.0,0.0,0.0,0.0,0.0,0.0,-6.5833,-6.5475,-6.5099,-6.4997,-6.4731,-6.4444,-6.4407,-6.5105,-6.5663,-6.5161,-6.5677,0.0,-6.5578,0.0,0.0,0.0,-6.821,-6.8283,-6.7863,-6.7741,-6.7687,-6.7687,0.0,-6.7687,-6.7687,-6.8421,-6.9229,-7.0,-7.0844,-7.1651,-7.2459,-7.2496,-7.2496,-7.2496,-7.2496,-7.2496,-7.2496,-7.2496,-7.2496,-7.2496,-7.2496,-7.2496,-7.2496,-7.2496,-7.2496,-7.2496,-7.2496,-7.2496,-7.2496,-7.2496,-7.2496,-7.2496,-7.2496,-7.2496,-7.2496,-7.2496,-7.2496,-7.2496,-7.2496,-7.2496,-7.2496,0.0,0.0,0.0,0.0,0.0,0.0,0.0,0.0,0.0,0.0,0.0,0.0,0.0,0.0,0.0,0.0,0.0,0.0,0.0,0.0,0.0,0.0,0.0,-6.8437,-6.8437,-6.7422,-6.6914,-6.6914,-6.6914,-6.6914,-6.6914,-6.6914,0.0,0.0,0.0,0.0,0.0,0.0,0.0,0.0,0.0,0.0,0.0,0.0,0.0,0.0,0.0,0.0,0.0,0.0,-6.5897,0.0,0.0,0.0,0.0,-6.5417,-6.5261,-6.5035,-6.4731,-6.4971,-6.5168,-6.4592,-6.4904,0.0,0.0,-6.5747,-6.6363,-6.6159,-6.7127,0.0,0.0,0.0,-6.832,-6.7757,-6.7687,-6.7687,-6.7687,-6.7687,-6.7687,-6.7687,-6.8862,-6.9779,-7.0073,-7.1284,-7.2165,-7.2496,-7.2496,-7.2496,-7.2496,-7.2496,-7.2496,-7.2496,-7.2496,-7.2496,-7.2496,-7.2496,-7.2496,-7.2496,-7.2496,-7.2496,-7.2496,-7.2496,-7.2496,-7.2496,-7.2496,-7.2496,-7.2496,-7.2496,-7.2496,-7.2496,-7.2496,-7.2496,-7.2496,-7.2496,-7.2496,-7.2496,0.0,0.0,0.0,0.0,0.0,0.0,0.0,0.0,0.0,0.0,0.0,0.0,0.0,0.0,0.0,0.0,0.0,0.0,0.0,0.0,0.0,0.0,0.0,-6.9414,-6.9414,-6.8281,-6.7578,-6.7305,-6.7031,-6.6914,-6.6914,0.0,0.0,0.0,0.0,0.0,0.0,0.0,0.0,-6.5897,0.0,0.0,0.0,0.0,0.0,0.0,0.0,0.0,0.0,0.0,-6.5781,0.0,0.0,0.0,0.0,0.0,-6.4866,-6.4799,-6.4481,-6.4904,-6.5268,-6.4554,0.0,0.0,-6.5416,-6.6031,-6.665,-6.7049,-6.7695,-6.8172,-6.8197,-6.821,0.0,0.0,-6.7687,-6.7687,-6.7687,-6.7687,-6.7687,-6.7687,-6.9119,-7.011,-7.011,-7.1578,-7.2496,-7.2496,-7.2496,-7.2496,-7.2496,-7.2496,-7.2496,-7.2496,-7.2496,-7.2496,-7.2496,-7.2496,-7.2496,-7.2496,-7.2496,-7.2496,-7.2496,-7.2496,-7.2496,-7.2496,-7.2496,-7.2496,-7.2496,-7.2496,-7.2496,-7.2496,-7.2496,-7.2496,-7.2496,-7.2496,-7.2496,-7.2496,0.0,0.0,0.0,0.0,0.0,0.0,0.0,0.0,0.0,0.0,0.0,0.0,0.0,0.0,0.0,0.0,0.0,0.0,0.0,0.0,0.0,0.0,0.0,-6.9414,-6.9414,-6.9492,-6.9062,-6.8203,-6.7344,-6.6914,-6.6914,-6.6914,0.0,0.0,0.0,0.0,0.0,0.0,-6.6013,-6.5897,-6.5897,-6.5897,0.0,0.0,0.0,0.0,0.0,0.0,0.0,0.0,0.0,0.0,0.0,0.0,0.0,-6.4445,-6.437,-6.437,-6.4445,-6.4407,-6.4445,0.0,0.0,0.0,-6.6159,-6.6592,-6.7203,-6.8545,-6.8628,-6.866,-6.919,-6.8416,0.0,-6.7687,-6.7687,-6.7687,-6.7687,-6.7687,-6.7687,-6.7687,-6.9119,-7.011,-7.011,-7.1578,-7.2496,-7.2496,-7.2496,-7.2496,-7.2496,-7.2496,-7.2496,-7.2496,-7.2496,-7.2496,-7.2496,-7.2496,-7.2496,-7.2496,-7.2496,-7.2496,-7.2496,-7.2496,-7.2496,-7.2496,-7.2496,-7.2496,-7.2496,-7.2496,-7.2496,-7.2496,-7.2496,-7.2496,-7.2496,-7.2496,-7.2496,-7.2496,0.0,0.0,0.0,0.0,0.0,0.0,0.0,0.0,0.0,0.0,0.0,0.0,0.0,0.0,0.0,0.0,0.0,0.0,0.0,0.0,0.0,0.0,0.0,0.0,0.0,0.0,-6.9922,-6.9023,-6.8789,-6.8672,0.0,0.0,0.0,-6.7812,0.0,0.0,0.0,0.0,-6.6013,-6.5897,-6.5897,-6.5897,0.0,0.0,0.0,0.0,0.0,0.0,0.0,0.0,0.0,0.0,0.0,0.0,-6.4444,-6.4799,-6.4661,-6.4444,-6.4799,-6.4866,0.0,-6.52,0.0,0.0,0.0,-6.7379,-6.7995,-6.8943,-6.879,-6.8416,-6.821,-6.7878,0.0,-6.7687,-6.7687,-6.7687,-6.7687,-6.7687,-6.7907,-6.8495,-6.9449,-7.033,-7.0881,-7.1908,-7.2496,-7.2496,-7.2496,-7.2496,-7.2496,-7.2496,-7.2496,-7.2496,-7.2496,-7.2496,-7.2496,-7.2496,-7.2496,-7.2496,-7.2496,-7.2496,-7.2496,-7.2496,-7.2496,-7.2496,-7.2496,-7.2496,-7.2496,-7.2496,-7.2496,-7.2496,-7.2496,-7.2496,-7.2496,-7.2496,-7.2496,-7.2496,0.0,0.0,0.0,0.0,0.0,0.0,0.0,0.0,0.0,0.0,0.0,0.0,0.0,0.0,0.0,0.0,0.0,0.0,0.0,0.0,0.0,0.0,0.0,0.0,0.0,-7.1484,-7.0976,0.0,0.0,0.0,0.0,0.0,0.0,-6.86,0.0,-6.7934,0.0,-6.6705,-6.6436,-6.6359,-6.6013,-6.5897,0.0,0.0,0.0,0.0,0.0,0.0,0.0,0.0,0.0,0.0,0.0,0.0,0.0,-6.4101,-6.4138,-6.4214,-6.4822,-6.5154,0.0,-6.5955,-6.6134,-6.6528,-6.756,0.0,0.0,0.0,-6.8558,-6.8148,-6.8047,-6.7863,0.0,-6.7687,-6.7687,-6.7687,-6.7687,-6.7687,-6.7981,-6.8788,-6.9596,-7.0403,-7.1248,-7.2055,-7.2496,-7.2496,-7.2496,-7.2496,-7.2496,-7.2496,-7.2496,-7.2496,-7.2496,-7.2496,-7.2496,-7.2496,-7.2496,-7.2496,-7.2496,-7.2496,-7.2496,-7.2496,-7.2496,-7.2496,-7.2496,-7.2496,-7.2496,-7.2496,-7.2496,-7.2496,-7.2496,-7.2496,-7.2496,-7.2496,-7.2496,-7.2496,0.0,0.0,0.0,0.0,0.0,0.0,0.0,0.0,0.0,0.0,0.0,0.0,0.0,0.0,0.0,0.0,0.0,0.0,0.0,0.0,0.0,0.0,0.0,0.0,0.0,0.0,0.0,0.0,0.0,0.0,0.0,0.0,-6.9509,-6.9294,0.0,-6.884,0.0,-6.7628,-6.7205,-6.7128,-6.632,-6.6013,-6.6013,-6.5936,0.0,0.0,0.0,0.0,0.0,0.0,0.0,0.0,0.0,0.0,-6.2904,-6.2917,-6.3299,-6.3891,-6.4644,0.0,0.0,-6.6628,-6.7036,0.0,-6.8325,-6.8464,-6.8464,-6.8511,0.0,-6.7863,-6.8357,-6.7996,-6.7687,-6.7687,-6.7687,-6.7687,-6.7687,-6.7687,-6.8017,-6.8898,-6.9633,-7.044,-7.1321,-7.2092,-7.2496,-7.2496,-7.2496,-7.2496,-7.2496,-7.2496,-7.2496,-7.2496,-7.2496,-7.2496,-7.2496,-7.2496,-7.2496,-7.2496,-7.2496,-7.2496,-7.2496,-7.2496,-7.2496,-7.2496,-7.2496,-7.2496,-7.2496,-7.2496,-7.2496,-7.2496,-7.2496,-7.2496,-7.2496,-7.2496,-7.2496,-7.2496,0.0,0.0,0.0,0.0,0.0,0.0,0.0,0.0,0.0,0.0,0.0,0.0,0.0,0.0,0.0,0.0,0.0,0.0,0.0,0.0,0.0,0.0,0.0,0.0,0.0,0.0,0.0,0.0,0.0,0.0,0.0,0.0,0.0,-7.0179,0.0,-6.9425,0.0,0.0,0.0,-6.8052,-6.7205,-6.6821,-6.6782,-6.6128,-6.5897,0.0,0.0,0.0,0.0,0.0,0.0,0.0,-6.4518,-6.3937,-6.3543,-6.3896,-6.4299,-6.4688,-6.5261,-6.5661,0.0,0.0,-6.7358,-6.776,-6.8379,-6.8161,-6.7982,-6.8416,-6.8047,-6.7741,-6.7863,-6.7757,-6.7687,-6.7687,-6.7687,-6.7687,-6.7687,-6.7687,-6.8201,-6.9669,-7.0,-7.066,-7.2092,-7.2422,-7.2496,-7.2496,-7.2496,-7.2496,-7.2496,-7.2496,-7.2496,-7.2496,-7.2496,-7.2496,-7.2496,-7.2496,-7.2496,0.0,-7.2496,-7.2496,-7.2496,-7.2496,-7.2496,-7.2496,-7.2496,-7.2496,-7.2496,-7.2496,-7.2496,-7.2496,-7.2496,-7.2496,-7.2496,-7.2496,-7.2496,-7.2496,0.0,0.0,0.0,0.0,0.0,0.0,0.0,0.0,0.0,0.0,0.0,0.0,0.0,0.0,0.0,0.0,0.0,0.0,0.0,0.0,0.0,0.0,0.0,0.0,0.0,0.0,0.0,0.0,0.0,0.0,0.0,0.0,0.0,-7.0947,0.0,-7.0398,0.0,0.0,0.0,-6.8936,-6.809,-6.7705,-6.7628,-6.6782,-6.6474,-6.6397,-6.6051,0.0,0.0,0.0,0.0,0.0,0.0,0.0,-6.4786,-6.4786,-6.4893,-6.5149,-6.5849,0.0,0.0,-6.7247,0.0,-6.7757,-6.8047,-6.7878,-6.7757,-6.8047,-6.7878,-6.7687,-6.7687,-6.7687,-6.7687,-6.7687,-6.7687,-6.7687,-6.7687,-6.7687,-6.8274,-6.9889,-7.011,-7.0734,-7.2349,-7.2496,-7.2496,-7.2496,-7.2496,-7.2496,-7.2496,-7.2496,-7.2496,-7.2496,-7.2496,-7.2496,-7.2496,-7.2496,-7.2496,-7.2496,-7.2496,-7.2496,-7.2496,-7.2496,-7.2496,-7.2496,-7.2496,-7.2496,-7.2496,-7.2496,-7.2496,-7.2496,-7.2496,-7.2496,-7.2496,-7.2496,-7.2496,-7.2496,0.0,0.0,0.0,0.0,0.0,0.0,0.0,0.0,0.0,0.0,0.0,0.0,0.0,0.0,0.0,0.0,0.0,0.0,0.0,0.0,0.0,0.0,0.0,0.0,0.0,0.0,0.0,0.0,0.0,0.0,0.0,0.0,0.0,-7.151,0.0,0.0,0.0,0.0,0.0,-6.9821,-6.8975,-6.8629,-6.8552,-6.7667,-6.7321,-6.7244,-6.6551,-6.632,-6.6436,-6.6973,0.0,0.0,0.0,0.0,-6.5858,-6.5419,-6.5411,-6.5668,-6.6329,0.0,-6.688,-6.7504,-6.7687,0.0,-6.7687,-6.7687,-6.7687,-6.7687,-6.7687,-6.7687,-6.7687,-6.7687,-6.7687,-6.7687,-6.7687,-6.7687,-6.7687,-6.7687,-6.8274,-6.9889,-7.011,-7.0734,-7.2349,-7.2496,-7.2496,-7.2496,-7.2496,-7.2496,-7.2496,-7.2496,-7.2496,-7.2496,-7.2496,-7.2496,-7.2496,-7.2496,-7.2496,-7.2496,-7.2496,-7.2496,-7.2496,-7.2496,-7.2496,-7.2496,-7.2496,-7.2496,-7.2496,-7.2496,-7.2496,-7.2496,-7.2496,-7.2496,-7.2496,-7.2496,-7.2496,-7.2496,0.0,0.0,0.0,0.0,0.0,0.0,0.0,0.0,0.0,0.0,0.0,0.0,0.0,0.0,0.0,0.0,0.0,0.0,0.0,0.0,0.0,0.0,0.0,0.0,0.0,0.0,0.0,0.0,0.0,0.0,0.0,0.0,0.0,-7.151,0.0,0.0,0.0,0.0,0.0,-7.0667,-6.986,-6.9513,-6.9436,-6.8552,-6.8244,-6.8205,-6.809,-6.809,-6.7999,-6.7646,-6.7186,0.0,0.0,0.0,-6.5367,-6.5301,-6.5778,-6.6366,-6.6476,0.0,-6.7577,0.0,-6.7687,-6.7687,0.0,0.0,-6.7687,0.0,-6.7687,-6.7687,-6.7687,-6.7687,-6.7687,-6.7687,-6.7687,-6.7687,-6.7687,-6.7687,-6.8274,-6.9889,-7.011,-7.0734,-7.2349,-7.2496,-7.2496,-7.2496,-7.2496,-7.2496,-7.2496,-7.2496,-7.2496,-7.2496,-7.2496,-7.2496,-7.2496,-7.2496,-7.2496,-7.2496,-7.2496,-7.2496,-7.2496,-7.2496,-7.2496,-7.2496,-7.2496,-7.2496,-7.2496,-7.2496,-7.2496,-7.2496,-7.2496,-7.2496,-7.2496,-7.2496,-7.2496,-7.2496,0.0,0.0,0.0,0.0,0.0,0.0,0.0,0.0,0.0,0.0,0.0,0.0,0.0,0.0,0.0,0.0,0.0,0.0,0.0,0.0,0.0,0.0,0.0,0.0,0.0,0.0,0.0,0.0,0.0,0.0,0.0,-7.1992,-7.1802,0.0,0.0,0.0,0.0,0.0,-7.0898,-7.086,-7.0514,-7.036,-7.0283,-6.9436,-6.9129,-6.9052,-6.859,-6.8398,-6.8383,-6.8279,-6.813,-6.7846,-6.756,0.0,0.0,0.0,-6.688,-6.7173,-6.7173,-6.743,-6.7687,0.0,-6.7687,-6.7687,-6.7687,-6.7687,-6.7687,-6.7687,-6.7687,-6.7687,-6.7687,-6.7687,-6.7687,-6.7687,-6.7687,-6.7687,-6.7687,-6.7687,-6.8274,-6.9889,-7.011,-7.0734,-7.2349,-7.2496,-7.2496,-7.2496,-7.2496,-7.2496,-7.2496,-7.2496,-7.2496,-7.2496,-7.2496,-7.2496,-7.2496,-7.2496,-7.2496,-7.2496,-7.2496,-7.2496,-7.2496,-7.2871,-7.2816,-7.2496,-7.2496,-7.2496,-7.2496,-7.2496,-7.2496,-7.2496,-7.2496,-7.2496,-7.2496,-7.2496,-7.2496,-7.2496,0.0,0.0,0.0,0.0,0.0,0.0,0.0,0.0,0.0,0.0,0.0,0.0,0.0,0.0,0.0,0.0,0.0,0.0,0.0,0.0,0.0,0.0,0.0,0.0,0.0,0.0,0.0,0.0,0.0,0.0,-7.1992,-7.1992,-7.1802,0.0,-7.151,-7.1283,0.0,0.0,0.0,-7.0898,-7.0898,-7.0898,-7.0821,-7.0244,-7.0014,-6.9937,-6.9283,-6.9052,-6.9075,-6.9245,-6.9141,-6.8903,-6.8747,-6.8511,0.0,0.0,0.0,-6.7687,-6.7687,0.0,-6.7687,-6.7687,-6.7687,-6.7687,0.0,0.0,-6.7687,0.0,-6.7687,-6.7687,-6.7687,-6.7687,-6.7687,-6.7687,-6.7687,-6.7687,-6.7687,-6.7687,-6.8201,-6.9633,-6.9963,-7.066,-7.2055,-7.2386,-7.2496,-7.2496,-7.2496,-7.2496,-7.2496,-7.2496,-7.261,-7.2705,-7.261,-7.263,-7.2943,-7.2943,-7.2871,-7.2742,-7.2742,-7.263,-7.2496,-7.3119,-7.3172,-7.2742,-7.2742,-7.263,-7.2496,-7.2496,-7.2496,-7.2496,-7.2496,-7.2496,-7.2496,-7.2496,-7.2496,-7.2496,0.0,0.0,0.0,0.0,0.0,0.0,0.0,0.0,0.0,0.0,0.0,0.0,0.0,0.0,0.0,0.0,0.0,0.0,0.0,0.0,0.0,0.0,0.0,0.0,0.0,0.0,0.0,0.0,0.0,0.0,-7.1992,-7.1992,-7.1802,-7.151,-7.151,-7.1283,-7.0898,0.0,0.0,-7.0898,-7.0898,-7.0898,-7.0898,-7.086,-7.0821,-7.0821,-7.0783,-7.0783,-7.0783,-7.0794,-7.0124,-6.9277,-6.9234,-6.8567,-6.7741,0.0,0.0,0.0,-6.7687,-6.7687,0.0,-6.7687,-6.7687,-6.7687,0.0,0.0,-6.7687,-6.7687,-6.7687,-6.7687,-6.7687,-6.7687,-6.7687,-6.7687,-6.7687,-6.7687,-6.7687,-6.7687,-6.8017,-6.8862,-6.9633,-7.044,-7.1284,-7.2055,-7.2496,-7.2496,-7.2496,-7.2496,-7.2496,-7.2496,-7.2761,-7.3341,-7.2816,-7.305,-7.4206,-7.4206,-7.3934,-7.3341,-7.3341,-7.3013,-7.2496,-7.3119,-7.3391,-7.3341,-7.3341,-7.305,-7.2496,-7.2496,-7.2496,-7.2496,-7.2496,-7.2496,-7.2496,-7.2496,-7.2496,-7.2496,0.0,0.0,0.0,0.0,0.0,0.0,0.0,0.0,0.0,0.0,0.0,0.0,0.0,-7.0898,-7.0898,-7.0898,0.0,0.0,0.0,0.0,0.0,0.0,0.0,0.0,0.0,0.0,0.0,0.0,0.0,-7.1992,-7.1992,-7.1992,-7.1802,-7.151,-7.151,-7.1283,-7.0898,-7.0898,0.0,-7.0898,-7.0898,-7.0898,-7.0898,-7.0898,-7.0898,-7.0898,-7.0898,-7.0898,-7.0871,-7.0494,-7.0129,-6.9701,-6.9021,-6.8558,-6.8148,-6.781,-6.7687,-6.7687,-6.7687,-6.7687,0.0,-6.7687,-6.7687,-6.7687,-6.7687,-6.7687,-6.7687,-6.7687,-6.7687,-6.7687,-6.7687,-6.7687,-6.7687,-6.7687,-6.7687,-6.7687,-6.7687,-6.7687,-6.7981,-6.8788,-6.9596,-7.0403,-7.1248,-7.2055,-7.2496,-7.2496,-7.2496,-7.2496,-7.2496,-7.2496,-7.2761,-7.3391,-7.3172,-7.3492,-7.4293,-7.4293,-7.4206,-7.398,-7.359,-7.329,-7.3066,-7.3699,-7.3747,-7.3442,-7.3794,-7.3639,-7.305,-7.2686,-7.2496,-7.2496,-7.2496,-7.2496,-7.2496,-7.2496,-7.2496,-7.2496,0.0,0.0,0.0,0.0,0.0,0.0,0.0,0.0,0.0,0.0,0.0,0.0,0.0,0.0,-7.0898,-7.0898,-7.0898,-7.1052,-7.1464,0.0,0.0,0.0,0.0,0.0,0.0,0.0,0.0,0.0,0.0,0.0,0.0,-7.1992,-7.1802,-7.151,-7.151,-7.1283,0.0,0.0,0.0,-7.0898,-7.0898,-7.0898,-7.0898,-7.0898,-7.0898,-7.0898,-7.0898,-7.0898,-7.0871,-7.0494,-7.0266,-6.9918,-6.9064,-6.8558,-6.8161,-6.781,-6.7687,-6.7687,-6.7687,-6.7687,-6.7687,0.0,-6.7687,-6.7687,-6.7687,-6.7687,-6.7687,-6.7687,-6.7687,-6.7687,-6.7687,-6.7687,-6.7687,-6.7687,-6.7687,-6.7687,-6.7687,-6.7687,-6.7907,-6.8421,-6.9449,-7.0293,-7.0844,-7.1872,-7.2496,-7.2496,-7.2496,0.0,-7.2496,-7.2686,-7.3066,-7.3651,-7.4079,-7.4341,-7.4588,-7.4749,-7.4749,-7.4588,-7.398,-7.3602,-7.3442,-7.4026,-7.4072,-7.3747,-7.4299,-7.4124,-7.3341,-7.2761,-7.2496,-7.2496,-7.2496,-7.2496,-7.2496,-7.2496,-7.2496,-7.2496,0.0,0.0,0.0,0.0,0.0,0.0,0.0,0.0,0.0,0.0,0.0,0.0,0.0,0.0,0.0,-7.0898,-7.0898,-7.1091,-7.1464,-7.1494,0.0,0.0,0.0,0.0,0.0,0.0,0.0,0.0,0.0,0.0,0.0,0.0,-7.1831,-7.151,-7.1472,-7.1245,-7.0898,0.0,-7.0898,-7.0898,-7.0898,-7.0898,-7.0898,-7.0898,-7.0898,-7.0898,-7.0898,-7.0898,-7.0898,-7.0898,-7.0524,-7.0026,-6.9472,-6.8567,-6.7687,-6.7687,-6.7687,-6.7687,0.0,0.0,0.0,-6.7687,-6.7687,-6.7687,-6.7687,0.0,-6.7687,-6.7687,-6.7687,-6.7687,-6.7687,-6.7687,-6.7687,-6.7687,-6.7687,-6.7687,-6.7687,-6.7687,-6.7687,-6.7687,-6.9082,-7.0073,-7.011,-7.1541,-7.2459,-7.2496,-7.2496,-7.2496,-7.2496,-7.3066,-7.3699,-7.4293,-7.5417,-7.5718,-7.5127,-7.5718,-7.5718,-7.5127,-7.4588,-7.398,-7.3492,-7.4026,-7.4293,-7.4336,-7.4866,-7.4468,-7.3391,-7.2761,-7.2496,-7.2496,-7.2496,-7.2496,-7.2496,-7.2496,-7.2496,-7.2496,0.0,0.0,0.0,0.0,0.0,0.0,0.0,0.0,0.0,0.0,0.0,0.0,-7.0898,-7.0898,-7.0898,-7.0898,-7.1014,-7.1206,-7.1503,-7.1582,-7.1753,0.0,0.0,0.0,0.0,0.0,0.0,0.0,0.0,0.0,0.0,0.0,0.0,0.0,-7.1356,-7.1129,-7.0898,-7.0898,-7.0898,-7.0898,-7.0898,-7.0898,-7.0898,-7.0898,-7.0898,-7.0898,-7.0898,-7.0898,-7.0898,-7.0898,-7.0805,-7.0494,-6.9588,-6.8567,-6.7687,-6.7687,-6.7687,-6.7687,-6.7687,0.0,0.0,0.0,0.0,0.0,-6.7687,0.0,-6.7687,-6.7687,-6.7687,-6.7687,-6.7687,-6.7687,-6.7687,-6.7687,-6.7687,-6.7687,-6.7687,-6.7687,-6.7687,-6.7687,-6.8605,-6.9449,-7.0036,-7.1027,-7.1872,0.0,-7.2496,-7.2496,-7.2496,-7.3492,-7.4336,-7.4866,-7.5622,-7.5917,-7.5749,-7.5917,-7.5917,-7.5718,-7.4749,-7.4422,-7.4632,-7.4422,-7.4506,-7.4866,-7.4629,-7.4336,-7.4026,-7.3391,-7.2889,-7.2496,-7.2496,-7.2496,-7.2496,-7.2496,-7.2496,-7.2496,0.0,0.0,0.0,0.0,0.0,0.0,0.0,0.0,0.0,0.0,0.0,0.0,-7.0898,-7.0898,-7.0898,-7.0898,-7.1091,-7.13,-7.1485,-7.1621,-7.1766,-7.1991,0.0,0.0,0.0,0.0,0.0,0.0,0.0,0.0,0.0,0.0,0.0,0.0,0.0,0.0,-7.1014,-7.0937,-7.0898,-7.0898,-7.0898,-7.0898,-7.0898,-7.0898,-7.0898,-7.0898,-7.0898,-7.0898,-7.0898,-7.0898,-7.0748,-7.0432,-6.9588,-6.8705,-6.7982,-6.7794,-6.7687,-6.7687,-6.7687,-6.7687,-6.7687,-6.7687,0.0,0.0,-6.7687,-6.7687,-6.7687,0.0,-6.7687,-6.7687,-6.7687,-6.7687,-6.7687,-6.7687,-6.7687,-6.7687,-6.7687,-6.7687,-6.7687,-6.7687,-6.8421,-6.9082,-6.9559,-7.0624,-7.1505,-7.1982,-7.2312,-7.2573,-7.2871,-7.3747,-7.4547,-7.5091,-7.5686,-7.6015,-7.6015,-7.6015,-7.5848,-7.5616,-7.471,-7.4464,-7.4789,-7.4464,-7.4464,-7.4789,-7.4632,-7.4341,-7.3888,-7.3541,-7.3013,-7.2496,-7.2496,-7.2496,-7.2496,-7.2496,-7.2496,-7.2496,0.0,0.0,0.0,0.0,0.0,0.0,0.0,0.0,0.0,0.0,0.0,-7.1206,-7.1206,-7.1206,-7.1206,-7.1206,-7.136,-7.1588,-7.1768,-7.1939,-7.2086,0.0,0.0,0.0,0.0,0.0,0.0,0.0,0.0,0.0,0.0,0.0,0.0,0.0,0.0,0.0,0.0,-7.0975,-7.0898,-7.0937,-7.0898,-7.0898,-7.0898,-7.0898,-7.0898,-7.0898,-7.0898,-7.0898,-7.0898,-7.0898,-7.0524,-7.0026,-6.955,-6.9021,-6.8511,-6.793,-6.7757,-6.7757,-6.7741,-6.7687,-6.7687,-6.7687,-6.7687,0.0,-6.7687,-6.7687,-6.7687,0.0,-6.7687,-6.7687,-6.7687,-6.7687,-6.7687,-6.7687,-6.7687,-6.7687,-6.7687,-6.7687,-6.7687,-6.7687,-6.8311,-6.8788,-6.8898,-7.022,-7.1138,-7.1321,-7.2055,-7.2761,-7.3391,-7.3888,-7.4506,-7.5091,-7.5616,-7.5947,-7.6015,-7.6015,-7.5686,-7.5091,-7.4588,-7.4336,-7.4379,-7.4249,-7.4249,-7.4422,-7.4751,-7.4341,-7.3391,-7.3341,-7.2997,-7.2496,-7.2496,-7.2496,-7.2496,-7.2496,-7.2496,-7.2496,0.0,0.0,0.0,0.0,0.0,0.0,0.0,0.0,0.0,0.0,0.0,-7.3014,-7.3014,-7.3014,-7.3014,-7.3014,-7.3301,-7.3466,-7.3494,-7.3844,0.0,0.0,0.0,0.0,0.0,0.0,0.0,0.0,0.0,0.0,0.0,0.0,0.0,0.0,0.0,0.0,-7.1168,-7.0975,-7.0975,-7.1129,-7.0975,-7.0898,-7.0898,-7.0898,-7.0898,-7.0898,-7.0898,-7.0898,-7.0898,-7.0898,-7.0524,-7.0095,-6.9992,-6.9588,-6.9021,-6.8511,-6.832,-6.8259,-6.781,-6.7687,-6.7687,-6.7687,-6.7687,0.0,-6.7687,-6.7687,-6.7687,-6.7687,-6.7687,-6.7687,-6.7687,-6.7687,-6.7687,-6.7687,-6.7687,-6.7687,-6.7687,-6.7687,-6.7687,-6.7687,-6.7834,-6.8201,-6.8862,-6.9192,-6.9926,-7.1211,-7.2055,-7.2761,-7.3391,-7.3541,-7.4034,-7.5091,-7.5198,-7.5518,-7.6015,-7.6015,-7.5686,-7.5091,-7.4588,-7.4547,-7.4943,-7.3989,-7.4079,-7.4905,-7.4079,-7.3602,-7.3341,-7.2871,-7.2573,-7.2496,-7.2496,-7.2496,-7.2496,-7.2496,-7.2496,-7.2496,0.0,0.0,0.0,0.0,0.0,0.0,0.0,0.0,0.0,0.0,-7.3514,-7.3514,-7.3514,-7.3514,-7.3514,-7.3514,-7.3812,-7.4007,-7.4,-7.4379,0.0,0.0,0.0,0.0,0.0,0.0,0.0,0.0,0.0,0.0,0.0,0.0,0.0,0.0,0.0,-7.2874,-7.1964,-7.1772,-7.1464,-7.1052,-7.0937,-7.0975,-7.1052,-7.0937,-7.0898,-7.0898,-7.0898,-7.0898,-7.0898,-7.0898,-7.1017,-7.1114,-7.0811,-7.0649,-7.0432,-6.9892,-6.9534,-6.9215,-6.897,-6.8898,-6.8788,-6.8385,-6.8311,0.0,0.0,-6.7687,-6.7687,-6.7687,-6.7687,-6.7687,-6.7687,-6.7687,-6.7687,-6.7687,-6.7687,-6.7687,-6.7687,-6.7687,-6.7687,-6.7687,-6.7687,-6.7834,-6.8238,-6.8678,-6.9596,-7.1211,-7.2055,-7.263,-7.2943,-7.3275,-7.3794,-7.4672,-7.498,-7.5413,-7.5976,-7.5686,-7.5236,-7.471,-7.4422,-7.4464,-7.4672,-7.4117,-7.4124,-7.4632,-7.3794,-7.3224,-7.2943,-7.263,-7.2496,-7.2496,-7.2496,-7.2496,-7.2496,-7.2496,-7.2496,-7.2496,-7.3783,-7.386,0.0,0.0,0.0,0.0,0.0,0.0,0.0,0.0,-7.3976,-7.3976,-7.3976,-7.3976,-7.3976,-7.3976,-7.4245,-7.4485,-7.4505,-7.4843,-7.5078,-7.5117,-7.5117,-7.543,0.0,0.0,0.0,0.0,0.0,0.0,0.0,0.0,0.0,0.0,-7.4648,-7.3992,-7.307,-7.2839,-7.2272,-7.1475,-7.1437,-7.1283,-7.1129,-7.1129,-7.1168,-7.1168,-7.1321,-7.1398,-7.1398,-7.1398,-7.1766,-7.2217,-7.1931,-7.1899,-7.1845,-7.1312,-7.0772,-7.0381,-7.0128,-7.011,-6.9926,-6.9302,-6.9119,-6.8935,0.0,0.0,0.0,-6.7724,-6.7687,-6.7687,-6.7687,-6.7687,-6.765,-6.7467,-6.7577,-6.765,-6.7467,-6.7577,-6.7687,-6.7687,-6.7687,-6.7687,-6.7687,-6.8421,-6.9522,-7.0954,-7.1835,-7.2349,-7.2496,-7.2943,-7.3492,-7.4117,-7.4551,-7.5054,-7.5654,-7.5201,-7.4749,-7.4293,-7.4293,-7.4293,-7.4293,-7.4161,-7.4117,-7.4072,-7.3492,-7.2943,-7.2496,-7.2496,-7.2496,-7.2496,-7.2496,-7.2496,-7.2496,-7.2496,-7.2496,-7.2496,-7.4707,-7.5207,-7.5707,0.0,0.0,0.0,0.0,0.0,0.0,-7.5707,-7.5707,-7.5707,-7.5707,-7.5707,-7.5707,-7.5707,-7.5899,-7.6108,-7.628,-7.6521,-7.6719,-7.6914,-7.6914,-7.6953,-7.7031,0.0,0.0,0.0,0.0,0.0,0.0,0.0,0.0,0.0,-7.5547,-7.4977,-7.4098,-7.3801,-7.3658,-7.363,-7.3322,-7.2283,-7.1014,-7.1783,-7.2052,-7.2129,-7.2937,-7.3206,-7.3206,-7.3206,-7.2932,-7.2673,-7.3108,-7.292,-7.2394,-7.1886,-7.1675,-7.1366,-7.0381,-7.011,-7.0073,-7.0,-6.9963,-6.9743,-6.8972,0.0,-6.8568,-6.7834,0.0,-6.7687,-6.7687,0.0,0.0,-6.6733,-6.721,-6.743,-6.6733,-6.7247,-6.7687,-6.7687,-6.7687,-6.7687,-6.7687,-6.8421,-6.9265,-7.0183,-7.0991,-7.1762,-7.2459,-7.2553,-7.2871,-7.3492,-7.3553,-7.3888,-7.4464,-7.4422,-7.4379,-7.4293,-7.4293,-7.4293,-7.4293,-7.3747,-7.3492,-7.3492,-7.2871,-7.2553,-7.2496,-7.2496,-7.2496,-7.2496,-7.2496,-7.2496,-7.2496,-7.2496,-7.2496,-7.2496,-7.5515,-7.5745,-7.6015,0.0,0.0,0.0,0.0,0.0,0.0,-7.6015,-7.6015,-7.6015,-7.6015,-7.6015,-7.6015,-7.6015,-7.6169,-7.6388,0.0,0.0,-7.6992,-7.7187,-7.7187,-7.7187,-7.7187,0.0,0.0,0.0,-7.7187,0.0,0.0,0.0,0.0,0.0,-7.6562,0.0,-7.5039,-7.4787,-7.4378,-7.386,-7.3591,-7.3053,-7.2437,-7.2822,-7.2937,-7.3014,-7.336,-7.3514,-7.3514,-7.3514,-7.3629,-7.3852,-7.411,-7.393,-7.3528,-7.3322,-7.2745,-7.2081,-7.1637,-7.1765,-7.1833,-7.0992,-7.1065,-7.102,-6.9853,-6.9596,-6.9376,-6.8568,0.0,0.0,0.0,0.0,0.0,0.0,-6.7467,-6.7577,-6.7247,-6.7467,-6.7687,-6.7687,-6.7687,0.0,-6.7687,-6.8421,-6.9045,-6.9376,-7.0587,-7.1468,-7.1798,-7.2275,-7.2761,-7.3391,-7.3391,-7.3699,-7.4293,-7.3934,-7.3794,-7.3794,-7.3794,-7.3794,-7.3747,-7.3541,-7.3391,-7.3391,-7.2761,-7.2496,-7.2496,-7.2496,-7.2496,-7.2496,-7.2496,-7.2496,-7.2496,-7.2496,-7.2496,-7.2496,-7.6015,-7.6015,-7.6015,-7.6015,0.0,0.0,0.0,0.0,0.0,0.0,0.0,0.0,-7.6015,-7.6015,-7.6015,-7.6015,-7.613,-7.6284,0.0,0.0,-7.6892,-7.7048,-7.7145,-7.7187,-7.7109,0.0,0.0,0.0,0.0,0.0,0.0,0.0,0.0,-7.7106,0.0,-7.6758,-7.5937,0.0,-7.5216,-7.4553,-7.4284,-7.4207,-7.4168,-7.3937,-7.3976,-7.4207,-7.4207,-7.4207,-7.4207,-7.4207,-7.4465,0.0,-7.5024,-7.4813,-7.4547,-7.4547,-7.3897,-7.3135,-7.2816,-7.3066,-7.3127,-7.1931,-7.1931,-7.1939,-7.0698,-7.044,-7.022,-6.9412,-6.9045,0.0,0.0,0.0,-6.7614,-6.7393,0.0,-6.7614,-6.7393,-6.754,-6.7687,-6.7687,-6.7687,-6.7687,0.0,-6.8238,-6.8678,-6.8898,-7.0183,-7.1064,-7.1321,-7.2055,-7.2686,-7.3119,-7.3172,-7.3341,-7.3794,-7.3341,-7.3275,-7.3391,-7.3391,-7.3391,-7.3391,-7.3391,-7.329,-7.3119,-7.2686,-7.2496,-7.2496,-7.2496,-7.2496,-7.2496,-7.2496,-7.2496,-7.2496,-7.2496,-7.2496,-7.2496,-7.6015,-7.6015,-7.6015,-7.6015,0.0,0.0,0.0,0.0,0.0,0.0,0.0,0.0,0.0,0.0,0.0,-7.6015,0.0,-7.6092,-7.6284,0.0,-7.6597,-7.6597,-7.6995,-7.7109,-7.6914,-7.7109,-7.7187,-7.7187,0.0,0.0,0.0,0.0,0.0,-7.6916,-7.7129,-7.707,-7.6835,-7.6643,-7.6555,-7.6506,-7.6092,-7.5938,-7.5822,0.0,-7.5207,-7.5938,-7.5938,0.0,0.0,-7.5938,-7.5577,0.0,0.0,0.0,-7.5091,-7.5091,-7.5054,-7.479,-7.3699,-7.3391,-7.3238,-7.2593,-7.2459,-7.2239,-7.1468,-7.1284,-7.1027,-7.022,-6.9449,-6.8898,-6.8862,-6.8238,-6.743,-6.6659,-6.7173,0.0,0.0,-6.721,-6.7687,-6.7687,-6.7687,-6.7687,0.0,-6.7724,-6.8054,-6.8862,-6.9669,-7.0477,-7.1284,-7.2055,-7.2496,-7.2553,-7.2553,-7.2553,-7.2553,-7.2553,-7.2816,-7.3391,-7.3391,-7.3391,-7.3391,-7.3391,-7.3066,-7.2553,-7.2496,-7.2496,-7.2496,-7.2496,-7.2496,-7.2496,-7.2496,-7.2496,-7.2496,-7.2496,-7.2496,-7.2496,-7.6015,-7.6015,-7.6015,-7.6015,0.0,0.0,0.0,-7.6015,0.0,0.0,-7.6015,0.0,0.0,-7.6015,-7.6015,0.0,0.0,-7.6092,-7.6284,-7.6495,-7.6609,-7.6606,-7.6998,-7.7105,-7.6914,-7.7109,-7.7187,-7.7187,-7.7187,0.0,0.0,0.0,0.0,0.0,0.0,-7.6944,0.0,0.0,0.0,0.0,0.0,-7.6015,-7.5976,0.0,-7.5745,-7.6015,-7.6015,-7.6015,0.0,-7.6015,-7.5848,-7.5718,-7.5947,-7.5584,-7.5091,-7.5091,-7.4866,0.0,0.0,0.0,-7.3841,-7.3275,0.0,-7.2923,-7.2242,-7.2092,-7.1872,-7.1064,-7.0257,-6.9522,-6.9009,-6.8238,-6.7614,-6.732,-6.7504,-6.7577,0.0,-6.7504,-6.7687,-6.7687,-6.7687,-6.7687,-6.7687,-6.7687,-6.7797,-6.8091,-6.8862,-6.9669,-7.0477,-7.1284,-7.1945,-7.2496,-7.2496,-7.2496,-7.2496,-7.2496,-7.2573,-7.2816,-7.2816,-7.2816,-7.2816,-7.2816,-7.2686,-7.2496,-7.2496,-7.2496,-7.2496,-7.2496,-7.2496,-7.2496,-7.2496,-7.2496,-7.2496,-7.2496,-7.2496,-7.2496,-7.6015,-7.6015,-7.6015,-7.6015,0.0,0.0,0.0,0.0,0.0,0.0,-7.6015,0.0,-7.6015,0.0,-7.6015,0.0,-7.6015,-7.6053,-7.6169,-7.6361,-7.6469,-7.64,-7.6791,-7.6914,-7.6685,-7.6946,-7.7109,-7.7109,-7.7148,-7.7187,0.0,0.0,0.0,0.0,0.0,-7.6852,-7.6775,-7.6438,-7.6399,-7.6583,-7.6169,-7.6015,0.0,0.0,-7.6015,-7.6015,0.0,-7.6015,-7.6015,-7.6015,-7.6015,-7.6015,-7.6015,-7.5718,-7.5413,-7.5413,-7.5165,-7.4866,-7.467,-7.4588,0.0,-7.3602,-7.3391,0.0,-7.263,-7.2496,-7.2349,-7.1835,-7.1101,-7.0367,-6.9853,-6.8862,-6.8128,-6.8128,-6.7871,-6.7687,0.0,-6.7687,-6.7687,-6.7687,-6.7687,-6.7687,-6.7687,-6.7687,-6.7687,-6.7687,-6.8458,-6.9265,-7.0073,0.0,-7.1688,-7.2459,-7.2496,-7.2496,-7.2496,-7.2496,-7.2496,-7.2496,-7.2496,-7.2496,-7.2496,-7.2496,-7.2496,-7.2496,-7.2496,-7.2496,-7.2496,-7.2496,-7.2496,-7.2496,-7.2496,-7.2496,-7.2496,-7.2496,-7.2496,-7.2496,0.0,-7.6015,0.0,0.0,-7.6015,0.0,0.0,0.0,-7.6015,0.0,-7.6015,-7.6015,-7.6015,-7.6015,-7.6015,-7.6015,-7.6015,-7.6015,-7.6015,-7.6169,-7.6207,-7.6015,-7.6361,-7.6507,-7.6283,-7.6677,-7.6912,-7.6914,-7.7109,-7.7187,-7.7187,0.0,0.0,0.0,-7.6803,0.0,-7.6583,-7.6361,-7.6399,-7.6544,-7.613,-7.6015,-7.6015,-7.6015,-7.6015,-7.6015,-7.6015,-7.6015,-7.6015,-7.6015,-7.6015,-7.6015,-7.6015,-7.6015,-7.6015,-7.6015,-7.6015,-7.5848,-7.5306,-7.5127,-7.4828,-7.3757,0.0,0.0,0.0,0.0,-7.2496,-7.2496,-7.1872,-7.1321,-7.1321,-7.0036,-6.8972,-6.8898,-6.8201,-6.7687,-6.7687,-6.7687,-6.7687,-6.7687,-6.7687,-6.7687,-6.7687,-6.7687,-6.7687,-6.7687,-6.8421,-6.9229,-7.0036,-7.0844,-7.1651,-7.2459,-7.2496,-7.2496,-7.2496,-7.2496,-7.2496,-7.2496,-7.2496,-7.2496,-7.2496,-7.2496,-7.2496,-7.2496,-7.2496,-7.2496,-7.2496,-7.2496,-7.2496,-7.2496,-7.2496,-7.2496,-7.2496,-7.2496,-7.2496,-7.2438,-7.6015,-7.6015,-7.6015,0.0,-7.6015,-7.6015,0.0,0.0,0.0,0.0,-7.6015,-7.6015,-7.6015,-7.6015,-7.6015,-7.6015,-7.6015,0.0,-7.6015,-7.6169,-7.6207,-7.6015,-7.6361,-7.6524,-7.6288,-7.6668,-7.6894,-7.6914,-7.7109,-7.7187,-7.7187,0.0,0.0,0.0,0.0,-7.6583,-7.6361,-7.6169,-7.6092,-7.613,-7.6053,-7.6015,-7.6015,0.0,-7.6015,-7.6015,-7.6015,-7.6015,-7.6015,-7.6015,-7.6015,-7.6015,-7.6015,-7.6015,-7.6015,-7.6015,-7.6015,-7.5947,-7.5818,-7.5446,-7.5054,-7.4751,-7.4034,-7.3341,0.0,0.0,0.0,0.0,-7.1872,-7.1321,-7.1321,-7.0477,-6.9596,-6.9009,-6.8201,-6.7687,-6.7687,-6.7687,-6.7687,-6.7687,-6.7687,-6.7687,-6.7687,-6.7687,-6.7687,-6.7687,-6.7871,-6.8605,-7.0036,0.0,0.0,-7.2459,-7.2496,-7.2496,-7.2496,-7.2496,-7.2496,-7.2496,-7.2496,-7.2496,-7.2496,-7.2496,-7.2496,-7.2496,-7.2496,-7.2496,-7.2496,-7.2496,-7.2496,-7.2496,-7.2496,-7.2496,-7.2496,-7.2496,-7.2071,-7.1448,-7.6015,0.0,0.0,-7.6015,0.0,0.0,-7.6015,-7.6015,0.0,-7.6015,-7.6015,0.0,-7.6015,-7.6015,-7.6015,-7.6015,-7.6015,0.0,-7.6015,-7.6092,-7.613,-7.6015,-7.6284,-7.6361,-7.6169,-7.6659,-7.6859,-7.6783,-7.7064,-7.7187,-7.7187,0.0,0.0,0.0,0.0,-7.6506,-7.6284,-7.6169,-7.6092,-7.6015,-7.6015,-7.6015,0.0,-7.6015,-7.6015,-7.6015,-7.6015,-7.6015,-7.6015,-7.6015,-7.6015,-7.6015,-7.6015,-7.6015,-7.6015,-7.6015,-7.6015,-7.6015,-7.6015,-7.5749,-7.5446,-7.5163,-7.4632,-7.4034,-7.3504,-7.3119,-7.2816,0.0,-7.2165,-7.1835,0.0,-7.1174,-7.0257,-6.9082,-6.8531,-6.8091,-6.7724,-6.7687,-6.7687,-6.7687,-6.7687,-6.7687,-6.7687,-6.7687,-6.7687,-6.7687,-6.7687,0.0,0.0,0.0,0.0,-7.2459,-7.2496,-7.2496,-7.2496,-7.2496,-7.2496,-7.2496,-7.2496,-7.2496,-7.2496,-7.2496,-7.2496,-7.2496,-7.2496,-7.2496,-7.2496,-7.2496,-7.2496,-7.2496,-7.2496,-7.2226,-7.1854,-7.1854,-7.1573,-7.0995,0.0,0.0,0.0,0.0,0.0,0.0,0.0,-7.6015,0.0,-7.6015,0.0,-7.6015,-7.6015,-7.6015,-7.6015,-7.6015,-7.6015,-7.6015,-7.6015,-7.6015,-7.6015,-7.6015,-7.6169,-7.6207,-7.6053,-7.6621,-7.6803,-7.666,-7.7029,-7.7187,0.0,0.0,0.0,0.0,-7.661,-7.6438,-7.6245,-7.6245,-7.6169,-7.6015,-7.6015,-7.6015,-7.6015,-7.6015,-7.6015,-7.6015,-7.6015,-7.6015,-7.6015,-7.6015,-7.6015,-7.6015,-7.6015,-7.6015,-7.6015,-7.6015,-7.6015,-7.6015,-7.6015,-7.6015,-7.5848,-7.534,-7.5163,-7.4828,-7.385,-7.3504,-7.3275,-7.2742,-7.2553,-7.2496,0.0,-7.1835,-7.0844,-6.9449,-6.9045,-6.8678,-6.8091,-6.7834,-6.7724,-6.7834,-6.776,0.0,-6.7687,-6.7687,-6.7687,-6.7687,-6.7687,0.0,0.0,0.0,-7.0844,-7.2459,-7.2496,-7.2496,-7.2496,0.0,-7.2496,-7.2496,-7.2496,-7.2496,-7.2496,-7.2496,-7.2496,-7.2496,-7.2496,-7.2496,-7.2496,-7.2496,-7.2438,-7.2285,-7.2285,-7.1732,-7.0865,-7.08,-7.0734,-7.0566,0.0,0.0,0.0,0.0,0.0,-7.6015,-7.6015,-7.6015,-7.6015,-7.6015,-7.6015,-7.6015,-7.6015,-7.6015,-7.6015,-7.6015,-7.6015,0.0,-7.6015,-7.6015,-7.6015,-7.6015,-7.6169,-7.6284,-7.6245,-7.6698,-7.6871,-7.6854,-7.7082,-7.7187,0.0,0.0,0.0,-7.6606,-7.661,-7.6399,-7.6053,-7.6053,0.0,-7.6015,-7.6015,-7.6015,-7.6015,-7.6015,-7.6015,-7.6015,-7.6015,-7.6015,-7.6015,-7.6015,-7.6015,-7.6015,-7.6015,-7.6015,-7.6015,-7.6015,-7.6015,-7.6015,-7.6015,-7.6015,-7.5947,-7.5848,-7.5446,-7.5054,-7.4828,-7.4079,-7.3391,-7.3238,-7.2871,-7.2496,-7.2496,0.0,-7.1211,-7.0954,-6.9779,-6.9082,-6.9596,-6.8531,-6.7944,-6.8605,-6.8091,-6.7687,-6.7687,-6.7687,-6.7687,-6.7687,-6.7687,-6.8385,0.0,0.0,-7.0844,0.0,-7.2496,0.0,0.0,0.0,-7.2496,-7.2496,-7.2496,-7.2496,-7.2496,-7.2496,-7.2496,-7.2496,-7.2496,-7.2496,-7.2496,-7.2496,-7.2071,-7.135,-7.135,-7.0734,-6.9813,-6.8986,-6.8688,-6.8688,0.0,0.0,0.0,0.0,0.0,0.0,0.0,-7.6015,0.0,-7.6015,-7.6015,-7.6015,-7.6015,-7.6015,-7.6015,-7.6015,-7.6015,-7.6015,-7.6015,-7.6015,-7.6015,-7.6015,-7.6284,-7.6399,-7.6284,-7.6808,-7.7002,-7.689,-7.7102,-7.7187,0.0,0.0,0.0,-7.6606,-7.6494,-7.6284,-7.6015,0.0,0.0,-7.6015,-7.6015,-7.6015,-7.6015,-7.6015,-7.6015,-7.6015,-7.6015,-7.6015,-7.6015,-7.6015,-7.6015,-7.6015,-7.6015,-7.6015,-7.6015,-7.6015,-7.6015,-7.6015,-7.6015,-7.6015,-7.6015,-7.6015,-7.5787,-7.548,-7.5163,-7.4672,-7.4212,-7.3934,-7.3639,-7.3378,-7.305,-7.2411,0.0,0.0,-7.066,-7.0146,-7.011,-6.9412,-6.9082,-6.9486,-6.9192,-6.8788,-6.8348,-6.8311,-6.8311,-6.8311,-6.7944,-6.8568,-7.0624,0.0,-7.0844,0.0,0.0,0.0,0.0,0.0,0.0,-7.2496,-7.2496,-7.2496,-7.2496,-7.2496,-7.2496,-7.2496,-7.2496,-7.2496,-7.2438,-7.2011,-7.1511,-7.1095,-7.0535,-6.9813,-6.8873,-6.8343,-6.7911,-6.7501,0.0,-7.6015,0.0,0.0,-7.6015,0.0,-7.6015,-7.6015,-7.6015,-7.6015,-7.6015,-7.6015,-7.6015,-7.6015,-7.6015,-7.6015,-7.6015,-7.6015,-7.6015,-7.6015,-7.6015,-7.6053,-7.6399,-7.6544,-7.6399,-7.6936,-7.7106,-7.6985,-7.7106,-7.7109,0.0,-7.7098,-7.7014,0.0,0.0,0.0,0.0,0.0,-7.6169,-7.6015,-7.6015,-7.6015,-7.6015,-7.6015,-7.6015,-7.6015,-7.6015,-7.6015,-7.6015,-7.6015,-7.6015,-7.6015,-7.6015,-7.6015,-7.6015,-7.6015,-7.6015,-7.6015,-7.6015,-7.6015,-7.6015,-7.6015,-7.6015,-7.5887,-7.5413,-7.5163,-7.498,-7.4588,-7.4379,-7.4161,-7.3651,-7.3066,0.0,0.0,0.0,-7.1138,-7.066,-7.033,-7.0146,-7.033,-7.0036,-6.9669,-6.9192,-6.9009,-6.9045,-6.9376,-6.8495,-6.8862,-7.0954,-7.0624,-7.1027,0.0,0.0,-7.2496,-7.2496,0.0,-7.2496,-7.2496,-7.2496,-7.2496,-7.2496,-7.2496,-7.2496,-7.2496,-7.2496,-7.238,-7.2167,-7.1412,-7.0865,-7.0432,-6.9672,-6.8798,-6.7911,-6.7911,-6.742,-6.6812,0.0,0.0,0.0,0.0,0.0,0.0,-7.6015,-7.6015,-7.6015,-7.6015,-7.6015,-7.6015,-7.6015,-7.6015,-7.6015,-7.6015,-7.6015,-7.6015,-7.6015,-7.6015,-7.6092,-7.6245,-7.6476,-7.6698,-7.6852,-7.7092,-7.7187,-7.7178,-7.7187,-7.6797,0.0,-7.6834,0.0,0.0,0.0,0.0,0.0,-7.6288,-7.6169,-7.6015,-7.6015,-7.6015,-7.6015,-7.6015,-7.6015,-7.6015,-7.6015,-7.6015,-7.6015,-7.6015,-7.6015,-7.6015,-7.6015,-7.6015,-7.6015,-7.6015,-7.6015,-7.6015,-7.6015,-7.6015,-7.6015,-7.6015,-7.6015,-7.6015,-7.5917,-7.548,-7.5091,-7.5054,-7.467,-7.4293,-7.4206,-7.3699,-7.329,0.0,0.0,-7.1541,-7.2202,-7.1027,-7.0367,-7.1101,-6.9926,-6.9265,-6.9926,-6.9339,-6.9522,-7.0991,-6.9669,-6.9192,-7.0146,-7.0844,-7.1615,-7.2459,0.0,-7.2496,-7.2496,-7.2496,-7.2496,-7.2496,-7.2496,-7.2496,-7.2496,-7.2496,-7.2496,-7.2496,-7.2496,-7.2011,-7.1223,-7.1159,-7.0056,-6.8496,-6.8343,-6.7787,-6.6946,-6.6946,-6.6896,-6.6812,0.0,0.0,0.0,0.0,0.0,0.0,0.0,-7.6015,-7.6015,-7.6015,-7.6015,-7.6015,-7.6015,-7.6015,-7.6015,-7.6015,-7.6015,-7.6015,-7.6015,-7.6015,-7.6092,-7.6284,-7.6514,-7.6692,-7.689,-7.7092,-7.7187,-7.7187,-7.7187,-7.7031,-7.668,0.0,0.0,0.0,0.0,-7.6598,-7.6303,-7.643,-7.6284,-7.6015,-7.6015,-7.6015,-7.6015,-7.6015,-7.6015,-7.6015,-7.6015,-7.6015,-7.6015,-7.6015,-7.6015,-7.6015,-7.6015,-7.6015,-7.6015,-7.6015,-7.6015,-7.6015,-7.6015,-7.6015,-7.6015,-7.6015,-7.6015,-7.6015,-7.6015,-7.5818,-7.5654,-7.5654,-7.5165,-7.4789,-7.4789,-7.4299,-7.3841,-7.3492,0.0,-7.2519,-7.2516,-7.1945,-7.1651,-7.1982,-7.1468,-7.0991,-7.0844,-7.055,-7.0403,-7.0587,-7.0,-7.0183,-7.1468,-7.1394,-7.1688,-7.2459,0.0,-7.2496,-7.2496,-7.2496,-7.2496,-7.2496,-7.2496,-7.2496,-7.2496,-7.2496,-7.2496,-7.2438,-7.1915,-7.1794,-7.1794,-7.0056,-6.9278,-6.8947,-6.7787,-6.7161,-6.6812,-6.6812,-6.6812,-6.6812,-7.5017,0.0,-7.5271,0.0,-7.6015,-7.6015,-7.6015,-7.6015,-7.6015,-7.6015,-7.6015,-7.6015,-7.6015,-7.6015,-7.6015,-7.6015,-7.6015,-7.6015,-7.6015,-7.6015,-7.613,-7.6361,-7.6536,-7.6738,-7.6961,-7.7121,-7.7187,-7.7187,-7.7187,-7.707,0.0,0.0,0.0,0.0,-7.6986,-7.6769,-7.6399,-7.6533,-7.6361,-7.6015,-7.6015,-7.6015,-7.6015,-7.6015,-7.6015,-7.6015,-7.6015,-7.6015,-7.6015,-7.6015,-7.6015,-7.6015,-7.6015,-7.6015,-7.6015,-7.6015,-7.6015,-7.6015,-7.6015,-7.6015,-7.6015,-7.6015,-7.6015,-7.6015,-7.6015,-7.6015,-7.6015,-7.6015,-7.5686,-7.534,-7.534,-7.4905,-7.4422,-7.3989,0.0,0.0,-7.2816,-7.2573,-7.2496,-7.2496,-7.2312,-7.2018,-7.1688,-7.1468,-7.1174,-7.0844,0.0,-7.1211,-7.2092,-7.1835,0.0,0.0,0.0,0.0,0.0,-7.2496,-7.2496,-7.2496,-7.2496,-7.2496,-7.2496,-7.2496,-7.2496,-7.2438,-7.1794,-7.1573,-7.1511,-6.9494,-6.8723,-6.8682,-6.7325,-6.6812,-6.6812,-6.6812,-6.6812,-6.6812,-7.5017,-7.5091,-7.5271,-7.5917,-7.6015,-7.6015,-7.6015,-7.6015,-7.6015,-7.6015,-7.6015,-7.6015,-7.6015,-7.6015,-7.6015,-7.6015,-7.6015,-7.6015,-7.6015,-7.6015,-7.6169,0.0,0.0,-7.677,-7.7187,-7.7187,-7.7187,-7.7187,-7.7187,0.0,-7.5937,0.0,-7.6367,-7.7187,-7.7187,-7.6984,-7.6591,-7.661,-7.6361,-7.6015,-7.6015,-7.6015,-7.6015,-7.6015,-7.6015,-7.6015,-7.6015,-7.6015,-7.6015,-7.6015,-7.6015,-7.6015,-7.6015,-7.6015,-7.6015,-7.6015,-7.6015,-7.6015,-7.6015,-7.6015,-7.6015,-7.6015,-7.6015,-7.6015,-7.6015,-7.6015,-7.6015,-7.6015,-7.5976,-7.6015,-7.6015,-7.5518,-7.5091,-7.5091,0.0,0.0,-7.3391,-7.2871,-7.2496,-7.2496,-7.1798,-7.1651,-7.2422,-7.1798,-7.1651,0.0,0.0,0.0,0.0,0.0,0.0,-7.2496,-7.2496,0.0,-7.2496,-7.2496,-7.2496,-7.2496,-7.2496,-7.2496,-7.2496,-7.2496,-7.2496,-7.2496,-7.2496,-7.1448,-6.9708,-6.9708,-6.8531,-6.6812,-6.6812,-6.6812,-6.6812,-6.6812,-6.6812,-6.6812,-7.4341,-7.4547,-7.4866,-7.5818,-7.6015,-7.6015,-7.6015,-7.6015,-7.6015,-7.6015,-7.6015,-7.6015,-7.6015,-7.6015,-7.6015,0.0,-7.6015,-7.6015,0.0,-7.613,-7.6322,-7.6583,-7.6726,-7.6916,-7.7187,-7.7187,-7.7187,-7.7187,0.0,0.0,0.0,-7.6797,-7.6914,-7.7187,-7.7187,-7.699,-7.6591,-7.661,-7.6361,-7.6015,-7.6015,-7.6015,-7.6015,-7.6015,-7.6015,-7.6015,-7.6015,-7.6015,-7.6015,-7.6015,-7.6015,-7.6015,-7.6015,-7.6015,-7.6015,-7.6015,-7.6015,-7.6015,-7.6015,-7.6015,-7.6015,-7.6015,-7.6015,-7.6015,-7.6015,-7.6015,-7.6015,-7.6015,-7.6015,-7.6015,-7.6015,-7.5848,-7.5584,-7.5163,-7.479,0.0,-7.4072,-7.3841,-7.359,-7.3172,-7.2897,-7.2647,-7.2516,-7.2275,0.0,0.0,0.0,0.0,0.0,0.0,0.0,0.0,-7.2496,0.0,-7.2496,-7.2496,-7.2496,-7.2496,-7.2496,-7.2496,-7.2496,-7.2496,-7.2496,-7.2438,-7.1159,-7.0601,-7.0535,-6.8531,-6.7742,-6.7708,-6.7029,-6.6812,-6.6812,-6.6812,-6.6812,-6.6812,-7.4072,-7.4293,-7.4629,-7.5787,-7.6015,-7.6015,-7.6015,-7.6015,-7.6015,-7.6015,-7.6015,-7.6015,-7.6015,-7.6015,0.0,-7.6015,-7.6015,-7.6015,-7.6015,-7.613,-7.6311,-7.6606,-7.6722,-7.691,-7.7187,-7.7187,0.0,-7.7187,-7.7187,-7.7187,-7.7187,-7.7187,-7.7187,-7.7187,-7.7187,-7.699,-7.6591,-7.661,-7.6361,-7.6015,-7.6015,-7.6015,-7.6015,-7.6015,-7.6015,-7.6015,-7.6015,-7.6015,-7.6015,-7.6015,-7.6015,-7.6015,-7.6015,-7.6015,-7.6015,-7.6015,-7.6015,-7.6015,-7.6015,-7.6015,-7.6015,-7.6015,-7.6015,-7.6015,-7.6015,-7.6015,-7.6015,-7.6015,-7.6015,-7.6015,-7.6015,-7.6015,-7.5887,-7.548,-7.5271,-7.498,-7.467,-7.4422,-7.4072,-7.3492,-7.3391,0.0,0.0,-7.2496,-7.2496,0.0,0.0,0.0,0.0,0.0,0.0,-7.2496,-7.2496,0.0,-7.2496,-7.2496,-7.2496,-7.2496,-7.2496,-7.2496,-7.2496,-7.2496,-7.2496,-7.2438,-7.0901,-7.04,-7.04,-6.8223,-6.742,-6.7662,-6.7029,-6.6812,-6.6812,-6.6812,-6.6812,-6.6812,-7.4072,-7.4293,0.0,0.0,-7.6015,0.0,-7.6015,-7.6015,-7.6015,-7.6015,-7.6015,-7.6015,-7.6015,-7.6015,-7.6015,-7.6015,0.0,0.0,0.0,-7.6015,-7.6199,-7.656,-7.6597,-7.679,-7.7187,-7.7187,-7.7187,-7.7187,-7.7187,-7.7187,-7.7187,-7.7187,-7.7187,-7.7187,-7.7187,-7.699,-7.6591,-7.661,-7.6361,-7.6015,-7.6015,-7.6015,-7.6015,-7.6015,-7.6015,-7.6015,-7.6015,-7.6015,-7.6015,-7.6015,-7.6015,-7.6015,-7.6015,-7.6015,-7.6015,-7.6015,-7.6015,-7.6015,-7.6015,-7.6015,-7.6015,-7.6015,-7.6015,-7.6015,-7.6015,-7.6015,-7.6015,-7.6015,-7.6015,-7.6015,-7.6015,-7.6015,-7.6015,-7.6015,-7.5551,-7.5163,-7.5163,-7.4749,-7.4206,-7.3541,0.0,0.0,0.0,-7.2496,-7.2496,0.0,0.0,0.0,0.0,0.0,-7.2496,-7.2496,-7.2496,-7.2496,-7.2496,-7.2496,-7.2496,-7.2496,-7.2496,-7.2496,-7.2496,-7.2496,-7.2438,-7.2343,-7.1448,-7.0468,-6.9565,-6.8496,-6.7582,-6.6812,-6.6812,-6.6812,-6.6812,-6.6812,-6.6812,-6.6812,0.0,0.0,-7.4629,-7.5787,-7.6015,-7.6015,-7.6015,-7.6015,-7.6015,-7.6015,-7.6015,-7.6015,-7.6015,-7.6015,-7.6015,-7.6015,-7.6015,-7.6015,-7.6015,-7.613,-7.6332,-7.6598,-7.6738,-7.6946,-7.7187,-7.7187,-7.7187,-7.7187,-7.7187,-7.7187,-7.7187,-7.7187,-7.7187,-7.7187,-7.7187,-7.699,-7.6591,-7.661,-7.6361,-7.6015,-7.6015,-7.6015,-7.6015,-7.6015,-7.6015,-7.6015,-7.6015,-7.6015,-7.6015,-7.6015,-7.6015,-7.6015,-7.6015,-7.6015,-7.6015,-7.6015,-7.6015,-7.6015,-7.6015,-7.6015,-7.6015,-7.6015,-7.6015,-7.6015,-7.6015,-7.6015,-7.6015,-7.6015,-7.6015,-7.6015,-7.6015,-7.6015,-7.6015,-7.6015,-7.5887,-7.5787,-7.5787,-7.5686,-7.5239,0.0,-7.4072,-7.3688,-7.2573,-7.2496,-7.2496,0.0,0.0,0.0,0.0,-7.2496,-7.2496,-7.2496,-7.2496,-7.2496,-7.2496,-7.2496,-7.2496,-7.2496,-7.2496,-7.2496,-7.2496,-7.2496,-7.2071,-7.135,-7.0468,-6.9458,-6.8496,-6.7501,-6.7029,-6.6812,-6.6812,-6.6812,-6.6812,-6.6812,-6.6812,-6.6812,-7.4072,-7.4293,-7.4629,-7.5787,-7.6015,-7.6015,-7.6015,-7.6015,-7.6015,-7.6015,-7.6015,-7.6015,-7.6015,-7.6015,-7.6015,-7.6015,-7.6015,-7.6015,-7.6015,-7.6169,-7.6361,-7.6583,-7.6769,-7.6995,-7.7187,-7.7187,-7.7187,-7.7187,-7.7187,-7.7187,-7.7187,-7.7187,-7.7187,-7.7187,-7.7187,-7.699,-7.6591,-7.661,-7.6361,-7.6015,-7.6015,-7.6015,-7.6015,-7.6015,-7.6015,-7.6015,-7.6015,-7.6015,-7.6015,-7.6015,-7.6015,-7.6015,-7.6015,-7.6015,-7.6015,-7.6015,-7.6015,-7.6015,-7.6015,-7.6015,-7.6015,-7.6015,-7.6015,-7.6015,-7.6015,-7.6015,-7.6015,-7.6015,-7.6015,-7.6015,-7.6015,-7.6015,-7.6015,-7.6015,-7.6015,-7.6015,-7.6015,-7.6015,-7.5589,-7.4422,-7.4293,-7.3794,-7.263,-7.2496,-7.2496,-7.2496,-7.2496,0.0,-7.2496,-7.2496,-7.2496,-7.2496,-7.2496,-7.2496,-7.2496,-7.2496,-7.2496,-7.2496,-7.2496,-7.2496,-7.2496,-7.2071,-7.1573,-7.0995,-6.9601,-6.8723,-6.8146,-6.7161,-6.6812,-6.6812,-6.6812,-6.6812,-6.6812,-6.6812,-6.6812,-6.6812,-7.4072,-7.4293,-7.4629,-7.5787,-7.6015,-7.6015,-7.6015,-7.6015,-7.6015,-7.6015,-7.6015,-7.6015,-7.6015,-7.6015,-7.6015,-7.6015,-7.6015,-7.6015,-7.6015,-7.6169,-7.638,-7.6569,-7.6794,-7.7001,-7.7187,-7.7187,-7.7187,-7.7187,-7.7187,-7.7187,-7.7187,-7.7187,-7.7187,-7.7187,-7.7187,-7.699,-7.6591,-7.661,-7.6361,-7.6015,-7.6015,-7.6015,-7.6015,-7.6015,-7.6015,-7.6015,-7.6015,-7.6015,-7.6015,-7.6015,-7.6015,-7.6015,-7.6015,-7.6015,-7.6015,-7.6015,-7.6015,-7.6015,-7.6015,-7.6015,-7.6015,-7.6015,-7.6015,-7.6015,-7.6015,-7.6015,-7.6015,-7.6015,-7.6015,-7.6015,-7.6015,-7.6015,-7.6015,-7.6015,-7.6015,-7.6015,-7.6015,0.0,-7.5589,-7.4422,-7.4293,-7.3794,-7.263,-7.2496,-7.2496,-7.2496,-7.2496,-7.2496,-7.2496,-7.2496,-7.2496,-7.2496,-7.2496,-7.2496,-7.2496,-7.2496,-7.2496,-7.2496,-7.2496,-7.2496,-7.2496,-7.1635,-7.1159,-7.08,-6.9133,-6.8266,-6.7911,-6.7161,-6.6812,-6.6812,-6.6812,-6.6812,-6.6812,-6.6812,-6.6812,-6.6812,-7.4072,-7.4293,-7.4629,-7.5787,-7.6015,-7.6015,-7.6015,-7.6015,-7.6015,-7.6015,-7.6015,-7.6015,-7.6015,-7.6015,-7.6015,-7.6015,-7.6015,-7.6015,-7.6015,-7.6169,-7.6366,-7.6588,-7.6789,-7.7001,-7.7187,-7.7187,-7.7187,-7.7187,-7.7187,-7.7187,-7.7187,-7.7187,-7.7187,-7.7187,-7.7187,-7.699,-7.6591,-7.661,-7.6361,-7.6015,-7.6015,-7.6015,-7.6015,-7.6015,-7.6015,-7.6015,-7.6015,-7.6015,-7.6015,-7.6015,-7.6015,-7.6015,-7.6015,-7.6015,-7.6015,-7.6015,-7.6015,-7.6015,-7.6015,-7.6015,-7.6015,-7.6015,-7.6015,-7.6015,-7.6015,-7.6015,-7.6015,-7.6015,-7.6015,-7.6015,-7.6015,-7.6015,-7.6015,-7.6015,-7.6015,-7.6015,-7.6015,0.0,-7.5589,-7.4422,-7.4293,-7.3794,-7.263,-7.2496,-7.2496,-7.2496,-7.2496,-7.2496,-7.2496,-7.2496,-7.2496,-7.2496,-7.2496,-7.2496,-7.2496,-7.2496,-7.2496,-7.2496,-7.2496,-7.2496,-7.2496,-7.2343,-7.1448,-6.9919,-6.9637,-6.8531,-6.7029,-6.6896,-6.6812,-6.6812,-6.6812,-6.6812,-6.6812,-6.6812,-6.6812,-6.6812,-7.4072,-7.4293,-7.4629,-7.5787,-7.6015,-7.6015,-7.6015,-7.6015,-7.6015,-7.6015,-7.6015,-7.6015,-7.6015,-7.6015,-7.6015,-7.6015,-7.6015,-7.6015,-7.6015,-7.6284,-7.6494,-7.6606,-7.6883,-7.7112,-7.7187,-7.7187,-7.7187,-7.7187,-7.7187,-7.7187,-7.7187,-7.7187,-7.7187,-7.7187,-7.7187,-7.699,-7.6591,-7.661,-7.6361,-7.6015,-7.6015,-7.6015,-7.6015,-7.6015,-7.6015,-7.6015,-7.6015,-7.6015,-7.6015,-7.6015,-7.6015,-7.6015,-7.6015,-7.6015,-7.6015,-7.6015,-7.6015,-7.6015,-7.6015,-7.6015,-7.6015,-7.6015,-7.6015,-7.6015,-7.6015,-7.6015,-7.6015,-7.6015,-7.6015,-7.6015,-7.6015,-7.6015,-7.6015,-7.6015,-7.6015,0.0,0.0,-7.6015,-7.5589,-7.4422,-7.4293,-7.3794,-7.263,-7.2496,-7.2496,-7.2496,-7.2496,-7.2496,-7.2496,-7.2496,-7.2496,-7.2496,-7.2496,-7.2496,-7.2496,-7.2496,-7.2496,-7.2496,-7.2496,-7.2496,-7.2438,-7.1448,-7.0535,-6.9637,-6.8607,-6.7616,-6.6812,-6.6812,-6.6812,-6.6812,-6.6812,-6.6812,-6.6812,-6.6812,-6.6812,-6.6812,-7.4072,-7.4293,-7.4629,-7.5787,-7.6015,-7.6015,-7.6015,-7.6015,-7.6015,-7.6015,-7.6015,-7.6015,-7.6015,-7.6015,-7.6015,-7.6015,-7.6015,-7.6015,-7.6015,-7.6361,-7.661,-7.6606,-7.6995,-7.7187,-7.7187,-7.7187,-7.7187,-7.7187,-7.7187,-7.7187,-7.7187,-7.7187,-7.7187,-7.7187,-7.7187,-7.699,-7.6591,-7.661,-7.6361,-7.6015,-7.6015,-7.6015,-7.6015,-7.6015,-7.6015,-7.6015,-7.6015,-7.6015,-7.6015,-7.6015,-7.6015,-7.6015,-7.6015,-7.6015,-7.6015,-7.6015,-7.6015,-7.6015,-7.6015,-7.6015,-7.6015,-7.6015,-7.6015,-7.6015,-7.6015,-7.6015,-7.6015,-7.6015,-7.6015,-7.6015,-7.6015,-7.6015,-7.6015,-7.6015,0.0,0.0,0.0,-7.6015,-7.5589,-7.4422,-7.4293,-7.3794,-7.263,-7.2496,-7.2496,-7.2496,-7.2496,-7.2496,-7.2496,-7.2496,-7.2496,-7.2496,-7.2496,-7.2496,-7.2496,-7.2496,-7.2496,-7.2496,-7.2496,-7.2496,-7.2438,-7.08,-6.9919,-6.9637,-6.7866,-6.7029,-6.6812,-6.6812,-6.6812,-6.6812,-6.6812,-6.6812,-6.6812,-6.6812,-6.6812,-6.6812,-7.4072,-7.4293,-7.4629,-7.5787,-7.6015,-7.6015,-7.6015,-7.6015,-7.6015,-7.6015,-7.6015,-7.6015,-7.6015,-7.6015,-7.6015,-7.6015,-7.6015,-7.6015,-7.6015,-7.6361,-7.661,-7.6606,-7.6995,-7.7187,-7.7187,-7.7187,-7.7187,-7.7187,-7.7187,-7.7187,-7.7187,-7.7187,-7.7187,-7.7187,-7.7187,-7.699,-7.6591,-7.661,-7.6361,-7.6015,-7.6015,-7.6015,-7.6015,-7.6015,-7.6015,-7.6015,-7.6015,-7.6015,-7.6015,-7.6015,-7.6015,-7.6015,-7.6015,-7.6015,-7.6015,-7.6015,-7.6015,-7.6015,-7.6015,-7.6015,-7.6015,-7.6015,-7.6015,-7.6015,-7.6015,-7.6015,-7.6015,-7.6015,-7.6015,-7.6015,-7.6015,-7.6015,-7.6015,-7.6015,0.0,0.0,-7.6015,-7.6015,-7.5589,-7.4422,-7.4293,-7.3794,-7.263,-7.2496,-7.2496,-7.2496,-7.2496,-7.2496,-7.2496,-7.2496,-7.2496,-7.2496,-7.2496,-7.2496,-7.2496,-7.2496,-7.2496,-7.2496,-7.2496,-7.2496,-7.2438,-7.1448,-7.0535,-6.9637,-6.8572,-6.7582,-6.6812,-6.6812,-6.6812,-6.6812,-6.6812,-6.6812,-6.6812,-6.6812,-6.6812,-6.6812,-7.4891,-7.5048,-7.5236,-7.5864,-7.6015,-7.6015,-7.6015,-7.6015,-7.6015,-7.6015,-7.6015,-7.6015,-7.6015,-7.6015,-7.6015,-7.6015,-7.6015,-7.6015,-7.6015,-7.6361,-7.6721,-7.6978,-7.7105,-7.7187,-7.7187,-7.7187,-7.7187,-7.7187,-7.7187,-7.7187,-7.7187,-7.7187,-7.7187,-7.7187,-7.7187,-7.699,-7.6591,-7.661,-7.6361,-7.6015,-7.6015,-7.6015,-7.6015,-7.6015,-7.6015,-7.6015,-7.6015,-7.6015,-7.6015,-7.6015,-7.6015,-7.6015,-7.6015,-7.6015,-7.6015,-7.6015,-7.6015,-7.6015,-7.6015,-7.6015,-7.6015,-7.6015,-7.6015,-7.6015,-7.6015,-7.6015,-7.6015,-7.6015,-7.6015,-7.6015,-7.6015,-7.6015,-7.6015,-7.6015,0.0,-7.6015,-7.6015,-7.5686,-7.5165,-7.4379,-7.398,-7.3391,-7.261,-7.2496,-7.2496,-7.2496,-7.2496,-7.2496,-7.2496,-7.2496,-7.2496,-7.2496,-7.2496,-7.2496,-7.2496,-7.2496,-7.2496,-7.2496,-7.2496,-7.2226,-7.1573,-7.0668,-6.9672,-6.8723,-6.7708,-6.7161,-6.6812,-6.6812,-6.6812,-6.6812,-6.6812,-6.6812,-6.6812,-6.6812,-6.6812,-6.6812,-7.5718,-7.5689,-7.569,-7.6286,-7.6169,-7.6015,-7.6015,-7.6015,-7.6015,-7.6015,-7.6015,-7.6015,-7.6015,-7.6015,-7.6015,-7.6015,-7.6015,-7.6015,-7.6015,-7.6391,-7.6782,-7.7187,-7.7187,-7.7187,-7.7187,-7.7187,-7.7187,-7.7187,-7.7187,-7.7187,-7.7187,-7.7187,-7.7187,-7.7187,-7.7128,-7.6933,-7.6591,-7.6533,-7.6284,-7.6015,-7.6015,-7.6015,-7.6015,-7.6015,-7.6015,-7.6015,-7.6015,-7.6015,-7.6015,-7.6015,-7.6015,-7.6015,-7.6015,-7.6015,-7.6015,-7.6015,-7.6015,-7.6015,-7.6015,-7.6015,-7.6015,-7.6015,-7.6015,-7.6015,-7.6015,-7.6015,-7.6015,-7.6015,-7.6015,-7.6015,-7.6015,-7.6015,-7.6015,-7.6015,-7.6015,-7.6015,-7.6015,-7.5616,-7.5129,-7.4379,-7.3934,-7.3341,-7.261,-7.2496,-7.2496,-7.2496,-7.2496,-7.2496,-7.2496,-7.2496,-7.2496,-7.2496,-7.2496,-7.2496,-7.2496,-7.2496,-7.2496,-7.2496,-7.2496,-7.2011,-7.1095,-7.0127,-6.9168,-6.8146,-6.7243,-6.6812,-6.6812,-6.6812,-6.6812,-6.6812,-6.6812,-6.6812,-6.6812,-6.6812,-6.6812,-6.6812,-7.6432,-7.6066,-7.588,-7.7093,-7.6592,-7.6015,-7.6015,-7.6015,-7.6015,-7.6015,-7.6015,-7.6015,-7.6015,-7.6015,-7.6015,-7.6015,-7.6015,-7.6015,-7.6015,-7.6361,-7.677,-7.7187,-7.7187,-7.7187,-7.7187,-7.7187,-7.7187,-7.7187,-7.7187,-7.7187,-7.7187,-7.7187,-7.7187,-7.7187,-7.7,-7.6799,-7.6591,-7.6392,-7.6169,-7.6015,-7.6015,-7.6015,-7.6015,-7.6015,-7.6015,-7.6015,-7.6015,-7.6015,-7.6015,-7.6015,-7.6015,-7.6015,-7.6015,-7.6015,-7.6015,-7.6015,-7.6015,-7.6015,-7.6015,-7.6015,-7.6015,-7.6015,-7.6015,-7.6015,-7.6015,-7.6015,-7.6015,-7.6015,-7.6015,-7.6015,-7.6015,-7.6015,-7.6015,-7.6015,-7.6015,-7.6015,-7.5976,-7.5976,-7.5589,-7.4422,-7.4293,-7.3794,-7.263,-7.2496,-7.2496,-7.2496,-7.2496,-7.2496,-7.2496,-7.2496,-7.2496,-7.2496,-7.2496,-7.2496,-7.2496,-7.2496,-7.2496,-7.2496,-7.2496,-7.2011,-7.1095,-7.0127,-6.9168,-6.8146,-6.7243,-6.6812,-6.6812,-6.6812,-6.6812,-6.6812,-6.6812,-6.6812,-6.6812,-6.6812,-6.6812,-6.6812,-7.741,-7.7342,-7.7207,-7.7284,-7.7092,-7.6707,-7.6092,-7.6015,-7.6015,-7.6015,-7.6015,-7.6015,-7.6015,-7.6015,-7.6015,-7.6015,-7.6015,-7.613,-7.6399,-7.6516,-7.677,-7.7187,-7.7187,-7.7187,-7.7187,-7.7187,-7.7187,-7.7187,-7.7187,-7.7187,-7.7187,-7.7187,-7.7187,-7.7187,-7.7,-7.6773,-7.661,-7.6398,-7.6169,-7.6015,-7.6015,-7.6015,-7.6015,-7.6015,-7.6015,-7.6015,-7.6015,-7.6015,-7.6015,-7.6015,-7.6015,-7.6015,-7.6015,-7.6015,-7.6015,-7.6015,-7.6015,-7.6015,-7.6015,-7.6015,-7.6015,-7.6015,-7.6015,-7.6015,-7.6015,-7.6015,-7.6015,-7.6015,-7.6015,-7.6015,-7.6015,-7.6015,-7.6015,-7.6015,-7.6015,-7.5848,-7.5446,-7.5379,-7.4943,-7.3794,-7.3651,-7.3341,-7.261,-7.2496,-7.2496,-7.2496,-7.2496,-7.2496,-7.2496,-7.2496,-7.2496,-7.2496,-7.2496,-7.2496,-7.2496,-7.2496,-7.2496,-7.2496,-7.2496,-7.1671,-7.0127,-6.9849,-6.8833,-6.7243,-6.6946,-6.6812,-6.6812,-6.6812,-6.6812,-6.6812,-6.6812,-6.6812,-6.6812,-6.6812,-6.6812,-6.6812,-7.8237,-7.8134,-7.8002,-7.8244,-7.7746,-7.713,-7.6592,-7.6207,-7.6015,-7.6015,-7.6015,-7.6015,-7.6015,-7.6015,-7.6015,-7.6015,-7.6015,-7.6169,-7.6583,-7.6594,-7.677,-7.7187,-7.7187,-7.7187,-7.7187,-7.7187,-7.7187,-7.7187,-7.7187,-7.7187,-7.7187,-7.7187,-7.7187,-7.7187,-7.6893,-7.6714,-7.6583,-7.6284,-7.6092,-7.6015,-7.6015,-7.6015,-7.6015,-7.6015,-7.6015,-7.6015,-7.6015,-7.6015,-7.6015,-7.6015,-7.6015,-7.6015,-7.6015,-7.6015,-7.6015,-7.6015,-7.6015,-7.6015,-7.6015,-7.6015,-7.6015,-7.6015,-7.6015,-7.6015,-7.6015,-7.6015,-7.6015,-7.6015,-7.6015,-7.6015,-7.6015,-7.6015,-7.6015,-7.6015,-7.5818,-7.5584,-7.5446,-7.5054,-7.4509,-7.3841,-7.3541,-7.3172,-7.2553,-7.2496,-7.2496,-7.2496,-7.2496,-7.2496,-7.2496,-7.2496,-7.2496,-7.2496,-7.2496,-7.2496,-7.2496,-7.2496,-7.2496,-7.2496,-7.2496,-7.1511,-6.9708,-6.9708,-6.8607,-6.6812,-6.6812,-6.6812,-6.6812,-6.6812,-6.6812,-6.6812,-6.6812,-6.6812,-6.6812,-6.6812,-6.6812,-6.6812,-7.8962,-7.8557,-7.8382,-7.9588,-7.8554,-7.7476,-7.74,-7.6669,-7.613,-7.613,-7.6053,-7.6015,-7.6015,-7.6015,-7.6015,-7.6015,-7.6015,-7.6169,-7.6583,-7.6594,-7.677,-7.7187,-7.7187,-7.7187,-7.7187,-7.7187,-7.7187,-7.7187,-7.7187,-7.7187,-7.7187,-7.7187,-7.7186,-7.7176,-7.6788,-7.6594,-7.6544,-7.6169,-7.6015,-7.6015,-7.6015,-7.6015,-7.6015,-7.6015,-7.6015,-7.6015,-7.6015,-7.6015,-7.6015,-7.6015,-7.6015,-7.6015,-7.6015,-7.6015,-7.6015,-7.6015,-7.6015,-7.6015,-7.6015,-7.6015,-7.6015,-7.6015,-7.6015,-7.6015,-7.6015,-7.6015,-7.6015,-7.6015,-7.6015,-7.6015,-7.6015,-7.6015,-7.6015,-7.6015,-7.5551,-7.5344,-7.5787,-7.4981,-7.4336,-7.4161,-7.3699,-7.3172,-7.2553,-7.2496,-7.2496,-7.2496,-7.2496,-7.2496,-7.2496,-7.2496,-7.2496,-7.2496,-7.2496,-7.2496,-7.2496,-7.2496,-7.2496,-7.2496,-7.2438,-7.1448,-6.9708,-6.9637,-6.8531,-6.6812,-6.6812,-6.6812,-6.6812,-6.6812,-6.6812,-6.6812,-6.6812,-6.6812,-6.6812,-6.6812,-6.6812,-6.6812,-7.8962,-7.9047,-7.9102,-7.9703,-7.9515,-7.9015,-7.8323,-7.7553,-7.7015,-7.7015,-7.6438,-7.6015,-7.6015,-7.6015,-7.6015,-7.6015,-7.6015,-7.6169,-7.6583,-7.6594,-7.677,-7.7187,-7.7187,-7.7187,-7.7187,-7.7187,-7.7187,-7.7187,-7.7187,-7.7187,-7.7187,-7.7187,-7.7137,-7.6969,-7.6704,-7.6516,-7.6322,-7.6092,-7.6015,-7.6015,-7.6015,-7.6015,-7.6015,-7.6015,-7.6015,-7.6015,-7.6015,-7.6015,-7.6015,-7.6015,-7.6015,-7.6015,-7.6015,-7.6015,-7.6015,-7.6015,-7.6015,-7.6015,-7.6015,-7.6015,-7.6015,-7.6015,-7.6015,-7.6015,-7.6015,-7.6015,-7.6015,-7.6015,-7.6015,-7.6015,-7.6015,-7.6015,-7.6015,-7.6015,-7.5917,-7.5518,-7.4787,-7.4828,-7.4426,-7.3013,-7.3172,-7.3172,-7.2553,-7.2496,-7.2496,-7.2496,-7.2496,-7.2496,-7.2496,-7.2496,-7.2496,-7.2496,-7.2496,-7.2496,-7.2496,-7.2496,-7.2496,-7.2496,-7.1732,-7.08,-6.9708,-6.8873,-6.7866,-6.6812,-6.6812,-6.6812,-6.6812,-6.6812,-6.6812,-6.6812,-6.6812,-6.6812,-6.6812,-6.6812,-6.6812,-6.6812,-7.8962,-7.9198,-7.9443,-8.0279,-8.0092,-7.9669,-7.9208,-7.84,-7.7707,-7.7361,-7.6899,-7.6476,-7.6053,-7.6015,-7.6015,-7.6015,-7.6015,-7.6169,-7.6583,-7.6594,-7.677,-7.7187,-7.7187,-7.7187,-7.7187,-7.7187,-7.7187,-7.7187,-7.7187,-7.7187,-7.7187,-7.7187,-7.7082,-7.689,-7.6683,-7.648,-7.6284,-7.6092,-7.6015,-7.6015,-7.6015,-7.6015,-7.6015,-7.6015,-7.6015,-7.6015,-7.6015,-7.6015,-7.6015,-7.6015,-7.6015,-7.6015,-7.6015,-7.6015,-7.6015,-7.6015,-7.6015,-7.6015,-7.6015,-7.6015,-7.6015,-7.6015,-7.6015,-7.6015,-7.6015,-7.6015,-7.6015,-7.6015,-7.6015,-7.6015,-7.6015,-7.6015,-7.6015,-7.6015,-7.5787,-7.5379,-7.4789,-7.4468,-7.3943,-7.305,-7.2943,-7.2871,-7.2553,-7.2496,-7.2496,-7.2496,-7.2496,-7.2496,-7.2496,-7.2496,-7.2496,-7.2496,-7.2496,-7.2496,-7.2496,-7.2496,-7.2285,-7.1854,-7.135,-7.0364,-6.8947,-6.842,-6.7708,-6.6812,-6.6812,-6.6812,-6.6812,-6.6812,-6.6812,-6.6812,-6.6812,-6.6812,-6.6812,-6.6812,-6.6812,-6.6812,-7.8962,-7.9198,-7.96,-8.0855,-8.0516,-8.0015,-8.0015,-7.9285,-7.8477,-7.7823,-7.7592,-7.7207,-7.6515,-7.6284,-7.6169,-7.6015,-7.6015,-7.6169,-7.6583,-7.6594,-7.677,-7.7187,-7.7187,-7.7187,-7.7187,-7.7187,-7.7187,-7.7187,-7.7187,-7.7187,-7.7187,-7.7187,-7.7063,-7.6828,-7.6678,-7.6438,-7.6245,-7.6053,-7.6015,-7.6015,-7.6015,-7.6015,-7.6015,-7.6015,-7.6015,-7.6015,-7.6015,-7.6015,-7.6015,-7.6015,-7.6015,-7.6015,-7.6015,-7.6015,-7.6015,-7.6015,-7.6015,-7.6015,-7.6015,-7.6015,-7.6015,-7.6015,-7.6015,-7.6015,-7.6015,-7.6015,-7.6015,-7.6015,-7.6015,-7.6015,-7.6015,-7.6015,-7.6015,-7.6015,-7.5584,-7.5201,-7.498,-7.4168,-7.3492,-7.3238,-7.2816,-7.2496,-7.2496,-7.2496,-7.2496,-7.2496,-7.2496,-7.2496,-7.2496,-7.2496,-7.2496,-7.2496,-7.2496,-7.2496,-7.2496,-7.2343,-7.1794,-7.0865,-7.0668,-6.9778,-6.8189,-6.8068,-6.7501,-6.6812,-6.6812,-6.6812,-6.6812,-6.6812,-6.6812,-6.6812,-6.6812,-6.6812,-6.6812,-6.6812,-6.6812,-6.6812,-7.8962,-7.9198,-7.96,-8.0855,-8.1016,-8.0939,-8.0939,-8.0169,-7.9592,-7.9477,-7.8823,-7.8284,-7.8169,-7.7553,-7.6823,-7.6053,-7.6015,-7.6169,-7.6583,-7.6594,-7.677,-7.7187,-7.7187,-7.7187,-7.7187,-7.7187,-7.7187,-7.7187,-7.7187,-7.7187,-7.7187,-7.7187,-7.6984,-7.6643,-7.6623,-7.6361,-7.6053,-7.6015,-7.6015,-7.6015,-7.6015,-7.6015,-7.6015,-7.6015,-7.6015,-7.6015,-7.6015,-7.6015,-7.6015,-7.6015,-7.6015,-7.6015,-7.6015,-7.6015,-7.6015,-7.6015,-7.6015,-7.6015,-7.6015,-7.6015,-7.6015,-7.6015,-7.6015,-7.6015,-7.6015,-7.6015,-7.6015,-7.6015,-7.6015,-7.6015,-7.6015,-7.6015,-7.6015,-7.6015,-7.5947,-7.5518,-7.4547,-7.4293,-7.3794,-7.2742,-7.2553,-7.2496,-7.2496,-7.2496,-7.2496,-7.2496,-7.2496,-7.2496,-7.2496,-7.2496,-7.2496,-7.2496,-7.2496,-7.2496,-7.2496,-7.1696,-7.08,-6.9919,-6.9021,-6.8496,-6.8189,-6.7373,-6.6946,-6.6812,-6.6812,-6.6812,-6.6812,-6.6812,-6.6812,-6.6812,-6.6812,-6.6812,-6.6812,-6.6812,-6.6812,-6.6812,-7.901,-7.9469,-8.0007,-8.0959,-8.1093,-8.1093,-8.1093,-8.0785,-8.0362,-7.9862,-7.9477,-7.9054,-7.8554,-7.8169,-7.7823,-7.7438,-7.7092,-7.6976,-7.7237,-7.6958,-7.6926,-7.7187,-7.7187,-7.7187,-7.7187,-7.7187,-7.7187,-7.7187,-7.7187,-7.7187,-7.7187,-7.71,-7.6887,-7.6606,-7.6494,-7.6245,-7.6015,-7.6015,-7.6015,-7.6015,-7.6015,-7.6015,-7.6015,-7.6015,-7.6015,-7.6015,-7.6015,-7.6015,-7.6015,-7.6015,-7.6015,-7.6015,-7.6015,-7.6015,-7.6015,-7.6015,-7.6015,-7.6015,-7.6015,-7.6015,-7.6015,-7.6015,-7.6015,-7.6015,-7.6015,-7.6015,-7.6015,-7.6015,-7.6015,-7.6015,-7.6015,-7.6015,-7.6015,-7.6015,-7.5718,-7.5201,-7.4422,-7.4026,-7.3492,-7.2573,-7.2496,-7.2496,-7.2496,-7.2496,-7.2496,-7.2496,-7.2496,-7.2496,-7.2496,-7.2496,-7.2496,-7.2496,-7.2496,-7.2496,-7.2496,-7.1573,-7.0601,-6.9708,-6.8648,-6.7911,-6.7454,-6.7029,-6.6812,-6.6812,-6.6812,-6.6812,-6.6812,-6.6812,-6.6812,-6.6812,-6.6812,-6.6812,-6.6812,-6.6812,-6.6812,-6.6812]}]]